[[{"header":{"parameterUnit":"m.s-1","parameterCategory":1,"la1":30.6,"la2":28.766,"lo1":-90.7593,"lo2":-88.6598,"dy":0.0162,"dx":0.0183,"nx":116,"ny":114,"refTime":"2023-09-04T00:00:00:Z","depth":0,"parameterNumber":2,"parameterNumberName":"U-component_of_WINDS"},"data":[0.0,0.0,0.0,0.0,0.0,0.0,0.0,0.0,0.0,0.0,0.0,0.0,0.0,0.0,0.0,0.0,0.0,0.0,0.0,0.0,0.0,0.0,0.0,0.0,0.0,0.0,0.0,0.0,0.0,0.0,0.0,0.0,0.0,0.0,0.0,0.0,0.0,0.0,0.0,0.0,0.0,0.0,0.0,0.0,0.0,0.0,0.0,0.0,0.0,0.0,0.0,0.0,0.0,0.0,0.0,0.0,0.0,0.0,0.0,0.0,0.0,0.0,0.0,0.0,0.0,0.0,0.0,0.0,0.0,0.0,0.0,0.0,0.0,0.0,0.0,0.0,0.0,0.0,0.0,0.0,0.0,0.0,0.0,0.0,0.0,0.0,0.0,0.0,0.0,0.0,0.0,0.0,0.0,0.0,0.0,0.0,0.0,0.0,0.0,0.0,0.0,0.0,0.0,0.0,0.0,0.0,0.0,0.0,0.0,0.0,0.0,0.0,0.0,0.0,0.0,0.0,0.0,0.0,0.0,0.0,0.0,0.0,0.0,0.0,0.0,0.0,0.0,0.0,0.0,0.0,0.0,0.0,0.0,0.0,0.0,0.0,0.0,0.0,0.0,0.0,0.0,0.0,0.0,0.0,0.0,0.0,0.0,0.0,0.0,0.0,0.0,0.0,0.0,0.0,0.0,0.0,0.0,0.0,0.0,0.0,0.0,0.0,0.0,0.0,0.0,0.0,0.0,0.0,0.0,0.0,0.0,0.0,0.0,0.0,0.0,0.0,0.0,0.0,0.0,0.0,0.0,0.0,0.0,0.0,0.0,0.0,0.0,0.0,0.0,0.0,0.0,0.0,0.0,0.0,0.0,0.0,0.0,0.0,0.0,0.0,0.0,0.0,0.0,0.0,0.0,0.0,0.0,0.0,0.0,0.0,0.0,0.0,0.0,0.0,0.0,0.0,0.0,0.0,0.0,0.0,0.0,0.0,0.0,0.0,0.0,0.0,0.0,0.0,0.0,0.0,0.0,0.0,0.0,0.0,0.0,0.0,0.0,0.0,0.0,0.0,0.0,0.0,0.0,0.0,0.0,0.0,0.0,0.0,0.0,0.0,0.0,0.0,0.0,0.0,0.0,0.0,0.0,0.0,0.0,0.0,0.0,0.0,0.0,0.0,0.0,0.0,0.0,0.0,0.0,0.0,0.0,0.0,0.0,0.0,0.0,0.0,0.0,0.0,0.0,0.0,0.0,0.0,0.0,0.0,0.0,0.0,0.0,0.0,0.0,0.0,0.0,0.0,0.0,0.0,0.0,0.0,0.0,0.0,0.0,0.0,0.0,0.0,0.0,0.0,0.0,0.0,0.0,0.0,0.0,0.0,0.0,0.0,0.0,0.0,0.0,0.0,0.0,0.0,0.0,0.0,0.0,0.0,0.0,0.0,0.0,0.0,0.0,0.0,0.0,0.0,0.0,0.0,0.0,0.0,0.0,0.0,0.0,0.0,0.0,0.0,0.0,0.0,0.0,0.0,0.0,0.0,0.0,0.0,0.0,0.0,0.0,0.0,0.0,0.0,0.0,0.0,0.0,0.0,0.0,0.0,0.0,0.0,0.0,0.0,0.0,0.0,0.0,0.0,0.0,0.0,0.0,0.0,0.0,0.0,0.0,0.0,0.0,0.0,0.0,0.0,0.0,0.0,0.0,0.0,0.0,0.0,0.0,0.0,0.0,0.0,0.0,0.0,0.0,0.0,0.0,0.0,0.0,0.0,0.0,0.0,0.0,0.0,0.0,0.0,0.0,0.0,0.0,0.0,0.0,0.0,0.0,0.0,0.0,0.0,0.0,0.0,0.0,0.0,0.0,0.0,0.0,0.0,0.0,0.0,0.0,0.0,0.0,0.0,0.0,0.0,0.0,0.0,0.0,0.0,0.0,0.0,0.0,0.0,0.0,0.0,0.0,0.0,0.0,0.0,0.0,0.0,0.0,0.0,0.0,0.0,0.0,0.0,0.0,0.0,0.0,0.0,0.0,0.0,0.0,0.0,0.0,0.0,0.0,0.0,0.0,0.0,0.0,0.0,0.0,0.0,0.0,0.0,0.0,0.0,0.0,0.0,0.0,0.0,0.0,0.0,0.0,0.0,0.0,0.0,0.0,0.0,0.0,0.0,0.0,0.0,0.0,0.0,0.0,0.0,0.0,0.0,0.0,0.0,0.0,0.0,0.0,0.0,0.0,0.0,0.0,0.0,0.0,0.0,0.0,0.0,0.0,0.0,0.0,0.0,0.0,0.0,0.0,0.0,0.0,0.0,0.0,0.0,0.0,0.0,0.0,0.0,0.0,0.0,0.0,0.0,0.0,0.0,0.0,0.0,0.0,0.0,0.0,0.0,0.0,0.0,0.0,0.0,0.0,0.0,0.0,0.0,0.0,0.0,0.0,0.0,0.0,0.0,0.0,0.0,0.0,0.0,0.0,0.0,0.0,0.0,0.0,0.0,0.0,0.0,0.0,0.0,0.0,0.0,0.0,0.0,0.0,0.0,0.0,0.0,0.0,0.0,0.0,0.0,0.0,0.0,0.0,0.0,0.0,0.0,0.0,0.0,0.0,0.0,0.0,0.0,0.0,0.0,0.0,0.0,0.0,0.0,0.0,0.0,0.0,0.0,0.0,0.0,0.0,0.0,0.0,0.0,0.0,0.0,0.0,0.0,0.0,0.0,0.0,0.0,0.0,0.0,0.0,0.0,0.0,0.0,0.0,0.0,0.0,0.0,0.0,0.0,0.0,0.0,0.0,0.0,0.0,0.0,0.0,0.0,0.0,0.0,0.0,0.0,0.0,0.0,0.0,0.0,0.0,0.0,0.0,0.0,0.0,0.0,0.0,0.0,0.0,0.0,0.0,0.0,0.0,0.0,0.0,0.0,0.0,0.0,0.0,0.0,0.0,0.0,0.0,0.0,0.0,0.0,0.0,0.0,0.0,0.0,0.0,0.0,0.0,0.0,0.0,0.0,0.0,0.0,0.0,0.0,0.0,0.0,0.0,0.0,0.0,0.0,0.0,0.0,0.0,0.0,0.0,0.0,0.0,0.0,0.0,0.0,0.0,0.0,0.0,0.0,0.0,0.0,0.0,0.0,0.0,0.0,0.0,0.0,0.0,0.0,0.0,0.0,0.0,0.0,0.0,0.0,0.0,0.0,0.0,0.0,0.0,0.0,0.0,0.0,0.0,0.0,0.0,0.0,0.0,0.0,0.0,0.0,0.0,0.0,0.0,0.0,0.0,0.0,0.0,0.0,0.0,0.0,0.0,0.0,0.0,0.0,0.0,0.0,0.0,0.0,0.0,0.0,0.0,0.0,0.0,0.0,0.0,0.0,0.0,0.0,0.0,0.0,0.0,0.0,0.0,0.0,0.0,0.0,0.0,0.0,0.0,0.0,0.0,0.0,0.0,0.0,0.0,0.0,0.0,0.0,0.0,0.0,0.0,0.0,0.0,0.0,0.0,0.0,0.0,0.0,0.0,0.0,0.0,0.0,0.0,0.0,0.0,0.0,0.0,0.0,0.0,0.0,0.0,0.0,0.0,0.0,0.0,0.0,0.0,0.0,0.0,0.0,0.0,0.0,0.0,0.0,0.0,0.0,0.0,0.0,0.0,0.0,0.0,0.0,0.0,0.0,0.0,0.0,0.0,0.0,0.0,0.0,0.0,0.0,0.0,0.0,0.0,0.0,0.0,0.0,0.0,0.0,0.0,0.0,0.0,0.0,0.0,0.0,0.0,0.0,0.0,0.0,0.0,0.0,0.0,0.0,0.0,0.0,0.0,0.0,0.0,0.0,0.0,0.0,0.0,0.0,0.0,0.0,0.0,0.0,0.0,0.0,0.0,0.0,0.0,0.0,0.0,0.0,0.0,0.0,0.0,0.0,0.0,0.0,0.0,0.0,0.0,0.0,0.0,0.0,0.0,0.0,0.0,0.0,0.0,0.0,0.0,0.0,0.0,0.0,0.0,0.0,0.0,0.0,0.0,0.0,0.0,0.0,0.0,0.0,0.0,0.0,0.0,0.0,0.0,0.0,0.0,0.0,0.0,0.0,0.0,0.0,0.0,0.0,0.0,0.0,0.0,0.0,0.0,0.0,0.0,0.0,0.0,0.0,0.0,0.0,0.0,0.0,0.0,0.0,0.0,0.0,0.0,0.0,0.0,0.0,0.0,0.0,0.0,0.0,0.0,0.0,0.0,0.0,0.0,0.0,0.0,0.0,0.0,0.0,0.0,0.0,0.0,0.0,0.0,0.0,0.0,0.0,0.0,0.0,0.0,0.0,0.0,0.0,0.0,0.0,0.0,0.0,0.0,0.0,0.0,0.0,0.0,0.0,0.0,0.0,0.0,0.0,0.0,0.0,0.0,0.0,0.0,0.0,0.0,0.0,0.0,0.0,0.0,0.0,0.0,0.0,0.0,0.0,0.0,0.0,0.0,0.0,0.0,0.0,0.0,0.0,0.0,0.0,0.0,0.0,0.0,0.0,0.0,0.0,0.0,0.0,0.0,0.0,0.0,0.0,0.0,0.0,0.0,0.0,0.0,0.0,0.0,0.0,0.0,0.0,0.0,0.0,0.0,0.0,0.0,0.0,0.0,0.0,0.0,0.0,0.0,0.0,0.0,0.0,0.0,0.0,0.0,0.0,0.0,0.0,0.0,0.0,0.0,0.0,0.0,0.0,0.0,0.0,0.0,0.0,0.0,0.0,0.0,0.0,0.0,0.0,0.0,0.0,0.0,0.0,0.0,0.0,0.0,0.0,0.0,0.0,0.0,0.0,0.0,0.0,0.0,0.0,0.0,0.0,0.0,0.0,0.0,0.0,0.0,0.0,0.0,0.0,0.0,0.0,0.0,0.0,0.0,0.0,0.0,0.0,0.0,0.0,0.0,0.0,0.0,0.0,0.0,0.0,0.0,0.0,0.0,0.0,0.0,0.0,0.0,0.0,0.0,0.0,0.0,0.0,0.0,0.0,0.0,0.0,0.0,0.0,0.0,0.0,0.0,0.0,0.0,0.0,0.0,0.0,0.0,0.0,0.0,0.0,0.0,0.0,0.0,0.0,0.0,0.0,0.0,0.0,0.0,0.0,0.0,0.0,0.0,0.0,0.0,0.0,0.0,0.0,0.0,0.0,0.0,0.0,0.0,0.0,0.0,0.0,0.0,0.0,0.0,0.0,0.0,0.0,0.0,0.0,0.0,0.0,0.0,0.0,0.0,0.0,0.0,0.0,0.0,0.0,0.0,0.0,0.0,0.0,0.0,0.0,0.0,0.0,0.0,0.0,0.0,0.0,0.0,0.0,0.0,0.0,0.0,0.0,0.0,0.0,0.0,0.0,0.0,0.0,0.0,0.0,0.0,0.0,0.0,0.0,0.0,0.0,0.0,0.0,0.0,0.0,0.0,0.0,0.0,0.0,0.0,0.0,0.0,0.0,0.0,0.0,0.0,0.0,0.0,0.0,0.0,0.0,0.0,0.0,0.0,0.0,0.0,0.0,0.0,0.0,0.0,0.0,0.0,0.0,0.0,0.0,0.0,0.0,0.0,0.0,0.0,0.0,0.0,0.0,0.0,0.0,0.0,0.0,0.0,0.0,0.0,0.0,0.0,0.0,0.0,0.0,0.0,0.0,0.0,0.0,0.0,0.0,0.0,0.0,0.0,0.0,0.0,0.0,0.0,0.0,0.0,0.0,0.0,0.0,0.0,0.0,0.0,0.0,0.0,0.0,0.0,0.0,0.0,0.0,0.0,0.0,0.0,0.0,0.0,0.0,0.0,0.0,0.0,0.0,0.0,0.0,0.0,0.0,0.0,0.0,0.0,0.0,0.0,0.0,0.0,0.0,0.0,0.0,0.0,0.0,0.0,0.0,0.0,0.0,0.0,0.0,0.0,0.0,0.0,0.0,0.0,0.0,0.0,0.0,0.0,0.0,0.0,0.0,0.0,0.0,0.0,0.0,0.0,0.0,0.0,0.0,0.0,0.0,0.0,0.0,0.0,0.0,0.0,0.0,0.0,0.0,0.0,0.0,0.0,0.0,0.0,0.0,0.0,0.0,0.0,0.0,0.0,0.0,0.0,0.0,-3.686,0.0,0.0,0.0,0.0,0.0,0.0,0.0,0.0,0.0,0.0,0.0,0.0,0.0,0.0,0.0,0.0,0.0,0.0,0.0,0.0,0.0,0.0,0.0,0.0,0.0,0.0,0.0,0.0,0.0,0.0,0.0,0.0,0.0,0.0,0.0,0.0,0.0,0.0,0.0,-3.4649,-3.4303,-3.355,-3.2475,-3.1879,-3.1687,0.0,0.0,0.0,0.0,0.0,0.0,0.0,0.0,0.0,0.0,0.0,0.0,0.0,0.0,0.0,0.0,0.0,0.0,0.0,0.0,0.0,0.0,0.0,0.0,0.0,0.0,0.0,0.0,0.0,0.0,0.0,0.0,0.0,0.0,0.0,0.0,0.0,0.0,0.0,0.0,0.0,0.0,0.0,0.0,0.0,0.0,0.0,0.0,0.0,0.0,0.0,0.0,0.0,0.0,0.0,0.0,0.0,0.0,0.0,0.0,0.0,0.0,0.0,0.0,0.0,0.0,0.0,0.0,0.0,0.0,0.0,-3.706,0.0,0.0,0.0,0.0,0.0,0.0,0.0,0.0,0.0,0.0,0.0,0.0,0.0,0.0,0.0,0.0,0.0,0.0,0.0,0.0,0.0,0.0,0.0,-3.6632,-3.6568,-3.6426,-3.6426,-3.6406,0.0,0.0,0.0,0.0,0.0,0.0,0.0,-3.5927,-3.5861,-3.5717,-3.5717,-3.5411,-3.4805,-3.4177,-3.3609,-3.3139,-3.3818,0.0,0.0,0.0,0.0,0.0,0.0,0.0,0.0,0.0,0.0,0.0,0.0,0.0,0.0,0.0,0.0,0.0,0.0,0.0,0.0,0.0,0.0,0.0,0.0,0.0,0.0,0.0,0.0,0.0,0.0,0.0,0.0,0.0,0.0,0.0,0.0,0.0,0.0,0.0,0.0,0.0,0.0,0.0,0.0,0.0,0.0,0.0,0.0,0.0,0.0,0.0,0.0,0.0,0.0,0.0,0.0,0.0,0.0,0.0,0.0,0.0,0.0,0.0,-4.0726,-4.0673,-4.0622,-4.0554,-4.0449,-4.0238,-3.8633,-3.781,-3.7623,0.0,0.0,0.0,0.0,0.0,0.0,0.0,0.0,0.0,0.0,0.0,0.0,0.0,0.0,0.0,0.0,0.0,0.0,0.0,0.0,0.0,0.0,-3.7106,-3.6992,-3.6911,-3.6911,-3.6851,-3.6731,0.0,0.0,0.0,0.0,0.0,-3.6419,-3.6419,-3.6339,-3.6216,-3.6216,-3.6165,-3.6061,-3.5891,-3.5429,-3.4698,-3.4627,-3.4614,-3.4686,0.0,0.0,0.0,0.0,0.0,0.0,0.0,0.0,0.0,0.0,0.0,0.0,0.0,0.0,0.0,0.0,0.0,0.0,0.0,0.0,0.0,0.0,0.0,0.0,0.0,0.0,0.0,0.0,0.0,0.0,0.0,0.0,0.0,0.0,0.0,0.0,0.0,0.0,0.0,0.0,0.0,-4.1091,-4.1093,0.0,0.0,0.0,0.0,0.0,0.0,0.0,0.0,0.0,0.0,0.0,0.0,0.0,-4.079,-4.0794,-4.0809,-4.079,-4.079,-4.079,-4.0746,-4.068,-4.0614,-4.0549,-4.0465,-4.0136,0.0,-3.8527,-3.8456,0.0,0.0,0.0,0.0,0.0,0.0,0.0,0.0,0.0,0.0,0.0,0.0,0.0,0.0,0.0,0.0,0.0,0.0,0.0,0.0,0.0,-3.7594,-3.7485,-3.7354,-3.7336,-3.7317,-3.726,-3.7184,0.0,0.0,0.0,-3.6871,-3.6771,-3.6788,-3.6751,-3.6673,-3.6629,-3.6588,-3.6588,-3.644,-3.6167,-3.5839,-3.5654,-3.5326,-3.4941,-3.5864,0.0,0.0,0.0,0.0,0.0,0.0,0.0,0.0,0.0,0.0,0.0,0.0,0.0,0.0,0.0,0.0,0.0,0.0,0.0,0.0,0.0,0.0,0.0,0.0,0.0,0.0,0.0,0.0,0.0,0.0,0.0,0.0,0.0,0.0,0.0,0.0,0.0,0.0,0.0,-4.1094,-4.1092,-4.1106,-4.1098,-4.1093,0.0,0.0,0.0,0.0,0.0,0.0,0.0,0.0,0.0,-4.0888,-4.0863,-4.0837,-4.0804,-4.0794,-4.079,-4.0797,-4.0797,-4.0784,-4.0752,-4.0694,-4.0614,-4.0557,-4.05,-4.014,-3.9585,-3.9495,-3.9204,-3.8809,0.0,0.0,0.0,0.0,-3.7268,-3.6573,0.0,0.0,0.0,0.0,0.0,0.0,0.0,0.0,0.0,0.0,0.0,0.0,-3.7783,-3.7893,-3.7861,-3.7452,-3.7596,-3.7721,-3.7703,-3.7595,-3.7485,0.0,-3.7298,-3.7204,-3.7145,-3.7164,-3.7184,-3.7184,-3.7068,-3.697,-3.6911,-3.6728,-3.6606,-3.6585,-3.6444,-3.599,-3.5366,-3.6017,-3.6301,-3.6322,0.0,0.0,0.0,0.0,0.0,0.0,0.0,0.0,0.0,0.0,0.0,0.0,0.0,0.0,0.0,0.0,0.0,0.0,0.0,0.0,0.0,0.0,0.0,0.0,0.0,0.0,0.0,0.0,0.0,0.0,0.0,0.0,0.0,0.0,0.0,0.0,0.0,-4.1104,-4.1098,-4.1103,-4.109,-4.1061,0.0,0.0,0.0,0.0,0.0,0.0,-4.1007,-4.1209,-4.1285,-4.1238,-4.1228,-4.1202,-4.1142,-4.0909,-4.0802,-4.0797,-4.0797,-4.0797,-4.0797,-4.0746,-4.0694,-4.0621,-4.0557,-4.0449,-4.0314,-4.0186,-4.0077,-3.9975,-3.9781,-3.9335,-3.8795,-3.8686,-3.8112,-3.7411,0.0,0.0,0.0,0.0,0.0,0.0,0.0,0.0,0.0,0.0,0.0,-3.8374,-3.7361,-3.7929,-3.7994,-3.7018,-3.7633,-3.8052,-3.7984,-3.7916,-3.781,-3.7685,-3.7613,-3.7558,-3.7576,-3.7631,-3.7667,-3.7667,-3.7595,-3.7448,-3.7259,-3.7066,-3.6908,-3.6788,-3.6705,-3.6506,-3.6249,-3.6284,-3.6301,-3.6322,-3.6602,0.0,0.0,0.0,0.0,0.0,0.0,0.0,0.0,0.0,0.0,0.0,0.0,0.0,0.0,0.0,0.0,0.0,0.0,0.0,0.0,0.0,0.0,0.0,0.0,0.0,0.0,0.0,0.0,0.0,0.0,0.0,0.0,0.0,0.0,0.0,0.0,0.0,0.0,-4.1098,-4.1034,0.0,0.0,0.0,0.0,-4.1019,-4.1,-4.1007,-4.101,-4.1721,-4.2135,-4.2136,-4.2126,-4.21,-4.2034,-4.1205,-4.0802,-4.0797,-4.0797,-4.0797,-4.0797,-4.079,-4.0752,-4.0694,-4.0621,-4.0515,-4.0381,-4.0253,-4.0118,-3.9975,-3.977,-3.9682,-3.9632,-3.9551,-3.8976,-3.8244,0.0,0.0,0.0,0.0,0.0,0.0,0.0,0.0,-3.9439,-3.9272,-3.8737,-3.8146,-3.7584,-3.7279,-3.7151,-3.7223,-3.7481,-3.7865,-3.8344,-3.8318,-3.8236,-3.8153,-3.8136,-3.8119,-3.8119,-3.8136,-3.8119,-3.8088,-3.7933,-3.7739,-3.7558,-3.7316,-3.7126,-3.6992,-3.6928,-3.6849,-3.6751,-3.6606,-3.6544,-3.6564,-3.6725,-3.6748,0.0,0.0,0.0,0.0,0.0,0.0,0.0,0.0,0.0,0.0,0.0,0.0,0.0,0.0,0.0,0.0,0.0,0.0,0.0,0.0,0.0,0.0,0.0,0.0,0.0,0.0,0.0,0.0,0.0,0.0,0.0,0.0,0.0,0.0,0.0,0.0,0.0,-4.1039,-4.1003,0.0,0.0,-4.1003,-4.1229,-4.1793,-4.1796,-4.2021,-4.2576,-4.2869,-4.303,-4.3044,-4.3034,-4.2999,-4.2934,-4.2629,-4.2464,-4.2473,-4.2428,-4.2415,-4.2396,-4.1835,-4.1558,-4.1506,-4.0866,-4.0537,-4.0457,-4.027,-4.0157,-4.0046,-3.9811,-3.9701,-3.9689,-3.9619,-3.9401,-3.9138,0.0,0.0,0.0,0.0,0.0,0.0,0.0,0.0,-3.9751,-3.9563,-3.8783,-3.8035,-3.7482,-3.6904,-3.6693,-3.7127,-3.7407,-3.7904,-3.8711,-3.8707,-3.8664,-3.86,-3.8572,-3.8572,-3.8603,-3.8572,-3.8544,-3.8499,-3.8269,-3.8051,-3.7845,-3.7613,-3.7411,-3.7261,-3.7222,-3.7203,-3.7184,-3.7066,-3.6926,-3.6806,-3.6871,-3.6911,-3.695,0.0,0.0,0.0,0.0,0.0,0.0,0.0,0.0,0.0,0.0,0.0,0.0,0.0,0.0,0.0,0.0,0.0,0.0,0.0,0.0,0.0,0.0,0.0,0.0,0.0,0.0,0.0,0.0,0.0,0.0,0.0,0.0,0.0,0.0,0.0,-4.1078,-4.1013,-4.1002,-4.1007,-4.1007,-4.1252,-4.1637,-4.222,-4.2494,-4.2893,-4.3476,-4.3773,-4.3938,-4.3938,-4.3938,-4.3903,-4.3843,-4.3557,-4.3393,-4.3395,-4.3318,-4.3305,-4.3285,-4.2705,-4.2434,-4.2389,-4.1452,-4.0995,-4.0904,-4.0403,-4.0167,-4.0086,-3.9826,-3.9712,-3.9689,-3.965,-3.9633,-3.9589,0.0,0.0,0.0,0.0,0.0,0.0,0.0,-4.0148,-4.0046,-3.9837,-3.9033,-3.8079,-3.7024,-3.6814,-3.6721,-3.6712,-3.7429,-3.8228,-3.9059,-3.9059,-3.9017,-3.9017,-3.8946,-3.895,-3.9017,-3.895,-3.8925,-3.8925,-3.8649,-3.838,-3.8101,-3.7985,-3.7793,-3.7631,-3.7631,-3.7631,-3.7631,-3.7631,-3.7392,-3.7029,-3.7089,-3.7127,-3.7147,0.0,0.0,0.0,0.0,0.0,0.0,0.0,0.0,0.0,0.0,0.0,0.0,0.0,0.0,0.0,0.0,0.0,0.0,0.0,0.0,0.0,0.0,0.0,0.0,0.0,0.0,0.0,0.0,0.0,0.0,0.0,0.0,0.0,-4.11,-4.11,-4.1085,-4.1048,-4.1046,-4.1046,-4.1084,-4.1781,-4.2252,-4.2272,-4.3063,-4.3544,-4.3583,-4.4384,-4.4831,-4.4831,-4.4831,-4.4821,-4.473,-4.3906,-4.347,-4.3479,-4.3421,-4.3382,-4.3382,-4.3343,-4.3343,-4.3298,-4.2341,-4.1901,-4.1758,-4.068,-4.0206,-4.0115,-3.9889,-3.9758,-3.9689,-3.9698,-3.9657,-3.9589,0.0,0.0,0.0,0.0,0.0,0.0,0.0,-4.0368,-4.0252,-4.0118,-3.8773,-3.7685,-3.7254,-3.6087,-3.5788,-3.6885,-3.718,-3.791,-3.9308,-3.9357,-3.937,-3.9439,-3.9376,-3.9376,-3.9439,-3.9376,-3.9259,-3.9115,-3.896,-3.8691,-3.838,-3.8302,-3.8171,-3.7948,-3.7948,-3.7948,-3.7948,-3.7948,-3.7897,-3.7774,-3.7559,-3.7466,-3.7485,0.0,0.0,0.0,0.0,0.0,0.0,0.0,0.0,0.0,0.0,0.0,0.0,0.0,0.0,0.0,0.0,0.0,0.0,0.0,0.0,0.0,0.0,0.0,0.0,0.0,0.0,0.0,0.0,0.0,0.0,0.0,0.0,-4.1105,-4.11,-4.11,-4.1312,-4.1883,-4.1934,-4.2166,-4.2767,-4.301,-4.3394,-4.4035,-4.4307,-4.4695,-4.5278,-4.553,-4.5672,-4.5672,-4.5672,-4.5666,-4.5636,-4.5395,-4.527,-4.5214,-4.5183,-4.515,-4.5084,-4.4504,-4.4246,-4.4188,-4.3248,-4.2788,-4.2596,-4.1625,-4.1151,-4.0963,-4.0116,-3.9758,-3.9689,-3.9698,-3.9657,-3.9589,0.0,0.0,0.0,0.0,0.0,0.0,0.0,-4.0508,-4.0438,-4.0299,-3.8736,-3.7585,-3.7438,-3.6224,-3.5917,-3.7117,-3.7569,-3.8313,-3.9583,-3.9658,-3.9682,-3.9724,-3.9701,-3.9701,-3.9724,-3.9635,-3.9526,-3.9414,-3.9219,-3.8998,-3.8752,-3.8649,-3.8494,-3.8267,-3.8267,-3.8251,-3.8236,-3.8236,-3.8236,-3.8219,-3.8018,-3.788,-3.7827,-3.8019,-3.8711,-3.9619,-3.9879,-4.0407,-4.1013,-4.1082,0.0,0.0,0.0,0.0,0.0,0.0,0.0,0.0,0.0,0.0,0.0,0.0,0.0,0.0,0.0,0.0,0.0,0.0,0.0,0.0,0.0,0.0,0.0,0.0,-4.1415,-4.1625,-4.1616,-4.1601,-4.1776,-4.2245,-4.2611,-4.3022,-4.3452,-4.384,-4.4248,-4.4753,-4.5103,-4.5511,-4.5982,-4.6002,-4.6002,-4.6002,-4.6002,-4.6002,-4.6002,-4.5989,-4.5986,-4.5949,-4.5899,-4.5886,-4.5827,-4.5323,-4.5104,0.0,-4.4139,-4.3678,-4.3506,-4.2532,-4.2078,0.0,0.0,0.0,0.0,0.0,-3.9657,-3.9589,0.0,0.0,0.0,0.0,0.0,0.0,0.0,-4.0626,-4.0542,-4.0312,-3.8791,-3.7663,-3.7508,-3.6796,-3.6625,-3.7374,-3.8217,-3.906,-3.9865,-3.9922,-3.9933,-3.9933,-3.9933,-3.9933,-3.9933,-3.9815,-3.9728,-3.9717,-3.9477,-3.9272,-3.9129,-3.9007,-3.8818,-3.8556,-3.8556,-3.851,-3.8465,-3.8465,-3.843,-3.843,-3.843,-3.8318,-3.8152,-3.835,-3.9026,-3.9907,-4.0161,-4.0937,-4.1847,-4.1936,0.0,0.0,0.0,0.0,0.0,0.0,0.0,0.0,0.0,0.0,0.0,0.0,0.0,0.0,0.0,0.0,0.0,0.0,0.0,0.0,0.0,0.0,0.0,0.0,-4.2034,-4.2512,-4.2461,-4.2533,-4.2597,-4.258,-4.3276,-4.3765,-4.3792,-4.4487,-4.4933,-4.4948,-4.5594,-4.6002,-4.6002,0.0,0.0,0.0,0.0,-4.6002,-4.6002,-4.5994,-4.5997,-4.5997,-4.5938,-4.5906,-4.5906,-4.5834,-4.5821,-4.5775,-4.4979,-4.4611,-4.446,-4.3459,-4.291,-4.2512,-4.0807,-4.0044,-3.9932,-3.976,-3.9657,-3.9589,0.0,0.0,0.0,0.0,0.0,0.0,0.0,-4.0767,-4.0468,-3.9627,-3.8594,-3.7651,-3.6875,-3.6593,-3.6764,-3.7499,-3.8309,-3.9145,-4.0019,-4.0108,-4.0147,-4.0139,-4.0148,-4.0148,-4.0148,-4.0058,-3.9943,-3.9781,-3.967,-3.9514,-3.9259,-3.9232,-3.9115,-3.8906,-3.8906,-3.8833,-3.8713,-3.8713,-3.8686,-3.8643,-3.8643,-3.853,-3.8366,-3.8562,-3.9585,-4.0962,-4.1211,-4.1928,-4.2777,-4.2885,-4.2607,-4.2203,-4.2203,0.0,0.0,0.0,0.0,0.0,0.0,0.0,0.0,0.0,0.0,0.0,0.0,0.0,0.0,0.0,0.0,0.0,0.0,0.0,0.0,-4.3075,-4.3343,-4.3431,-4.3356,-4.3945,-4.4396,-4.4394,-4.4546,-4.49,-4.5531,-4.5741,-4.5828,-4.5769,-4.5905,-4.6002,-4.6002,-4.6002,0.0,-4.6002,-4.6002,-4.6002,-4.6002,-4.5997,-4.6,-4.5997,0.0,0.0,-4.5899,-4.5893,-4.5873,-4.5867,-4.5646,-4.5517,-4.5375,-4.4348,-4.3407,-4.2506,-4.1336,-4.0832,-4.0674,-3.9962,-3.9657,-3.9589,0.0,0.0,0.0,0.0,0.0,0.0,0.0,-4.0873,-4.051,-3.9533,-3.8614,-3.7705,-3.6793,-3.6999,-3.734,-3.7674,-3.8832,-3.9729,-4.0168,-4.0234,-4.0272,-4.0298,-4.0298,-4.0289,-4.0243,-4.0187,-4.0099,-3.9996,-3.9859,-3.9705,-3.9551,-3.9489,-3.9337,-3.9156,-3.9156,-3.9064,-3.891,-3.891,-3.8866,-3.881,-3.881,-3.8747,-3.8667,-3.8762,-3.9574,-4.0787,-4.1379,-4.2195,-4.3071,-4.3581,-4.3627,-4.3448,-4.3448,-4.3535,-4.3592,0.0,0.0,0.0,0.0,0.0,0.0,0.0,0.0,0.0,0.0,0.0,0.0,0.0,0.0,-4.2535,0.0,0.0,-4.3181,-4.3636,-4.4066,-4.4336,-4.4259,-4.501,-4.5384,-4.4947,-4.5293,-4.5702,-4.6066,-4.61,-4.6071,-4.6002,-4.6002,-4.6002,-4.6002,-4.6002,-4.6002,-4.6002,-4.6002,-4.6002,-4.6002,-4.6002,-4.5991,-4.6,-4.6003,-4.5986,-4.5955,-4.5917,-4.5911,-4.5905,-4.5854,-4.5812,-4.5704,-4.5025,-4.439,-4.374,-4.2777,-4.1834,-4.0945,-4.0507,-4.002,-3.9589,0.0,0.0,0.0,0.0,0.0,0.0,0.0,-4.0939,-4.0539,-3.9427,-3.8628,-3.7745,-3.6691,-3.7245,-3.7778,-3.8044,-3.9447,-4.0309,-4.0316,-4.0325,-4.037,-4.0424,-4.0424,-4.0388,-4.0334,-4.0261,-4.0225,-4.0196,-4.0038,-3.9933,-3.9837,-3.9705,-3.9551,-3.9389,-3.9363,-3.9264,-3.9064,-3.9064,-3.9007,-3.8935,-3.8935,-3.895,-3.895,-3.895,-3.9478,-4.037,-4.1289,-4.2238,-4.3156,-4.4059,-4.451,-4.4712,-4.4725,-4.4808,-4.4811,-4.4243,-4.3664,0.0,0.0,0.0,0.0,0.0,0.0,0.0,0.0,0.0,-4.2549,-4.2549,-4.3156,-4.3755,-4.3929,-4.3944,-4.4019,-4.4179,-4.479,-4.5221,-4.5162,-4.5757,-4.594,-4.5243,-4.5765,-4.6177,-4.611,-4.6105,-4.6076,-4.6002,-4.6002,-4.6002,-4.6002,-4.6002,-4.6002,-4.6002,-4.6002,-4.6002,-4.6002,-4.6002,-4.6002,-4.6002,-4.5994,-4.6003,-4.6003,-4.5941,-4.5929,-4.5923,-4.5893,-4.5838,-4.5735,-4.5429,-4.5213,-4.5015,-4.4241,-4.2929,-4.1491,-4.1297,-4.0741,-4.0078,0.0,0.0,0.0,0.0,0.0,0.0,0.0,0.0,-4.0408,-3.8736,-3.8389,-3.7622,-3.5911,-3.6453,-3.7504,-3.8919,-3.9859,-4.0389,-4.0398,-4.0441,-4.0474,-4.0493,-4.0493,-4.0493,-4.0485,-4.0415,-4.0326,-4.0196,-4.0177,-4.0099,-3.9975,-3.99,-3.9792,-3.9658,-3.9587,-3.9452,-3.9272,-3.9272,-3.9192,-3.9073,-3.9073,-3.9115,-3.917,-3.917,-3.9668,-4.0508,-4.1446,-4.2385,-4.3329,-4.4261,-4.4632,-4.4712,-4.4757,-4.487,-4.5003,-4.5033,0.0,-4.4863,-4.4196,-4.3516,0.0,-4.2203,-4.2693,-4.3319,0.0,0.0,-4.3445,-4.3445,-4.3582,-4.3931,-4.471,-4.4843,-4.5113,-4.5884,-4.6083,-4.6123,-4.605,-4.6137,-4.6157,-4.6059,-4.6137,-4.6181,-4.6117,-4.6093,-4.6075,-4.6002,-4.6002,-4.6002,-4.6002,-4.6002,-4.6002,-4.6002,-4.6002,-4.6002,-4.6002,-4.6002,-4.6002,-4.6002,-4.5997,-4.5997,-4.5997,-4.5991,-4.5991,-4.5986,-4.5867,-4.5746,-4.5603,-4.538,-4.5213,-4.5072,-4.4849,-4.4176,-4.3207,-4.2359,-4.1927,-4.1723,0.0,0.0,0.0,0.0,0.0,0.0,0.0,0.0,0.0,-3.868,-3.8404,-3.7676,-3.5917,-3.6372,-3.7456,-3.9102,-3.9542,-3.9933,-4.0484,-4.0546,-4.0569,-4.0554,-4.0554,-4.0565,-4.0554,-4.0538,-4.0444,-4.0313,-4.0314,-4.0262,-4.0109,-4.0098,-3.9996,-3.987,-3.9848,-3.9717,-3.952,-3.952,-3.9464,-3.9337,-3.9337,-3.935,-3.9376,-3.9414,-3.9664,-4.0108,-4.0886,-4.1742,0.0,-4.3549,-4.4284,-4.4821,-4.4846,-4.4986,-4.5148,-4.5218,-4.4968,0.0,-4.3886,0.0,0.0,0.0,-4.3279,-4.3607,-4.3596,-4.3984,-4.4364,-4.4364,-4.4782,-4.5265,-4.5632,-4.5723,-4.5872,0.0,-4.63,-4.6288,-4.6211,-4.6203,-4.6209,-4.6203,-4.6199,-4.6162,-4.6102,-4.6098,-4.6075,-4.6002,-4.6002,-4.6002,-4.6002,-4.6002,-4.6002,-4.6002,-4.6002,-4.6002,-4.6002,-4.6002,-4.6002,-4.6002,-4.6002,-4.6002,-4.6002,-4.6002,-4.598,-4.5947,-4.5828,-4.5719,-4.5577,-4.537,-4.5213,-4.5091,-4.4943,-4.465,-4.4191,-4.3297,-4.2574,-4.2038,0.0,0.0,0.0,0.0,0.0,0.0,0.0,0.0,0.0,0.0,-3.8463,-3.7758,-3.5991,-3.6436,-3.734,-3.8556,-3.8824,-3.9201,-3.9892,-4.0169,-4.0298,-4.0307,-4.0506,-4.0628,-4.0639,-4.0639,-4.0576,-4.0462,-4.0449,-4.0383,-4.027,-4.0262,-4.0186,-4.0058,-4.0067,-3.9946,-3.9773,-3.9773,-3.9717,-3.9611,-3.9611,-3.9611,-3.9611,-3.9682,-3.9728,-3.9864,-4.0553,-4.1205,-4.1902,-4.2794,-4.3629,-4.4298,-4.4561,-4.4756,-4.4963,-4.5265,-4.5025,-4.4506,-4.386,0.0,0.0,-4.3903,-4.4098,-4.432,-4.4327,-4.4805,-4.5264,-4.5264,-4.576,-4.6204,-4.62,-4.625,-4.6301,-4.6306,-4.6302,-4.6275,-4.6211,-4.6206,-4.6195,-4.6203,-4.6199,-4.6162,-4.6102,-4.6098,-4.6075,-4.6002,-4.6002,-4.6002,-4.6002,-4.6002,-4.6002,-4.6002,-4.6002,-4.6002,-4.6002,-4.6002,-4.6002,-4.6002,-4.6002,-4.6002,-4.6002,-4.6002,-4.5969,-4.5905,-4.5834,-4.5719,-4.5577,-4.537,-4.5213,-4.5091,-4.4943,-4.4858,-4.4752,-4.409,-4.3391,-4.2786,0.0,0.0,0.0,0.0,0.0,0.0,0.0,0.0,0.0,0.0,0.0,0.0,0.0,-3.6503,-3.7019,-3.7077,-3.7773,-3.8233,-3.8272,-3.9051,-3.9521,-3.9521,-4.0281,-4.0694,-4.0694,-4.0694,-4.0662,-4.0588,-4.0588,-4.0523,-4.0397,-4.0394,-4.0325,-4.0196,-4.0196,-4.0118,-3.9986,-3.9986,-3.9954,-3.9889,-3.9889,-3.9889,-3.99,-3.9965,-3.9986,-4.0089,-4.0746,-4.1056,-4.1275,-4.2278,-4.2645,-4.2838,-4.3736,-4.4077,0.0,-4.5227,-4.5621,-4.5588,0.0,0.0,-4.574,-4.4956,-4.5453,-4.6115,-4.6114,-4.6141,-4.616,-4.616,-4.6178,-4.6195,-4.6192,-4.6249,-4.6305,-4.6295,-4.6306,-4.6275,-4.6211,-4.6206,-4.6195,-4.6203,-4.6199,-4.6162,0.0,-4.6098,-4.6075,-4.6002,-4.6002,-4.6002,-4.6002,-4.6002,-4.6002,-4.6002,-4.6002,-4.6002,-4.6002,-4.6002,-4.6002,-4.6002,-4.6002,-4.6002,-4.6002,-4.6002,-4.5969,-4.5905,-4.5834,-4.5719,-4.5577,-4.537,-4.5213,-4.5091,-4.4943,-4.4895,-4.487,-4.4713,-4.4602,-4.4517,0.0,0.0,0.0,0.0,0.0,0.0,0.0,0.0,0.0,0.0,0.0,0.0,0.0,0.0,0.0,0.0,-3.7258,-3.7649,-3.8236,-3.8542,-3.8708,-3.8708,-3.9524,-3.998,-3.998,-4.0541,-4.0804,-4.073,-4.0725,-4.0662,-4.053,-4.0523,-4.0454,-4.033,-4.0341,-4.0279,-4.0206,-4.0206,-4.0158,-4.0099,-4.0099,-4.0099,-4.0109,-4.0225,-4.0262,-4.0309,0.0,-4.0931,-4.1364,-4.1732,-4.2288,-4.2958,-4.3857,-4.4218,-4.4487,-4.5422,-4.5807,-4.5879,-4.5636,0.0,-4.5998,-4.5724,-4.5928,-4.6208,-4.6196,-4.6199,-4.6199,-4.6199,-4.6198,-4.6195,-4.6192,-4.6249,-4.6305,-4.6295,-4.6306,-4.6275,-4.6211,-4.6206,-4.6195,-4.6203,-4.6199,0.0,0.0,0.0,0.0,-4.6002,-4.6002,-4.6002,-4.6002,-4.6002,-4.6002,-4.6002,-4.6002,-4.6002,-4.6002,-4.6002,-4.6002,-4.6002,-4.6002,-4.6002,-4.6002,-4.6002,-4.5969,-4.5905,-4.5834,-4.5719,-4.5577,-4.5429,-4.5265,-4.5091,-4.4991,-4.4931,-4.4883,-4.4764,-4.4685,-4.4646,0.0,0.0,0.0,0.0,0.0,0.0,0.0,0.0,0.0,0.0,0.0,0.0,0.0,0.0,0.0,0.0,0.0,-3.6818,-3.7361,-3.7695,-3.7864,-3.7864,-3.8702,-3.9162,-3.9162,-4.0038,-4.0446,-4.0403,-4.0698,-4.0784,-4.0662,-4.0675,-4.0609,-4.0473,-4.0458,-4.0422,-4.0341,-4.0341,-4.0306,-4.028,-4.028,-4.027,-4.0278,-4.0383,-4.0444,0.0,-4.0512,-4.0776,-4.1109,-4.1153,-4.159,-4.2277,-4.3478,-4.4349,-4.5051,-4.5699,-4.5931,-4.5997,-4.6008,-4.6047,-4.6098,-4.6098,-4.615,-4.6199,-4.6199,-4.6199,-4.6199,-4.6199,-4.6195,-4.6208,-4.6207,-4.6248,-4.6306,-4.6299,-4.6308,-4.6275,-4.6238,-4.6211,-4.6198,-4.619,-4.6203,0.0,0.0,0.0,0.0,-4.6032,-4.6047,-4.6047,-4.6037,-4.6037,-4.6012,-4.6002,-4.6002,-4.6002,-4.6002,-4.6002,-4.6002,-4.6002,-4.6002,-4.6002,-4.6002,-4.6002,-4.5975,-4.5923,-4.5854,-4.5769,-4.5629,-4.5467,-4.5309,-4.5159,-4.5038,-4.4967,-4.4907,-4.4764,-4.4712,-4.4685,0.0,0.0,0.0,0.0,0.0,0.0,0.0,0.0,0.0,0.0,0.0,0.0,0.0,0.0,0.0,0.0,0.0,0.0,-3.5795,-3.6577,-3.7036,-3.7036,-3.7872,-3.835,-3.833,-3.9186,-3.9642,-3.9641,-4.0403,-4.0766,-4.0732,-4.0745,-4.0703,-4.0604,-4.0615,-4.0537,-4.0414,-4.0414,-4.0408,-4.0405,-4.0405,-4.0411,-4.0422,-4.0489,-4.0546,-4.0615,-4.06,-4.0621,-4.0614,-4.061,-4.068,-4.1022,-4.2683,-4.4459,-4.5919,-4.598,-4.5997,-4.6003,-4.5997,-4.6042,-4.6098,-4.6098,-4.615,-4.6199,-4.6199,-4.6199,-4.6199,-4.6199,-4.6206,-4.6197,0.0,0.0,-4.6308,-4.6302,-4.6291,-4.6296,-4.6306,-4.6236,-4.6201,0.0,0.0,0.0,0.0,0.0,0.0,-4.6102,0.0,-4.6104,-4.61,-4.61,-4.6066,-4.6002,-4.6002,-4.6002,-4.6002,-4.6002,-4.6002,-4.6002,-4.6002,-4.6002,-4.6002,-4.6002,-4.6005,-4.5991,-4.5932,-4.5838,-4.57,-4.5494,-4.537,-4.5267,-4.5091,-4.501,-4.4986,-4.477,-4.4712,-4.4667,0.0,0.0,0.0,0.0,0.0,0.0,0.0,0.0,0.0,0.0,0.0,0.0,0.0,0.0,0.0,0.0,0.0,0.0,-3.5799,-3.6047,-3.6203,-3.6203,-3.7037,-3.7517,-3.7509,-3.8354,-3.8799,-3.8805,-3.8955,-3.9357,-3.9975,-3.9989,-4.0267,-4.0754,-4.0757,-4.0701,-4.0619,-4.0579,-4.0537,-4.0549,-4.0549,-4.0557,-4.0552,-4.0626,-4.0666,-4.0673,-4.0733,-4.0745,-4.0739,0.0,0.0,0.0,0.0,-4.4562,-4.5974,-4.5991,-4.5994,-4.6016,-4.6061,-4.6095,-4.6102,-4.6158,-4.6201,-4.6199,-4.6199,-4.6199,-4.6203,-4.6196,-4.6203,-4.6212,0.0,0.0,0.0,-4.6297,-4.6308,0.0,-4.6306,-4.6236,0.0,0.0,0.0,-4.6196,-4.6192,-4.6192,0.0,0.0,-4.6134,-4.6093,-4.6108,-4.611,-4.6095,-4.609,-4.6032,-4.6002,-4.6002,-4.6002,-4.6002,-4.6002,-4.6002,-4.6002,-4.6002,-4.6002,-4.6005,-4.5991,-4.5937,-4.586,-4.5765,-4.5616,-4.5447,-4.5291,-4.5184,-4.5091,-4.4986,-4.477,-4.4712,-4.4591,0.0,0.0,0.0,0.0,0.0,0.0,0.0,0.0,0.0,0.0,0.0,0.0,0.0,0.0,0.0,0.0,0.0,0.0,0.0,-3.5872,-3.5911,-3.5897,-3.6379,-3.6645,-3.6677,-3.7508,-3.7937,-3.7922,-3.8277,-3.8692,-3.9169,-3.9172,-3.9583,-4.0325,-4.0325,-4.0486,-4.0745,-4.0681,-4.0642,0.0,0.0,-4.0648,-4.0681,-4.0739,-4.0732,-4.0751,-4.0788,0.0,0.0,0.0,0.0,-4.3408,-4.3408,-4.4594,-4.5994,-4.5994,0.0,-4.6042,-4.6095,-4.6123,-4.6154,-4.6185,-4.6204,-4.6199,-4.6209,-4.6209,-4.6196,-4.6201,-4.6225,0.0,0.0,0.0,0.0,0.0,0.0,0.0,-4.6292,-4.6262,-4.6231,0.0,-4.62,0.0,-4.6199,-4.6199,-4.6199,0.0,-4.6177,-4.6142,-4.613,-4.6128,-4.609,-4.61,-4.6037,-4.6002,-4.6002,-4.6002,-4.6002,-4.6002,-4.6002,-4.6002,-4.6002,-4.6002,-4.5991,-4.5994,0.0,-4.5912,-4.5833,-4.5719,-4.5582,-4.5419,-4.526,-4.514,-4.5014,-4.4827,-4.4492,-4.4095,0.0,0.0,0.0,0.0,0.0,0.0,0.0,0.0,0.0,0.0,0.0,0.0,0.0,0.0,0.0,0.0,0.0,0.0,0.0,0.0,-3.59,-3.5914,-3.5907,-3.5936,-3.6007,-3.6688,-3.7039,-3.7041,-3.78,-3.8229,-3.8346,-3.8334,-3.8762,-3.9549,-3.9525,-3.9956,-4.0643,-4.0587,-4.0615,-4.0706,-4.0713,-4.0752,-4.0806,0.0,-4.0804,-4.0807,0.0,0.0,0.0,0.0,-4.2819,-4.3596,-4.3596,-4.4699,-4.6002,-4.6007,-4.6042,-4.61,-4.611,-4.616,-4.6209,-4.6193,-4.6208,-4.6206,-4.6206,-4.6192,-4.6201,-4.6208,0.0,-4.63,-4.6307,0.0,-4.6299,-4.6293,0.0,-4.63,-4.63,-4.6292,-4.6282,-4.6211,-4.6215,-4.62,-4.6203,-4.6199,-4.6199,-4.6199,-4.6199,-4.6192,-4.6193,-4.6134,-4.6108,-4.6105,-4.6042,-4.6007,-4.6007,-4.6002,-4.6002,-4.6002,-4.6002,-4.6002,-4.6002,-4.6002,-4.6002,-4.5997,0.0,0.0,-4.5911,-4.5845,-4.5727,-4.5594,-4.5332,-4.5167,-4.5072,-4.4769,-4.4153,-4.3448,0.0,0.0,0.0,0.0,0.0,0.0,0.0,0.0,0.0,0.0,-3.7068,-3.5958,0.0,0.0,0.0,0.0,0.0,0.0,0.0,0.0,0.0,-3.5979,-3.5981,-3.5988,-3.5997,-3.6134,-3.6215,-3.6202,-3.6352,-3.6801,-3.7512,-3.7453,-3.7888,-3.8719,-3.8656,-3.9097,-3.9887,-3.9815,-4.0167,-4.0771,-4.0784,-4.079,-4.0801,-4.0801,0.0,0.0,0.0,0.0,0.0,0.0,-4.3253,-4.4554,-4.4554,-4.522,-4.6007,-4.6066,-4.6095,-4.611,-4.6169,-4.6181,-4.6197,-4.6209,-4.6196,-4.6209,-4.6194,-4.6201,0.0,0.0,0.0,-4.6307,-4.6306,-4.63,0.0,-4.6305,0.0,0.0,0.0,0.0,-4.6303,0.0,0.0,0.0,0.0,0.0,0.0,0.0,0.0,-4.6196,-4.6192,-4.6193,-4.6154,-4.6089,-4.6085,-4.6071,-4.6071,-4.6032,-4.6002,-4.6002,-4.6002,-4.6002,-4.6002,-4.6002,-4.6002,-4.6002,-4.5997,0.0,-4.598,-4.5912,-4.5798,-4.5668,-4.5457,-4.5281,-4.5082,-4.4215,-4.373,-4.3297,0.0,0.0,0.0,0.0,0.0,0.0,0.0,-4.0429,-3.9741,-3.9321,-3.7752,-3.649,-3.6018,-3.5953,-3.5946,0.0,0.0,0.0,0.0,0.0,0.0,0.0,0.0,0.0,-3.6006,-3.6006,0.0,0.0,0.0,-3.6212,-3.6628,0.0,0.0,0.0,-3.7812,-3.8269,-3.9091,-3.9492,-3.9864,-4.0262,-4.0683,-4.0858,0.0,0.0,0.0,0.0,0.0,0.0,0.0,0.0,-4.4414,-4.54,-4.4929,-4.5391,-4.6066,-4.6095,-4.6128,-4.616,-4.6181,-4.6204,-4.6203,-4.62,-4.6198,-4.6216,-4.6238,0.0,0.0,0.0,-4.6308,-4.6307,-4.63,0.0,0.0,0.0,0.0,0.0,0.0,0.0,0.0,0.0,0.0,0.0,0.0,0.0,0.0,0.0,0.0,-4.6209,-4.6199,-4.6201,-4.6177,-4.6098,-4.6104,-4.6095,-4.61,-4.6066,-4.6032,-4.6002,-4.6002,-4.6002,-4.6002,-4.6002,-4.6002,-4.6002,-4.6002,0.0,-4.5994,-4.5931,-4.5821,-4.5685,-4.5521,-4.5063,-4.4456,-4.3939,-4.3128,-4.2138,0.0,0.0,0.0,0.0,0.0,0.0,0.0,-4.0566,-4.0097,-3.9916,-3.8702,-3.7446,-3.6393,-3.6111,-3.6007,0.0,0.0,0.0,0.0,0.0,0.0,0.0,0.0,0.0,0.0,0.0,0.0,0.0,0.0,0.0,0.0,0.0,0.0,0.0,0.0,0.0,-3.8285,-3.9103,-3.9532,0.0,0.0,0.0,0.0,0.0,0.0,0.0,0.0,0.0,0.0,0.0,-4.5395,-4.5998,-4.5317,-4.5559,-4.6098,-4.6122,-4.6154,-4.6209,-4.6197,-4.6203,-4.6206,-4.6217,-4.6219,-4.6239,-4.6296,-4.6302,0.0,0.0,-4.6302,-4.6299,-4.6293,0.0,0.0,0.0,0.0,0.0,0.0,0.0,0.0,0.0,0.0,0.0,0.0,0.0,0.0,0.0,0.0,0.0,-4.6199,-4.6204,-4.6185,-4.6111,-4.6126,-4.6113,-4.611,-4.61,-4.6066,-4.6002,-4.6002,-4.6002,-4.6002,-4.6002,-4.6002,-4.6002,-4.6002,0.0,0.0,-4.5941,-4.5745,-4.5448,-4.5329,-4.4624,-4.3651,-4.339,-4.2363,-4.1082,0.0,0.0,0.0,0.0,0.0,0.0,0.0,-4.1032,-4.0723,-4.0,-3.9763,-3.9036,-3.7356,-3.6462,-3.5995,0.0,0.0,0.0,0.0,0.0,0.0,0.0,0.0,0.0,0.0,0.0,0.0,0.0,0.0,0.0,0.0,0.0,0.0,0.0,0.0,0.0,0.0,0.0,0.0,0.0,0.0,0.0,0.0,0.0,0.0,0.0,0.0,0.0,0.0,0.0,0.0,-4.6181,-4.6103,-4.6072,-4.6102,-4.6181,0.0,0.0,-4.619,-4.6203,-4.6215,-4.629,-4.6285,-4.6296,-4.6307,0.0,0.0,-4.6297,-4.6294,-4.6291,-4.6303,-4.6302,-4.63,0.0,0.0,-4.63,0.0,0.0,0.0,0.0,0.0,0.0,0.0,0.0,0.0,0.0,0.0,0.0,-4.6199,-4.6196,-4.6196,-4.6192,-4.6193,-4.6154,-4.6093,-4.609,-4.6066,-4.6002,-4.6002,-4.6002,-4.6002,-4.6002,-4.6002,-4.6002,-4.6002,0.0,0.0,-4.5983,-4.5485,-4.4686,-4.4561,-4.3882,-4.2881,-4.1971,-4.1445,-4.1063,0.0,0.0,0.0,0.0,0.0,0.0,-4.1087,-4.1099,-4.0991,-4.0664,-4.0195,-3.9646,-3.894,-3.8095,-3.7135,-3.6096,0.0,0.0,0.0,0.0,0.0,0.0,0.0,0.0,0.0,0.0,0.0,0.0,0.0,0.0,0.0,0.0,0.0,0.0,0.0,0.0,0.0,0.0,0.0,0.0,0.0,0.0,0.0,0.0,0.0,0.0,0.0,0.0,0.0,0.0,0.0,0.0,-4.6209,-4.617,0.0,0.0,-4.6196,-4.6209,-4.6192,-4.6231,-4.6269,-4.6291,-4.6301,-4.6307,-4.6307,0.0,-4.6297,-4.6308,-4.6305,-4.6305,-4.6302,-4.63,-4.63,-4.63,0.0,0.0,0.0,0.0,0.0,0.0,0.0,0.0,0.0,0.0,0.0,0.0,0.0,0.0,-4.6192,-4.62,-4.6209,-4.6199,-4.6192,-4.6197,-4.6158,-4.6165,-4.6123,-4.6066,-4.6066,-4.6037,-4.6002,-4.6002,-4.6002,-4.6002,-4.6002,0.0,0.0,-4.5226,-4.4682,-4.3853,-4.3735,-4.3061,-4.2117,-4.1676,-4.1101,-4.0471,0.0,0.0,0.0,0.0,0.0,-4.0736,-4.1029,-4.1083,-4.1097,-4.1091,-4.0605,-4.0156,-3.992,-3.9353,-3.8395,-3.6892,-3.6772,0.0,0.0,0.0,0.0,0.0,0.0,0.0,0.0,0.0,-3.8571,-3.8609,-3.8609,0.0,0.0,0.0,0.0,0.0,0.0,0.0,0.0,0.0,0.0,0.0,0.0,0.0,0.0,0.0,0.0,0.0,0.0,0.0,0.0,0.0,0.0,0.0,0.0,0.0,0.0,0.0,-4.619,-4.6209,-4.6209,-4.6251,-4.6309,-4.6303,-4.6308,-4.6307,0.0,0.0,-4.6308,-4.6302,-4.63,-4.63,-4.63,-4.63,-4.63,-4.63,0.0,-4.63,0.0,0.0,0.0,0.0,0.0,0.0,0.0,0.0,0.0,0.0,0.0,0.0,0.0,-4.6223,-4.6228,-4.6206,-4.6199,-4.6208,-4.6209,-4.6209,-4.6165,-4.61,-4.61,-4.6066,-4.6002,-4.6002,-4.5866,-4.5652,0.0,0.0,0.0,-4.4364,-4.3832,-4.3036,-4.2925,-4.2263,-4.1386,-4.1313,-4.0796,-4.0147,0.0,0.0,0.0,0.0,0.0,0.0,-4.0877,-4.1061,-4.1109,-4.1109,-4.1086,-4.0779,-3.9998,-3.9883,-3.9531,-3.8652,-3.8572,0.0,0.0,0.0,0.0,0.0,0.0,0.0,0.0,0.0,-3.8533,-3.8598,-3.8598,-3.8599,-3.86,-3.86,0.0,0.0,0.0,0.0,0.0,0.0,0.0,0.0,0.0,0.0,0.0,0.0,0.0,0.0,0.0,0.0,0.0,0.0,0.0,0.0,0.0,0.0,0.0,0.0,-4.619,-4.6192,-4.6199,-4.6241,-4.6297,-4.6308,-4.6307,-4.6301,0.0,0.0,-4.63,-4.63,-4.63,-4.63,-4.63,-4.63,-4.63,-4.63,-4.63,0.0,0.0,0.0,0.0,0.0,0.0,0.0,0.0,0.0,0.0,0.0,0.0,0.0,0.0,-4.6303,-4.6272,-4.6206,-4.6206,-4.6208,-4.6209,-4.6209,-4.6165,-4.61,-4.61,-4.6066,-4.6002,-4.6002,-4.5574,0.0,0.0,0.0,0.0,-4.3505,-4.301,-4.2207,-4.2142,-4.1549,-4.068,-4.0554,-4.0427,-4.0289,0.0,0.0,0.0,0.0,0.0,0.0,0.0,-4.1059,-4.1105,-4.1106,-4.1095,-4.1005,-4.0757,-4.072,-4.0603,-4.0329,-3.9258,0.0,0.0,0.0,0.0,0.0,0.0,0.0,0.0,0.0,-4.0296,-4.0318,-4.0315,-4.0301,-4.0303,-4.0309,-4.0312,0.0,0.0,0.0,0.0,0.0,0.0,0.0,0.0,0.0,0.0,0.0,0.0,0.0,0.0,0.0,0.0,0.0,0.0,0.0,0.0,0.0,0.0,-4.6199,0.0,0.0,-4.6193,-4.6254,-4.6306,-4.6307,-4.6301,-4.6294,-4.6306,-4.6303,-4.63,-4.63,-4.63,-4.63,-4.63,-4.63,-4.63,-4.63,-4.63,0.0,0.0,0.0,0.0,0.0,0.0,0.0,0.0,0.0,0.0,0.0,0.0,0.0,0.0,-4.6308,-4.6275,-4.6206,-4.62,-4.6206,-4.6208,-4.6208,-4.6197,-4.6169,-4.6113,-4.5779,-4.5172,-4.5172,0.0,0.0,0.0,0.0,0.0,-4.2617,-4.2107,-4.1301,-4.129,-4.1078,-4.075,-4.0668,-4.0554,-4.0425,0.0,0.0,0.0,0.0,0.0,0.0,0.0,-4.1033,-4.1078,-4.1109,-4.1103,-4.1093,-4.1101,-4.1105,-4.1107,-4.1107,-4.0155,0.0,0.0,0.0,0.0,0.0,0.0,0.0,-4.1042,-4.1058,-4.1061,-4.1067,-4.1093,-4.1109,-4.1094,-4.1104,-4.1109,-4.1109,-4.1095,0.0,0.0,0.0,0.0,0.0,0.0,0.0,-4.1283,0.0,0.0,0.0,0.0,0.0,0.0,0.0,0.0,0.0,0.0,0.0,0.0,0.0,-4.6203,-4.6194,0.0,-4.624,-4.6308,-4.6305,-4.6296,0.0,0.0,-4.63,-4.63,-4.63,-4.63,-4.63,-4.63,-4.63,-4.63,-4.63,-4.63,0.0,0.0,0.0,0.0,0.0,0.0,0.0,0.0,0.0,0.0,0.0,0.0,0.0,0.0,-4.6294,-4.6282,-4.6242,-4.6212,-4.62,-4.6209,-4.6203,-4.6208,-4.6209,-4.5823,-4.5358,-4.4787,-4.4496,0.0,0.0,0.0,0.0,0.0,-4.1709,-4.1393,-4.0907,-4.0908,-4.0863,-4.0832,-4.0763,-4.0674,-4.0569,0.0,0.0,0.0,0.0,0.0,0.0,0.0,-4.0967,-4.1016,-4.1073,-4.1107,-4.1106,-4.1106,-4.1099,-4.1105,-4.1105,0.0,0.0,0.0,0.0,0.0,0.0,0.0,0.0,-4.1006,-4.1006,-4.0993,-4.1007,-4.1078,-4.1098,-4.1092,-4.1103,-4.1108,-4.1108,-4.1094,-4.1103,-4.1092,-4.1098,-4.1103,-4.1095,-4.1097,-4.1107,0.0,0.0,0.0,0.0,0.0,0.0,0.0,0.0,0.0,0.0,0.0,0.0,0.0,0.0,0.0,0.0,0.0,-4.6243,0.0,0.0,0.0,0.0,0.0,-4.63,0.0,-4.63,-4.63,-4.63,-4.63,-4.63,-4.63,-4.63,-4.63,0.0,0.0,0.0,0.0,0.0,0.0,0.0,0.0,0.0,0.0,0.0,0.0,0.0,0.0,-4.63,-4.6296,-4.6306,-4.6242,-4.6206,-4.6206,-4.6209,-4.6173,-4.6092,-4.5293,-4.4795,-4.4599,-4.3852,0.0,0.0,0.0,0.0,0.0,-4.0941,-4.0907,-4.0907,-4.0907,-4.0893,-4.0883,-4.0837,-4.0756,-4.0707,0.0,0.0,0.0,0.0,0.0,0.0,0.0,0.0,0.0,0.0,-4.1078,-4.1093,-4.1103,-4.1107,-4.1092,0.0,0.0,0.0,0.0,0.0,0.0,0.0,0.0,0.0,-4.1003,-4.1003,-4.1003,-4.1007,-4.1078,-4.1103,-4.1106,-4.1098,-4.1103,-4.1103,-4.1105,-4.1091,-4.1092,-4.1105,-4.1099,-4.1108,-4.11,-4.1107,0.0,0.0,0.0,0.0,-4.5572,-4.6199,0.0,0.0,0.0,0.0,0.0,0.0,0.0,0.0,-4.6192,-4.6208,-4.6207,0.0,-4.6308,-4.6304,-4.6293,-4.63,0.0,-4.63,-4.63,-4.63,0.0,0.0,-4.63,-4.63,-4.63,-4.63,-4.63,0.0,0.0,0.0,0.0,0.0,0.0,0.0,0.0,0.0,0.0,0.0,0.0,0.0,0.0,-4.63,-4.63,-4.6298,-4.6284,-4.6248,-4.6206,-4.62,-4.5878,-4.5199,-4.5009,-4.4199,-4.2887,-4.2696,0.0,0.0,0.0,0.0,-4.0987,-4.0941,-4.0907,-4.0907,-4.0907,-4.0903,-4.0893,-4.0888,-4.0832,-4.0773,0.0,0.0,0.0,0.0,0.0,0.0,0.0,0.0,0.0,0.0,0.0,-4.107,-4.1103,-4.1091,0.0,0.0,0.0,0.0,0.0,0.0,0.0,0.0,0.0,-4.1002,-4.0991,-4.0991,-4.0991,-4.0991,-4.1078,-4.1095,-4.1095,-4.1108,-4.1093,-4.1093,-4.1107,-4.1091,-4.1091,-4.1091,-4.1091,-4.11,-4.1095,0.0,0.0,0.0,0.0,0.0,-4.5572,-4.6199,0.0,-4.6199,-4.6199,-4.6199,0.0,0.0,0.0,0.0,-4.6201,-4.6212,-4.6234,-4.6267,-4.6307,-4.6301,-4.629,-4.63,-4.63,0.0,0.0,0.0,0.0,0.0,0.0,0.0,0.0,0.0,0.0,0.0,0.0,0.0,0.0,0.0,0.0,0.0,0.0,0.0,0.0,0.0,0.0,0.0,0.0,-4.63,-4.63,-4.63,-4.5904,-4.5699,-4.5657,-4.5627,-4.5166,-4.4299,-4.389,-4.3221,-4.2282,-4.1921,-4.1489,0.0,0.0,0.0,-4.0999,-4.0954,-4.0941,-4.0907,-4.0907,-4.0907,-4.0907,-4.0908,-4.0888,-4.0842,0.0,0.0,0.0,0.0,0.0,0.0,0.0,0.0,0.0,0.0,0.0,0.0,0.0,0.0,0.0,0.0,0.0,0.0,0.0,0.0,0.0,0.0,-4.1033,-4.1009,-4.1009,-4.1009,-4.1009,-4.1009,-4.1078,-4.1092,-4.1092,-4.1103,-4.1108,-4.1108,-4.1095,-4.1094,-4.1107,-4.1093,-4.1099,-4.1092,-4.1108,0.0,0.0,0.0,0.0,0.0,0.0,0.0,0.0,-4.6199,-4.6199,-4.6199,-4.6199,0.0,0.0,0.0,0.0,0.0,-4.6279,-4.6308,-4.6305,-4.6296,-4.6306,-4.63,-4.63,0.0,0.0,0.0,0.0,0.0,0.0,0.0,0.0,0.0,0.0,0.0,0.0,0.0,0.0,0.0,0.0,0.0,0.0,0.0,0.0,0.0,0.0,0.0,0.0,-4.63,-4.6241,-4.6105,-4.5382,-4.487,-4.4608,-4.4685,-4.4278,-4.3418,-4.2679,-4.2241,-4.2085,-4.1403,-4.1107,0.0,0.0,0.0,-4.0992,-4.0995,-4.095,-4.0907,-4.0907,-4.0907,-4.0907,-4.0907,-4.0893,-4.0907,0.0,0.0,0.0,0.0,0.0,0.0,0.0,0.0,0.0,0.0,0.0,0.0,0.0,0.0,0.0,0.0,0.0,0.0,0.0,0.0,0.0,-4.1098,-4.1049,-4.1009,-4.1009,-4.1009,-4.1009,-4.1009,-4.1065,-4.1094,-4.1094,-4.1094,-4.1097,-4.1097,-4.1108,-4.1097,-4.1101,-4.1094,-4.1101,-4.1092,-4.1108,0.0,0.0,0.0,0.0,0.0,0.0,0.0,0.0,-4.6199,-4.6199,-4.6199,-4.6199,0.0,0.0,0.0,0.0,0.0,-4.6284,-4.6308,-4.6301,-4.6295,-4.6306,-4.63,-4.63,0.0,0.0,0.0,0.0,0.0,0.0,0.0,0.0,0.0,0.0,0.0,0.0,0.0,0.0,0.0,0.0,0.0,0.0,0.0,0.0,0.0,0.0,0.0,0.0,-4.63,-4.5968,-4.5226,-4.5068,-4.4288,-4.2802,-4.3515,-4.3446,-4.2576,-4.2443,-4.2008,-4.1287,-4.1156,-4.1107,-4.1107,0.0,-4.0995,-4.0992,-4.0995,-4.095,-4.0907,-4.0907,-4.0907,-4.0907,-4.0907,-4.0903,-4.0898,0.0,0.0,0.0,0.0,0.0,0.0,0.0,0.0,0.0,0.0,0.0,0.0,0.0,0.0,0.0,0.0,0.0,0.0,0.0,0.0,-4.1103,-4.1103,-4.1042,-4.1013,-4.1059,-4.1059,-4.1059,-4.1059,-4.1085,-4.1107,-4.1107,-4.1062,-4.1059,-4.1059,-4.1042,-4.1059,-4.1095,-4.1092,-4.1109,-4.1101,0.0,0.0,0.0,0.0,0.0,0.0,0.0,0.0,0.0,0.0,-4.6199,-4.6199,-4.6199,0.0,0.0,0.0,0.0,0.0,-4.6287,-4.6307,-4.63,-4.6309,-4.6303,-4.63,-4.63,0.0,0.0,0.0,0.0,0.0,0.0,0.0,0.0,0.0,0.0,0.0,0.0,0.0,0.0,0.0,0.0,0.0,0.0,0.0,0.0,0.0,0.0,0.0,0.0,0.0,-4.5402,-4.501,-4.4097,-4.3202,-4.2402,-4.2325,-4.2082,-4.169,-4.1696,-4.1496,-4.1106,-4.1098,-4.1092,-4.1103,0.0,-4.102,-4.0991,-4.0992,-4.0991,-4.095,-4.0912,-4.0907,-4.0907,-4.0907,-4.0907,-4.0903,0.0,0.0,0.0,0.0,0.0,0.0,0.0,0.0,0.0,0.0,0.0,0.0,0.0,0.0,0.0,0.0,0.0,0.0,0.0,-4.1078,-4.1078,-4.1078,-4.1025,-4.1029,-4.1085,-4.1078,-4.1078,-4.1078,-4.1078,-4.1078,-4.1078,-4.1025,-4.1002,-4.1009,-4.1003,-4.1047,-4.1091,-4.1108,-4.1092,-4.1108,0.0,0.0,0.0,0.0,0.0,0.0,0.0,0.0,0.0,0.0,0.0,0.0,0.0,0.0,0.0,-4.6198,-4.6206,-4.621,-4.6288,-4.6307,-4.6301,-4.6308,0.0,-4.63,-4.63,-4.63,0.0,0.0,0.0,0.0,0.0,0.0,0.0,0.0,0.0,0.0,0.0,0.0,0.0,0.0,0.0,0.0,0.0,0.0,0.0,0.0,0.0,0.0,0.0,0.0,-4.4816,-4.4408,-4.3109,-4.2292,-4.2099,-4.142,-4.1103,-4.1104,-4.1094,-4.1107,-4.1107,-4.11,-4.1093,-4.1106,-4.1098,-4.1061,-4.0993,-4.0991,-4.0992,-4.0991,-4.093,-4.0926,-4.0926,-4.0926,-4.0926,-4.0921,0.0,0.0,0.0,0.0,0.0,0.0,0.0,0.0,0.0,0.0,0.0,0.0,0.0,0.0,0.0,0.0,0.0,0.0,0.0,-4.1019,-4.1019,-4.1019,-4.1,-4.1007,-4.1009,-4.1011,-4.1019,-4.1019,-4.1019,-4.1019,-4.1019,-4.1,-4.1007,-4.1009,-4.1003,-4.1047,-4.1091,-4.1108,-4.1092,-4.1108,-4.1105,0.0,0.0,0.0,0.0,0.0,0.0,0.0,0.0,0.0,0.0,0.0,0.0,0.0,-4.6206,-4.6198,-4.6206,-4.6209,-4.6285,-4.6308,-4.6305,-4.6295,-4.6306,0.0,-4.63,-4.63,0.0,-4.63,0.0,0.0,0.0,0.0,0.0,0.0,0.0,0.0,0.0,0.0,0.0,0.0,0.0,0.0,0.0,0.0,0.0,0.0,0.0,0.0,0.0,0.0,0.0,-4.264,-4.247,-4.2006,-4.1208,-4.1132,-4.1092,-4.1106,-4.11,-4.1097,-4.1095,-4.1101,-4.1092,-4.1109,-4.1108,-4.1067,-4.1007,-4.0993,-4.0995,-4.0992,-4.0992,-4.0992,-4.0992,-4.0992,-4.0992,-4.0992,0.0,0.0,0.0,0.0,0.0,0.0,0.0,0.0,0.0,0.0,0.0,0.0,0.0,0.0,0.0,0.0,0.0,0.0,0.0,-4.0996,-4.0996,-4.0996,-4.1003,-4.1003,-4.0992,-4.0992,-4.0996,-4.0996,-4.0996,-4.0996,-4.0996,-4.0996,-4.1007,-4.1009,-4.1003,-4.1047,-4.1091,-4.1108,-4.1092,-4.1108,-4.1105,-4.141,0.0,0.0,0.0,0.0,0.0,0.0,0.0,0.0,-4.6199,-4.6102,-4.5556,-4.54,-4.5388,-4.5382,-4.5428,-4.5584,-4.6148,-4.6308,-4.6306,-4.6301,-4.6294,0.0,0.0,-4.63,-4.63,-4.63,0.0,0.0,0.0,0.0,0.0,0.0,0.0,0.0,0.0,0.0,0.0,0.0,0.0,0.0,0.0,0.0,0.0,0.0,0.0,0.0,0.0,0.0,0.0,-4.2412,-4.1873,-4.1426,-4.1093,-4.1108,-4.1106,-4.1109,-4.1094,-4.1092,-4.1092,-4.1109,-4.1104,-4.1098,-4.1106,-4.1092,-4.1052,-4.107,-4.1055,-4.1068,-4.1016,-4.099,-4.099,-4.099,-4.099,-4.099,0.0,0.0,0.0,0.0,0.0,0.0,0.0,0.0,0.0,0.0,0.0,0.0,0.0,0.0,0.0,0.0,0.0,0.0,-4.0975,-4.0975,-4.0975,-4.0975,-4.0963,-4.0974,-4.0974,-4.0967,-4.0975,-4.0975,-4.0975,-4.098,-4.1007,-4.1007,-4.1003,-4.0997,-4.1007,-4.105,-4.1094,-4.1108,-4.1093,-4.1111,-4.14,-4.1841,0.0,0.0,0.0,0.0,0.0,0.0,0.0,0.0,-4.6199,-4.6043,-4.5166,-4.4894,-4.49,-4.4894,-4.4959,-4.5194,-4.6069,-4.6308,-4.6307,0.0,0.0,0.0,-4.6306,-4.6303,-4.63,-4.63,0.0,0.0,0.0,0.0,0.0,0.0,0.0,0.0,0.0,0.0,0.0,0.0,0.0,0.0,0.0,0.0,0.0,0.0,0.0,0.0,0.0,0.0,0.0,0.0,-4.1405,-4.1106,-4.11,-4.1108,-4.1099,-4.1099,-4.1101,-4.1108,-4.1091,-4.1092,-4.1093,-4.1093,-4.1108,-4.11,-4.1106,-4.1109,-4.1098,-4.1096,-4.1044,-4.1022,-4.1022,-4.1022,-4.1022,-4.1022,0.0,0.0,0.0,0.0,0.0,0.0,0.0,0.0,0.0,0.0,0.0,0.0,0.0,0.0,0.0,0.0,0.0,0.0,-4.0907,-4.0907,-4.0907,-4.0907,-4.0907,-4.0907,-4.0907,-4.0907,-4.0907,-4.0907,-4.0907,-4.0921,-4.1006,-4.1006,-4.1,-4.099,-4.099,-4.1033,-4.1099,-4.1109,-4.1093,-4.1175,-4.2048,-4.2395,-4.2593,0.0,0.0,0.0,0.0,0.0,0.0,0.0,-4.6199,-4.6043,-4.5166,-4.4894,-4.4881,-4.4894,-4.494,-4.5174,-4.6065,-4.6307,0.0,0.0,0.0,0.0,-4.6294,-4.6306,-4.63,0.0,0.0,0.0,0.0,0.0,0.0,0.0,0.0,0.0,0.0,0.0,0.0,0.0,0.0,0.0,0.0,0.0,0.0,0.0,0.0,0.0,0.0,0.0,0.0,0.0,-4.1104,-4.1091,-4.1094,-4.11,-4.1093,-4.1093,-4.1093,-4.1107,-4.1109,-4.1095,-4.1101,-4.1108,-4.1093,-4.1093,-4.1107,-4.1101,-4.1095,-4.1109,-4.1109,-4.1109,-4.1109,-4.1109,-4.1109,-4.1109,0.0,0.0,0.0,0.0,0.0,0.0,0.0,0.0,0.0,0.0,0.0,0.0,0.0,0.0,0.0,0.0,0.0,0.0,-4.0907,-4.0907,-4.0907,-4.0907,-4.0907,-4.0907,-4.0907,-4.0907,-4.0907,-4.0907,-4.0945,-4.0987,-4.1007,-4.1003,-4.1032,-4.107,-4.1069,-4.108,-4.1106,-4.1093,-4.1108,-4.1189,-4.2043,-4.2746,-4.3373,0.0,0.0,0.0,0.0,0.0,0.0,0.0,0.0,0.0,-4.4442,-4.3994,-4.3981,-4.4036,-4.4064,-4.4413,-4.5909,-4.6308,0.0,0.0,0.0,0.0,0.0,-4.6306,0.0,0.0,0.0,0.0,0.0,0.0,0.0,0.0,0.0,0.0,0.0,0.0,0.0,0.0,0.0,0.0,0.0,0.0,0.0,0.0,0.0,0.0,0.0,0.0,0.0,0.0,-4.1091,-4.1092,-4.1108,-4.1092,-4.1103,-4.1103,-4.1103,-4.11,-4.1105,-4.1109,-4.1097,-4.1108,-4.1098,-4.1107,-4.1093,-4.1093,-4.1092,-4.1092,-4.1092,-4.1092,-4.1092,-4.1092,-4.1092,-4.1092,0.0,0.0,0.0,0.0,0.0,0.0,0.0,0.0,0.0,0.0,0.0,0.0,0.0,0.0,0.0,0.0,0.0,0.0,0.0,-4.0907,-4.0907,-4.0907,-4.0907,-4.0907,-4.0907,-4.0907,-4.0912,-4.0945,-4.0978,-4.1003,-4.1007,-4.1009,-4.1039,-4.1093,-4.1095,-4.1098,-4.1092,-4.1093,-4.1301,-4.1698,-4.2577,-4.34,-4.4248,0.0,0.0,0.0,0.0,0.0,0.0,0.0,0.0,0.0,-4.4559,-4.3874,-4.3686,-4.4055,-4.3946,-4.4082,-4.5831,0.0,0.0,0.0,0.0,0.0,0.0,0.0,0.0,0.0,0.0,0.0,0.0,0.0,0.0,0.0,0.0,0.0,0.0,0.0,0.0,0.0,0.0,0.0,0.0,0.0,0.0,0.0,0.0,0.0,0.0,0.0,0.0,0.0,-4.1092,-4.1111,-4.1106,-4.1094,-4.1107,-4.1107,-4.1107,-4.11,-4.1098,-4.1098,-4.1106,-4.11,-4.1097,-4.1109,-4.1098,-4.1107,-4.1091,-4.1091,-4.1091,-4.1092,-4.1093,-4.1093,-4.1093,-4.1093,0.0,0.0,0.0,0.0,0.0,0.0,0.0,0.0,0.0,0.0,-4.0797,0.0,0.0,0.0,0.0,0.0,0.0,0.0,0.0,-4.0907,-4.0907,-4.0907,-4.0912,-4.0912,-4.0912,-4.0912,-4.0945,-4.0991,-4.0991,-4.0992,-4.099,-4.1007,-4.1039,-4.1097,-4.1094,-4.1108,-4.1113,-4.1188,-4.1689,-4.2483,-4.3443,-4.4294,-4.5089,-4.5886,0.0,0.0,0.0,0.0,0.0,0.0,0.0,0.0,-4.5166,-4.4364,-4.3861,-4.4582,-4.4276,-4.4042,-4.5636,0.0,0.0,0.0,0.0,0.0,0.0,0.0,0.0,0.0,0.0,0.0,0.0,0.0,0.0,0.0,0.0,0.0,0.0,0.0,0.0,0.0,0.0,0.0,0.0,0.0,0.0,0.0,0.0,0.0,0.0,0.0,0.0,-4.1092,-4.1108,-4.1106,-4.1107,-4.1107,-4.1107,-4.1107,-4.1107,-4.1107,-4.1107,-4.1107,-4.1097,-4.1095,-4.11,-4.109,-4.1092,-4.1103,-4.1091,-4.1095,-4.1095,-4.11,-4.1104,-4.1105,-4.1105,-4.1105,0.0,0.0,0.0,0.0,0.0,0.0,0.0,0.0,0.0,0.0,0.0,0.0,0.0,0.0,0.0,0.0,0.0,0.0,0.0,-4.0907,-4.0907,-4.0907,-4.095,-4.0978,-4.0978,-4.0975,-4.0992,-4.0995,-4.1,-4.1011,-4.1007,-4.1053,-4.1085,-4.1095,-4.1106,-4.1093,-4.1148,-4.1827,-4.223,-4.2534,-4.4083,-4.4838,-4.5091,-4.5897,-4.6195,0.0,0.0,0.0,0.0,0.0,0.0,0.0,-4.5166,-4.4777,-4.4527,-4.4092,-4.3838,-4.3778,0.0,-4.4256,0.0,0.0,0.0,0.0,0.0,0.0,0.0,0.0,0.0,0.0,0.0,0.0,0.0,0.0,0.0,0.0,0.0,0.0,0.0,0.0,0.0,0.0,0.0,0.0,0.0,0.0,0.0,0.0,0.0,0.0,0.0,-4.1106,-4.1098,-4.1106,-4.1107,-4.1107,-4.1107,0.0,-4.1107,-4.1107,-4.1107,-4.1107,-4.1091,-4.1097,-4.1098,-4.1106,-4.1106,-4.1098,-4.1103,-4.1105,-4.1105,-4.1107,-4.1092,-4.1099,-4.1103,-4.1104,0.0,0.0,0.0,0.0,0.0,0.0,0.0,0.0,0.0,0.0,0.0,0.0,0.0,0.0,0.0,0.0,0.0,0.0,0.0,0.0,-4.095,-4.0939,-4.0975,-4.0999,-4.0999,-4.1011,-4.0991,-4.1,-4.1009,-4.1023,-4.1053,-4.1081,-4.1108,-4.1106,-4.1093,-4.1327,-4.1748,-4.2209,-4.2887,-4.3722,-4.4633,-4.5256,-4.5666,-4.6084,-4.6228,-4.6195,-4.6206,0.0,0.0,0.0,0.0,0.0,0.0,0.0,-4.4819,-4.4395,-4.4007,-4.3695,0.0,0.0,0.0,0.0,0.0,0.0,0.0,0.0,0.0,0.0,0.0,0.0,0.0,0.0,0.0,0.0,0.0,0.0,0.0,0.0,0.0,0.0,0.0,0.0,0.0,0.0,0.0,0.0,0.0,0.0,0.0,-4.1054,-4.105,-4.1055,-4.1055,-4.1049,-4.1059,-4.1085,-4.1107,-4.1107,-4.1107,-4.1107,-4.1107,-4.1107,-4.1107,-4.111,-4.11,-4.1103,-4.1103,-4.1092,-4.1098,-4.1106,-4.1106,-4.1108,-4.1093,-4.11,-4.1107,-4.1094,0.0,0.0,0.0,0.0,0.0,0.0,0.0,0.0,0.0,0.0,0.0,0.0,0.0,0.0,0.0,0.0,0.0,0.0,0.0,0.0,0.0,-4.0996,-4.1,-4.1003,-4.1003,-4.1015,-4.1016,-4.1025,-4.1028,-4.1047,-4.1109,-4.1106,-4.1103,-4.1113,-4.1269,-4.1711,-4.2424,-4.2711,-4.3684,-4.501,-4.5168,-4.5656,-4.63,-4.629,-4.626,-4.6206,-4.6192,-4.6196,-4.6199,-4.6199,0.0,0.0,0.0,0.0,-4.4878,-4.4718,-4.4116,-4.3433,0.0,0.0,0.0,0.0,0.0,0.0,0.0,0.0,0.0,0.0,0.0,0.0,0.0,0.0,0.0,0.0,0.0,0.0,0.0,0.0,0.0,0.0,0.0,0.0,0.0,0.0,0.0,0.0,0.0,0.0,-4.0992,-4.1,-4.1002,-4.1002,-4.1002,-4.1002,-4.1002,-4.1055,-4.1081,-4.1085,-4.1088,-4.1107,-4.1107,-4.1107,-4.1107,-4.1107,-4.1107,-4.1107,-4.1107,-4.1107,-4.1097,-4.1092,-4.1092,-4.1098,-4.1106,-4.1108,-4.1098,-4.1107,0.0,0.0,0.0,0.0,0.0,0.0,0.0,0.0,0.0,0.0,0.0,0.0,0.0,0.0,0.0,0.0,0.0,0.0,-4.0978,0.0,0.0,-4.0996,-4.1006,-4.1003,-4.1003,-4.1064,-4.1083,-4.1087,-4.1085,-4.1098,-4.1108,-4.1106,-4.1092,-4.1132,-4.1887,-4.2289,-4.2495,-4.4016,-4.4795,-4.5068,-4.5812,-4.6202,-4.63,-4.63,-4.6267,-4.6206,-4.6206,-4.6206,-4.6199,-4.6199,-4.6199,0.0,0.0,0.0,-4.4761,-4.3994,-4.3203,-4.2412,0.0,0.0,0.0,0.0,0.0,0.0,0.0,0.0,0.0,0.0,0.0,0.0,0.0,0.0,0.0,0.0,0.0,0.0,0.0,0.0,0.0,0.0,0.0,0.0,0.0,0.0,0.0,0.0,0.0,0.0,-4.0997,-4.0991,-4.1,-4.1,-4.1,-4.1,-4.1,-4.1003,-4.1011,-4.1013,-4.1065,-4.1107,-4.1107,-4.1107,-4.1107,-4.1107,-4.1107,-4.1107,-4.1107,-4.1107,-4.1091,-4.1094,-4.1094,-4.1094,-4.1097,-4.1092,-4.11,-4.1103,0.0,0.0,0.0,0.0,0.0,0.0,0.0,0.0,0.0,0.0,0.0,0.0,0.0,0.0,0.0,-4.0848,-4.0922,-4.0971,-4.0995,-4.1002,-4.1016,-4.1055,-4.1059,-4.1069,-4.1069,-4.1078,-4.1091,-4.1097,-4.1104,-4.1091,-4.1094,-4.1094,-4.1092,-4.1144,-4.2019,-4.2677,-4.3216,-4.4465,-4.5285,-4.5753,-4.6144,-4.63,-4.63,-4.63,-4.6269,-4.6147,-4.5643,-4.5799,-4.6141,-4.5634,-4.5809,-4.6199,-4.6199,0.0,0.0,0.0,0.0,0.0,0.0,0.0,0.0,0.0,0.0,0.0,0.0,0.0,0.0,0.0,0.0,0.0,0.0,0.0,0.0,0.0,0.0,0.0,0.0,0.0,0.0,0.0,0.0,0.0,0.0,0.0,0.0,0.0,0.0,-4.0935,-4.0935,-4.0941,-4.0941,-4.0939,-4.0971,-4.0999,-4.0999,-4.1007,-4.1007,-4.1009,-4.1036,-4.1062,-4.1107,-4.1107,-4.1107,-4.1107,-4.1107,-4.1107,-4.1107,-4.1107,-4.1107,-4.1107,-4.1107,-4.1107,-4.111,-4.1097,-4.1106,-4.1098,0.0,0.0,0.0,0.0,0.0,0.0,0.0,0.0,0.0,0.0,0.0,0.0,0.0,0.0,0.0,0.0,-4.095,-4.1007,-4.1019,-4.1028,-4.1042,-4.1103,-4.1097,-4.1104,-4.1104,-4.1101,-4.1108,-4.1092,-4.1093,-4.1093,-4.1109,-4.1107,-4.122,-4.1466,-4.2346,-4.3202,-4.4094,-4.4953,-4.5714,-4.63,-4.63,-4.6163,-4.5968,-4.5968,-4.58,-4.5484,-4.4824,-4.5,-4.5436,-4.4793,-4.5144,-4.5829,0.0,0.0,0.0,0.0,0.0,0.0,0.0,0.0,0.0,0.0,0.0,0.0,0.0,0.0,0.0,0.0,0.0,0.0,0.0,0.0,0.0,0.0,0.0,0.0,0.0,0.0,0.0,0.0,0.0,0.0,0.0,0.0,0.0,0.0,0.0,-4.0872,-4.0872,-4.0897,-4.0893,-4.0898,-4.0945,-4.0978,-4.0978,-4.0999,-4.0996,-4.0995,-4.0999,-4.1029,-4.1065,-4.1065,-4.1085,-4.1107,-4.1107,-4.1107,-4.1107,-4.1107,-4.1107,-4.1107,-4.1107,-4.1107,-4.1107,-4.1107,-4.1097,-4.107,0.0,0.0,0.0,0.0,0.0,0.0,0.0,0.0,0.0,0.0,0.0,0.0,-4.0807,-4.0854,-4.0903,-4.0903,-4.0949,-4.1026,-4.1089,-4.1083,-4.1095,-4.1108,-4.1101,0.0,-4.1106,-4.1094,-4.1092,-4.1092,-4.111,-4.1105,-4.1099,-4.1099,-4.1544,-4.2376,-4.3237,-4.4114,-4.4992,-4.5851,-4.6261,-4.63,-4.63,-4.5812,-4.5068,-4.5068,-4.4549,-4.3826,0.0,0.0,0.0,-4.3679,0.0,0.0,0.0,0.0,-4.3504,0.0,0.0,0.0,0.0,0.0,0.0,0.0,0.0,0.0,0.0,0.0,0.0,0.0,0.0,0.0,0.0,0.0,0.0,0.0,0.0,0.0,0.0,0.0,0.0,0.0,0.0,0.0,0.0,0.0,0.0,0.0,0.0,-4.0812,-4.0812,-4.0872,-4.0902,-4.0907,-4.0893,-4.0907,-4.0907,-4.0974,-4.101,-4.0991,-4.1007,-4.1007,-4.1009,-4.1009,-4.1036,-4.1107,-4.1107,-4.1107,-4.1107,-4.1107,-4.1107,-4.1107,-4.1107,-4.1107,-4.1107,-4.1107,-4.111,-4.0974,0.0,0.0,0.0,0.0,0.0,0.0,0.0,0.0,0.0,0.0,0.0,0.0,0.0,-4.0943,-4.0968,-4.0951,-4.1028,-4.1064,-4.1093,-4.1097,-4.1103,-4.109,-4.1093,-4.1094,-4.1094,-4.111,-4.1104,-4.1104,-4.11,-4.1095,-4.1112,-4.1678,-4.2399,-4.3255,-4.3567,-4.4172,-4.501,-4.5324,0.0,0.0,0.0,0.0,-4.4163,0.0,0.0,0.0,0.0,0.0,0.0,0.0,0.0,0.0,0.0,-4.3211,-4.2607,-4.177,0.0,0.0,0.0,0.0,0.0,0.0,0.0,0.0,0.0,0.0,0.0,0.0,0.0,0.0,0.0,0.0,0.0,0.0,0.0,0.0,0.0,0.0,0.0,0.0,0.0,0.0,0.0,0.0,0.0,0.0,0.0,0.0,-4.0792,-4.0823,-4.084,-4.0842,-4.0888,-4.0908,-4.0907,-4.0917,-4.095,-4.1006,-4.0995,-4.1007,-4.1007,-4.1002,-4.1009,-4.1016,-4.0481,-4.0581,-4.1107,-4.1107,-4.1107,-4.1107,-4.1107,-4.1107,-4.1107,-4.1107,-4.1107,-4.0971,0.0,0.0,0.0,0.0,0.0,0.0,0.0,0.0,0.0,-4.0932,0.0,0.0,0.0,0.0,-4.1025,-4.1027,-4.1064,-4.11,-4.1092,-4.1092,-4.1093,-4.1093,-4.1091,-4.1108,-4.1108,-4.1101,-4.1095,-4.1095,-4.1091,-4.1246,-4.1557,-4.2123,-4.2864,-4.3705,-4.3705,-4.4172,-4.499,0.0,0.0,-4.451,0.0,0.0,-4.3261,0.0,0.0,0.0,0.0,0.0,0.0,0.0,0.0,0.0,0.0,-4.2337,-4.1753,-4.1227,-4.1071,0.0,-4.1071,0.0,0.0,0.0,0.0,0.0,0.0,0.0,0.0,0.0,0.0,0.0,0.0,0.0,0.0,0.0,0.0,0.0,0.0,0.0,0.0,0.0,0.0,0.0,0.0,0.0,0.0,0.0,0.0,0.0,-4.0802,-4.0794,-4.0792,-4.0807,-4.0842,-4.0883,-4.0893,-4.0893,-4.0927,-4.0974,-4.0974,-4.0987,-4.0988,-4.0711,-4.0567,-4.0523,-3.9715,-3.9857,-4.064,-4.0351,-4.0234,-4.0234,-4.0234,-4.0234,-4.0234,-4.0234,-4.0234,-4.0097,0.0,0.0,0.0,0.0,0.0,0.0,0.0,0.0,-4.0994,-4.0994,0.0,0.0,0.0,0.0,0.0,-4.1107,-4.1091,-4.1093,-4.1092,-4.1092,-4.1091,-4.1107,-4.1101,-4.1098,-4.1098,-4.1093,-4.1109,-4.1109,-4.1109,-4.1557,-4.2396,-4.2396,-4.2864,-4.3705,-4.3705,-4.4153,-4.4912,0.0,-4.4432,-4.3667,0.0,-4.3114,-4.2364,0.0,0.0,0.0,-4.1098,-4.1106,0.0,0.0,0.0,0.0,0.0,-4.0992,-4.0992,-4.0992,-4.0996,0.0,0.0,0.0,0.0,0.0,0.0,0.0,0.0,0.0,0.0,0.0,0.0,0.0,0.0,0.0,0.0,0.0,0.0,0.0,0.0,0.0,0.0,0.0,0.0,0.0,0.0,0.0,0.0,0.0,0.0,-4.0797,-4.0797,-4.0802,-4.0792,-4.0807,-4.0807,-4.0837,-4.0902,-4.0902,-4.0898,-4.0907,-4.0888,-4.0902,-4.0928,-4.0053,-3.9665,-3.9623,-3.8806,-3.8932,-3.9666,-3.885,-3.85,-3.85,-3.85,-3.85,-3.8497,-3.8497,-3.8497,-3.836,0.0,0.0,0.0,0.0,0.0,-4.1083,-4.1074,-4.1074,-4.1074,0.0,0.0,0.0,-4.1076,-4.1089,-4.1093,-4.1094,-4.1093,-4.111,-4.1103,-4.1103,-4.1101,-4.1095,-4.1094,-4.1093,-4.1093,-4.109,-4.1109,-4.1109,-4.1109,-4.1557,-4.2396,-4.2396,-4.2864,-4.3705,-4.3705,-4.3486,-4.3129,-4.3127,0.0,0.0,-4.2069,-4.1679,0.0,0.0,0.0,0.0,0.0,-4.1073,-4.1016,0.0,-4.1128,-4.1252,0.0,0.0,-4.093,-4.0928,-4.0937,0.0,-4.0992,0.0,0.0,0.0,0.0,0.0,0.0,0.0,0.0,0.0,0.0,0.0,0.0,0.0,0.0,0.0,0.0,0.0,0.0,0.0,0.0,0.0,0.0,0.0,0.0,0.0,0.0,0.0,-4.0797,-4.0797,-4.0797,-4.0803,-4.0802,-4.0792,-4.0792,-4.0809,-4.0837,-4.0872,-4.0907,-4.0898,-4.0315,-4.0033,-4.0023,-3.9166,-3.8755,-3.8708,-3.7906,-3.7702,-3.7942,-3.8335,-3.8494,-3.8504,-3.8504,-3.8478,-3.8426,-3.8426,-3.8426,-3.8309,0.0,0.0,0.0,0.0,0.0,-4.1101,-4.1099,-4.11,-4.1101,0.0,0.0,0.0,-4.1093,-4.1092,-4.1108,-4.1108,-4.1103,-4.1099,-4.1095,-4.1095,-4.1094,-4.1109,-4.1109,-4.1109,-4.1109,-4.1109,-4.1109,-4.1109,-4.1109,-4.1557,-4.2396,-4.2396,-4.2669,-4.3157,-4.3154,0.0,0.0,0.0,0.0,0.0,-4.129,0.0,0.0,-4.1075,-4.1081,0.0,0.0,0.0,-4.1006,-4.098,-4.0915,0.0,0.0,0.0,0.0,0.0,0.0,0.0,0.0,0.0,0.0,0.0,0.0,0.0,0.0,-4.1003,0.0,0.0,0.0,0.0,0.0,0.0,0.0,0.0,0.0,0.0,0.0,0.0,0.0,0.0,0.0,0.0,0.0,0.0,0.0,-4.0797,-4.0797,-4.0797,-4.0797,-4.0797,-4.0803,-4.0802,-4.0802,-4.0794,-4.0804,-4.084,-4.0682,-4.0348,-3.9888,-3.9476,-3.9087,-3.8236,-3.7864,-3.7813,-3.6969,-3.6627,-3.665,-3.7157,-3.7397,-3.7417,-3.7417,-3.7391,-3.7341,-3.7334,-3.7331,-3.7249,0.0,0.0,-4.1112,-4.1112,-4.111,-4.1108,-4.1109,-4.1091,-4.1092,0.0,-4.1093,-4.111,-4.1106,-4.1101,-4.1098,-4.1098,-4.1093,-4.1109,-4.1109,-4.1109,-4.1109,-4.1109,-4.1109,-4.1109,-4.1109,-4.1109,-4.1109,-4.1109,-4.1109,-4.1557,-4.2396,-4.2298,-4.2316,-4.2394,-4.2309,0.0,0.0,0.0,0.0,-4.1084,-4.1091,-4.1094,0.0,0.0,-4.1033,0.0,-4.1006,-4.098,-4.0971,-4.0878,-4.0832,0.0,0.0,0.0,0.0,0.0,-4.0739,0.0,0.0,0.0,0.0,0.0,0.0,0.0,-4.0952,-4.098,-4.0984,0.0,0.0,0.0,0.0,0.0,0.0,0.0,0.0,0.0,0.0,0.0,0.0,0.0,0.0,0.0,0.0,-4.0797,-4.0797,-4.0797,-4.0797,-4.0797,-4.0797,-4.0797,-4.0797,-4.0797,-4.0797,-4.0809,-4.0794,-4.0697,-4.0289,-3.9585,-3.9398,-3.8908,-3.8137,-3.7316,-3.6949,-3.6907,-3.6126,-3.5795,-3.578,-3.578,-3.5811,-3.5891,-3.5891,-3.5887,-3.5864,-3.5807,-3.5776,-3.5788,0.0,-4.1191,-4.1172,-4.1172,-4.1172,-4.1152,-4.1113,-4.1093,-4.1092,-4.1091,-4.1106,-4.11,-4.1094,-4.1093,-4.1091,-4.1091,-4.1109,-4.1109,-4.1109,-4.1109,-4.1109,-4.1109,-4.1109,-4.1109,-4.1109,-4.1109,-4.1109,-4.1109,-4.1109,-4.1557,-4.2376,-4.1674,-4.1729,-4.2366,-4.1661,0.0,0.0,0.0,0.0,-4.0937,-4.1002,0.0,-4.1011,-4.0953,-4.0937,-4.0939,-4.0869,-4.0844,-4.0829,0.0,-4.0642,-4.0628,0.0,0.0,0.0,0.0,0.0,0.0,0.0,0.0,0.0,0.0,0.0,0.0,-4.084,-4.0877,-4.0927,0.0,0.0,0.0,0.0,0.0,0.0,0.0,0.0,0.0,0.0,0.0,0.0,0.0,0.0,0.0,0.0,-4.0797,-4.0797,-4.0797,-4.0797,-4.0797,-4.0797,-4.0797,-4.0797,-4.0797,-4.0797,-4.0797,-4.0803,-4.0091,-3.9663,-3.9495,-3.8151,-3.7429,-3.7216,-3.6362,-3.5975,-3.596,-3.5786,-3.5718,-3.5718,-3.5659,-3.5708,-3.5821,-3.5821,-3.578,-3.5747,-3.5723,-3.5689,-3.5644,-4.1191,-4.1191,-4.1191,-4.1152,-4.1152,-4.1132,-4.111,-4.1108,-4.1105,-4.1103,-4.1098,-4.1093,-4.1109,-4.1109,-4.1109,-4.1109,-4.1109,-4.1109,-4.1109,-4.1109,-4.1109,-4.1109,-4.1109,-4.1109,-4.1109,-4.1109,-4.1106,-4.1101,-4.1101,-4.1314,-4.1735,-4.1308,-4.1326,-4.1729,-4.1267,-4.1031,0.0,0.0,-4.0904,-4.0859,-4.0917,0.0,-4.0939,-4.0883,-4.0835,-4.0798,-4.0754,-4.0713,-4.0648,-4.0537,-4.05,0.0,0.0,-4.0444,-4.0444,0.0,-4.0462,-4.0508,0.0,0.0,0.0,-4.0589,0.0,0.0,0.0,-4.0788,-4.0804,0.0,0.0,0.0,0.0,0.0,0.0,0.0,0.0,0.0,0.0,0.0,0.0,0.0,0.0,0.0,0.0,-4.0797,-4.0797,-4.0797,-4.0797,-4.0797,-4.0797,-4.0797,-4.0603,-4.0178,-4.0158,-3.9946,-3.9514,-3.9062,-3.8628,-3.8183,-3.7383,-3.6749,-3.6294,-3.5878,-3.5674,-3.5648,-3.5651,-3.5629,-3.5601,-3.557,-3.557,-3.5601,-3.5667,-3.5672,-3.5646,-3.5612,-3.5575,-3.5558,-4.1172,-4.1172,-4.1152,-4.1111,-4.1091,-4.109,-4.1106,-4.1102,-4.1098,-4.1097,-4.1093,-4.1109,-4.1109,-4.1109,-4.1109,-4.1109,-4.1109,-4.1109,-4.1109,-4.1109,-4.1109,-4.1109,-4.1109,-4.1108,-4.1106,-4.1106,-4.1101,-4.1109,-4.1107,-4.11,-4.1091,-4.1086,-4.1086,-4.1081,-4.1016,-4.0986,0.0,0.0,0.0,-4.0759,0.0,-4.0845,-4.0854,-4.0796,-4.073,-4.0674,-4.0654,-4.0564,-4.0458,-4.0406,0.0,-4.0392,-4.0379,-4.0381,0.0,0.0,0.0,0.0,0.0,0.0,0.0,0.0,0.0,-4.0586,0.0,0.0,0.0,-4.0655,0.0,0.0,0.0,0.0,0.0,0.0,0.0,0.0,0.0,0.0,0.0,0.0,0.0,0.0,0.0,-4.079,-4.0797,-4.0797,-4.0636,-4.0533,-4.0533,-4.0378,-3.9972,-3.9276,-3.9243,-3.8914,-3.8212,-3.8019,-3.7593,-3.6891,-3.6779,-3.6328,-3.5585,-3.5646,-3.5623,-3.5565,-3.5559,-3.5502,-3.5463,-3.5456,-3.5415,-3.5372,-3.5515,-3.5559,-3.554,-3.5489,-3.5443,-3.543,-4.1112,-4.1112,-4.1111,-4.1108,-4.1108,-4.1106,-4.11,-4.1099,-4.1097,-4.1091,-4.1109,-4.1109,-4.1109,0.0,0.0,0.0,0.0,0.0,-4.1109,0.0,-4.1109,-4.1109,-4.1109,-4.1104,-4.1095,-4.1095,-4.1109,-4.1096,-4.1106,-4.11,-4.1098,-4.1045,-4.101,-4.1016,-4.0991,0.0,0.0,0.0,-4.0687,0.0,-4.0568,-4.0616,0.0,-4.0642,-4.0614,-4.0595,-4.0471,-4.0422,-4.0405,0.0,-4.0306,-4.0316,0.0,-4.0301,0.0,0.0,0.0,0.0,0.0,0.0,0.0,0.0,-4.0427,0.0,0.0,0.0,-4.0519,-4.0519,0.0,0.0,0.0,0.0,0.0,0.0,0.0,0.0,0.0,0.0,0.0,0.0,0.0,0.0,0.0,0.0,-4.0797,-4.0797,-4.0031,-3.9567,-3.9567,-3.8871,-3.8446,-3.835,-3.8355,-3.829,-3.8193,-3.7419,-3.7002,-3.6882,-3.6115,-3.566,-3.5509,-3.5509,-3.5489,-3.5415,-3.536,-3.5342,-3.5316,-3.5258,-3.5234,-3.5242,-3.5364,-3.5391,-3.5331,-3.5324,-3.5293,-3.5223,-4.1092,-4.1091,0.0,-4.1103,-4.1102,-4.11,-4.1094,-4.1094,-4.1093,-4.1109,-4.1109,-4.1109,0.0,0.0,0.0,0.0,0.0,-4.1106,0.0,0.0,-4.1097,-4.1092,0.0,0.0,-4.1103,-4.1096,-4.1083,-4.1039,-4.1042,-4.0995,-4.0941,-4.0909,-4.0872,-4.0873,-4.0883,0.0,-4.0718,0.0,0.0,0.0,0.0,0.0,0.0,-4.0492,-4.0465,-4.0411,-4.0363,-4.0346,-4.0346,0.0,-4.03,0.0,0.0,0.0,0.0,0.0,0.0,0.0,0.0,0.0,0.0,0.0,0.0,0.0,-4.0349,0.0,-4.0427,0.0,0.0,0.0,0.0,0.0,0.0,0.0,0.0,0.0,0.0,0.0,0.0,0.0,0.0,0.0,0.0,0.0,0.0,0.0,-3.8833,-3.8601,-3.8639,-3.8292,-3.7868,-3.7405,-3.7392,-3.7159,-3.6696,-3.6329,-3.6124,-3.6074,-3.5726,-3.5483,-3.5388,-3.5388,-3.533,-3.5231,-3.5187,-3.5182,-3.5179,-3.5153,-3.5117,-3.51,-3.5151,-3.5166,-3.5174,-3.5187,-3.517,-3.5134,-4.1105,0.0,0.0,0.0,-4.1091,-4.1093,-4.1109,-4.1109,0.0,0.0,0.0,0.0,-4.1109,-4.1106,0.0,0.0,0.0,-4.1097,0.0,0.0,-4.1103,0.0,0.0,0.0,0.0,0.0,-4.1039,-4.0953,-4.0924,-4.0878,-4.0773,-4.0757,-4.0759,-4.0736,0.0,-4.0655,-4.0568,0.0,0.0,-4.0364,-4.037,-4.0372,-4.0372,-4.0366,-4.0341,-4.0299,-4.0301,-4.0301,-4.0301,-4.0301,-4.0301,0.0,-4.0301,0.0,0.0,0.0,0.0,0.0,-4.0301,0.0,0.0,0.0,0.0,0.0,0.0,0.0,0.0,0.0,0.0,0.0,0.0,0.0,0.0,0.0,0.0,0.0,0.0,0.0,0.0,0.0,0.0,0.0,0.0,0.0,0.0,-3.8046,-3.7781,-3.7625,-3.7668,-3.7406,-3.6983,-3.6406,-3.6414,-3.6151,-3.5554,-3.556,-3.5515,-3.5443,-3.5456,-3.5374,-3.5262,-3.5262,-3.5179,-3.5062,-3.5062,-3.5054,-3.5057,-3.5057,-3.5011,-3.4964,-3.4964,-3.5001,-3.5044,-3.5047,-3.5057,-3.5057,-4.1095,-4.1103,0.0,0.0,0.0,0.0,0.0,0.0,0.0,0.0,0.0,0.0,0.0,0.0,0.0,0.0,0.0,-4.1093,-4.1093,0.0,-4.1108,0.0,0.0,-4.1075,0.0,0.0,0.0,-4.081,-4.0732,-4.0711,-4.07,-4.0636,-4.0602,-4.0595,-4.0533,-4.0515,-4.0496,-4.0427,-4.036,-4.0307,-4.0291,-4.031,-4.0291,0.0,-4.0299,-4.031,-4.0301,0.0,0.0,-4.0301,-4.0301,0.0,0.0,0.0,0.0,0.0,0.0,0.0,0.0,0.0,0.0,-4.0301,0.0,0.0,0.0,0.0,-3.903,0.0,0.0,0.0,0.0,0.0,0.0,-3.7706,0.0,0.0,0.0,0.0,0.0,0.0,0.0,0.0,0.0,0.0,0.0,-3.792,-3.7114,-3.6627,-3.6553,-3.5818,-3.5373,-3.5354,-3.5415,-3.5424,-3.5405,-3.5415,-3.5372,-3.5315,-3.5316,-3.5234,-3.5105,-3.5105,-3.5081,-3.5011,-3.5011,-3.4983,-3.4917,-3.4917,-3.4908,-3.4889,-3.4889,-3.4889,-3.4917,-3.4917,-3.4917,-3.4917,0.0,0.0,0.0,0.0,0.0,0.0,0.0,-4.1107,0.0,0.0,0.0,0.0,0.0,0.0,-4.1098,0.0,0.0,-4.1075,-4.1036,-4.102,0.0,0.0,0.0,-4.0891,0.0,0.0,0.0,0.0,0.0,-4.0535,-4.0488,-4.0485,-4.0473,-4.046,0.0,-4.0419,0.0,0.0,0.0,0.0,0.0,-4.0301,-4.0301,0.0,0.0,-4.0301,-4.0301,-4.0301,0.0,-4.0301,-4.0301,-4.0301,-4.0301,-4.0301,-4.0301,-4.0301,-4.0301,0.0,0.0,0.0,-4.0301,-4.0301,0.0,0.0,0.0,0.0,0.0,0.0,0.0,0.0,0.0,0.0,-3.5975,-3.5985,-3.593,0.0,0.0,0.0,0.0,0.0,0.0,0.0,0.0,0.0,0.0,-3.6104,-3.5796,-3.5592,-3.5575,-3.5316,-3.5163,-3.5163,-3.5227,-3.5278,-3.5278,-3.5281,-3.5231,-3.5163,-3.516,-3.5091,-3.4963,-3.4926,-3.4898,-3.4878,-3.4878,-3.484,-3.483,-3.483,-3.483,-3.483,-3.483,-3.483,-3.484,-3.4879,-3.4908,-3.4908,-4.0854,0.0,0.0,0.0,0.0,0.0,0.0,0.0,0.0,0.0,-4.1083,0.0,-4.1106,0.0,-4.1067,0.0,-4.1046,-4.1006,-4.0925,-4.0928,0.0,-4.0874,-4.0809,0.0,0.0,0.0,0.0,0.0,0.0,-4.043,-4.0356,-4.0358,-4.0351,-4.0354,0.0,-4.0345,0.0,0.0,-4.03,0.0,0.0,-4.0301,0.0,0.0,-4.0301,-4.0301,0.0,-4.0301,-4.0301,-4.0301,-4.0301,-4.0301,-4.0263,-4.0263,-4.0253,-4.0234,-4.0234,-4.0234,-4.0234,-4.0234,0.0,-4.0234,-4.0005,0.0,-3.9061,0.0,0.0,0.0,0.0,0.0,0.0,0.0,0.0,-3.5075,-3.502,-3.4992,0.0,-3.4927,0.0,0.0,0.0,0.0,0.0,0.0,-3.5089,-3.5072,-3.5018,-3.5,0.0,0.0,-3.4981,-3.4981,-3.5072,-3.5089,-3.5089,-3.5072,-3.5035,-3.4981,-3.4992,-3.4955,-3.485,-3.4821,-3.481,-3.4798,-3.4798,-3.4798,-3.4798,-3.4798,-3.4798,-3.4798,-3.4798,-3.4798,-3.4798,-3.4849,-3.4888,-3.4908,0.0,0.0,0.0,0.0,-4.0957,0.0,0.0,0.0,-4.1013,0.0,-4.1036,-4.1013,-4.1089,-4.1023,-4.0995,-4.0992,-4.0932,0.0,-4.08,-4.0795,0.0,0.0,-4.0719,-4.0655,-4.0588,0.0,0.0,0.0,0.0,0.0,-4.0298,-4.031,-4.0301,-4.0301,-4.0301,0.0,-4.0301,-4.0301,-4.0301,-4.0301,-4.0301,-4.0301,-4.0301,-4.0301,-4.0301,-4.0301,-4.0301,-4.0301,-4.0301,-4.0301,-4.0301,-4.0272,-4.0225,-4.0196,-4.0186,-4.0127,-4.0106,-4.0106,-4.0106,-4.0106,-4.0087,-4.0049,0.0,0.0,0.0,0.0,-3.6282,0.0,0.0,0.0,0.0,0.0,0.0,-3.5011,-3.4992,-3.4983,-3.4908,0.0,0.0,0.0,0.0,0.0,0.0,-3.4908,-3.486,-3.4812,-3.4812,-3.4811,0.0,0.0,-3.4812,-3.4812,-3.486,-3.4898,-3.4898,-3.4831,-3.4812,-3.4812,-3.48,-3.4788,-3.4788,-3.4788,-3.4788,-3.4788,-3.4788,-3.4788,-3.4788,-3.4788,-3.4788,-3.4788,-3.4788,-3.4788,-3.4788,-3.4788,-3.4848,-3.4897,-4.0649,-4.0649,-4.0662,0.0,-4.0804,-4.0873,0.0,0.0,0.0,0.0,-4.0948,-4.0928,-4.0952,-4.0887,-4.0859,-4.0854,-4.0787,0.0,0.0,0.0,0.0,-4.0588,-4.0503,-4.0477,-4.0454,-4.04,0.0,-4.0323,0.0,0.0,-4.0301,-4.0291,-4.0301,-4.0301,0.0,0.0,-4.0301,-4.0301,-4.0301,-4.0301,-4.0301,-4.0301,0.0,0.0,-4.0263,-4.0244,-4.0272,-4.0301,-4.0301,-4.0244,-4.0234,-4.0206,-4.0147,-4.0127,-4.0127,-4.0117,-4.0106,-4.0106,-4.0106,-4.0106,-3.9935,-3.9298,-3.8965,-3.8471,0.0,0.0,0.0,0.0,0.0,0.0,0.0,0.0,0.0,0.0,0.0,0.0,0.0,0.0,0.0,-3.4839,0.0,0.0,0.0,-3.4898,-3.4868,-3.4819,-3.479,-3.4809,0.0,0.0,0.0,-3.479,-3.4829,-3.4839,-3.4839,-3.48,-3.479,-3.479,-3.4758,-3.4737,-3.4708,-3.4666,-3.4655,-3.4655,-3.4655,-3.4655,-3.4655,-3.4655,-3.4655,-3.4655,-3.4655,-3.4655,-3.4666,-3.4768,-3.4798,-3.4838,-4.0554,0.0,0.0,-4.0557,0.0,0.0,-4.0787,0.0,0.0,-4.0853,-4.0823,0.0,-4.0853,-4.0796,-4.0736,-4.0712,-4.0662,0.0,0.0,0.0,0.0,-4.0465,-4.0381,-4.0366,-4.0366,-4.0316,0.0,-4.029,0.0,0.0,-4.0301,-4.0301,-4.0301,-4.0301,0.0,-4.0301,0.0,-4.0301,-4.0301,-4.0301,-4.0263,0.0,0.0,-4.0225,-4.0186,-4.0166,-4.0205,-4.0215,-4.0215,-4.0166,-4.0157,-4.0147,-4.0077,-4.0057,-4.0046,-4.0026,-4.0015,-3.9939,-3.9589,-3.9494,-3.9285,-3.8402,-3.7927,-3.7404,-3.6426,-3.5951,-3.5534,0.0,0.0,0.0,0.0,0.0,0.0,0.0,0.0,0.0,0.0,0.0,0.0,0.0,0.0,0.0,0.0,-3.4809,-3.4778,-3.4727,-3.4708,-3.4708,0.0,0.0,0.0,-3.4708,-3.4708,-3.4708,-3.4708,-3.4708,-3.4687,-3.4666,-3.4634,-3.4602,-3.458,-3.4528,-3.4517,-3.4517,-3.4517,-3.4517,-3.4517,-3.4517,-3.4517,-3.4517,-3.4517,-3.4517,-3.4517,-3.4602,-3.4676,-3.4758,0.0,0.0,0.0,0.0,0.0,0.0,0.0,-4.0662,0.0,-4.0745,0.0,-4.07,-4.0745,-4.0688,-4.064,-4.0574,0.0,-4.0442,-4.0389,-4.0381,-4.0394,-4.0389,-4.0335,-4.0298,-4.0298,-4.031,0.0,0.0,0.0,0.0,-4.0301,-4.0301,-4.0301,0.0,0.0,0.0,0.0,-4.0282,-4.0263,0.0,-4.0206,-4.0186,-4.0176,-4.0127,-4.0096,-4.0067,-4.0067,-4.0096,-4.0106,-4.0067,-4.0067,-4.0057,-3.9975,-3.9965,-3.9954,-3.9889,-3.9802,-3.9556,-3.8858,-3.8593,-3.8309,-3.7437,-3.6698,-3.6129,-3.5975,-3.5398,-3.4868,-3.4798,-3.4788,-3.4778,0.0,0.0,0.0,0.0,0.0,0.0,0.0,0.0,0.0,0.0,0.0,0.0,0.0,0.0,-3.4655,-3.4583,-3.4591,0.0,0.0,0.0,0.0,-3.4561,-3.4561,-3.4561,-3.4561,0.0,-3.4539,-3.4484,-3.4484,-3.445,-3.4393,-3.4393,-3.4363,-3.4363,-3.4363,-3.4363,-3.4363,-3.4363,-3.4363,-3.4363,-3.4351,-3.4381,-3.4363,-3.4351,-3.4484,-3.4645,0.0,0.0,0.0,0.0,0.0,-4.036,-4.0447,-4.0508,-4.0542,-4.0549,-4.0542,-4.0542,-4.0549,-4.0477,-4.0446,-4.0438,-4.0364,0.0,0.0,0.0,0.0,-4.031,-4.0301,-4.0301,-4.0301,-4.031,-4.0301,0.0,0.0,0.0,-4.0301,-4.0301,-4.0301,0.0,0.0,0.0,-4.0206,-4.0157,0.0,-4.0137,-4.0127,-4.0127,-4.0127,-4.0087,-4.0036,-3.9951,-3.9951,-4.0005,-4.0077,-3.9965,-3.9951,-3.9911,-3.9781,-3.9747,-3.9747,-3.9735,-3.9263,-3.8708,-3.8576,-3.8058,-3.7351,-3.6453,-3.6151,-3.5867,-3.5167,-3.4922,-3.4788,-3.4737,-3.4727,-3.4697,-3.4645,0.0,0.0,0.0,0.0,0.0,0.0,0.0,0.0,0.0,0.0,0.0,0.0,0.0,0.0,0.0,0.0,0.0,0.0,0.0,0.0,0.0,-3.4439,0.0,0.0,0.0,-3.4439,-3.4427,-3.4351,-3.4328,-3.4316,-3.4257,-3.4233,-3.4233,-3.4233,-3.4233,-3.4233,-3.4233,-3.4233,-3.4233,-3.4173,-3.4185,-3.4221,-3.4173,-3.4209,-3.4305,0.0,0.0,0.0,0.0,0.0,0.0,0.0,-4.0381,0.0,-4.0436,-4.0444,-4.0444,-4.0444,-4.0383,-4.0358,-4.0358,-4.0326,-4.03,-4.03,-4.0301,-4.0301,-4.0301,-4.0301,0.0,-4.0301,-4.0263,-4.0253,-4.0253,0.0,0.0,-4.0205,-4.0205,0.0,-4.0205,0.0,-4.0176,0.0,0.0,0.0,-4.0046,-4.0015,-3.9984,-3.9943,-3.9911,-3.9826,-3.9747,-3.9747,-3.977,-3.9792,-3.9781,-3.977,-3.9735,-3.9677,-3.934,-3.8959,-3.8959,-3.8406,-3.7683,-3.722,-3.6825,-3.6316,-3.5488,-3.5281,-3.5157,-3.4749,-3.4623,-3.4561,-3.4506,-3.4461,-3.4439,-3.4386,-3.4386,0.0,0.0,0.0,0.0,0.0,0.0,0.0,0.0,0.0,0.0,0.0,0.0,0.0,0.0,0.0,0.0,0.0,0.0,0.0,0.0,0.0,0.0,0.0,0.0,0.0,-3.4245,-3.4173,-3.4124,-3.4086,-3.4023,-3.3998,-3.3998,-3.3998,-3.3998,-3.3998,-3.3998,-3.3972,-3.3934,-3.3908,-3.3881,-3.3881,-3.3881,-3.3908,-3.3985,0.0,-4.0301,0.0,0.0,-4.0301,0.0,-4.0301,-4.0301,-4.031,-4.0372,-4.0381,-4.0381,-4.0381,-4.0326,-4.0308,-4.0308,-4.031,-4.0301,-4.0301,-4.0301,-4.0301,-4.0301,-4.0291,-4.0291,-4.0291,-4.0206,-4.0176,0.0,0.0,0.0,0.0,-4.0106,0.0,0.0,0.0,0.0,0.0,0.0,-3.9984,-3.9922,-3.9867,-3.9792,-3.9735,-3.9665,-3.9587,-3.9526,-3.9514,-3.9477,-3.9402,-3.9326,-3.9407,-3.9489,-3.9295,-3.877,-3.8183,-3.8015,-3.7389,-3.6621,-3.5915,-3.5597,-3.5315,-3.4667,-3.4517,-3.4495,-3.445,-3.4374,-3.4316,-3.4245,-3.4173,-3.4111,-3.4111,-3.4111,0.0,0.0,0.0,0.0,0.0,0.0,0.0,0.0,0.0,0.0,0.0,0.0,0.0,0.0,0.0,0.0,0.0,0.0,0.0,0.0,0.0,-3.4209,-3.4209,0.0,-3.4086,-3.4011,-3.3947,-3.3868,-3.3802,-3.3753,-3.3712,-3.3712,-3.3712,-3.3712,-3.3712,-3.3712,-3.3684,-3.3629,-3.3633,-3.3591,-3.3563,-3.3605,-3.3615,-3.3671,0.0,0.0,0.0,0.0,0.0,0.0,-4.0301,-4.0301,-4.031,-4.032,-4.032,-4.032,-4.032,-4.0291,-4.0291,-4.0291,-4.031,-4.0301,-4.0301,-4.0301,-4.0301,-4.0301,-4.0244,-4.0206,-4.0206,-4.0147,-4.0117,0.0,0.0,0.0,0.0,0.0,0.0,0.0,0.0,0.0,0.0,-3.9758,-3.9701,-3.9635,-3.9623,-3.9587,-3.9526,-3.9452,-3.9389,-3.9324,-3.9264,-3.9197,-3.9031,-3.8233,-3.8582,-3.918,-3.8322,-3.8003,-3.7798,-3.7048,-3.6285,-3.5622,-3.5547,-3.4952,-3.4326,-3.4252,-3.4233,-3.4233,-3.4233,-3.4173,-3.4111,-3.4049,-3.3921,-3.3847,-3.3847,-3.3847,-3.382,0.0,0.0,0.0,0.0,0.0,0.0,0.0,0.0,0.0,0.0,0.0,0.0,0.0,0.0,0.0,0.0,0.0,0.0,-3.4036,0.0,-3.3934,-3.3934,-3.3868,-3.3788,-3.3739,-3.3671,-3.3605,-3.3534,-3.3466,-3.3437,-3.3437,-3.3437,-3.3437,-3.3437,-3.3437,-3.3437,-3.3422,-3.3367,-3.3367,-3.3408,-3.3352,-3.3382,-3.3437,0.0,0.0,0.0,0.0,0.0,0.0,0.0,-4.0215,-4.0186,-4.0225,-4.0291,-4.0301,-4.0301,-4.0301,-4.0301,-4.0301,-4.0301,-4.0272,-4.0244,-4.0244,-4.0225,-4.0176,-4.0157,-4.0147,-4.0147,-4.0077,-4.0026,0.0,0.0,0.0,0.0,0.0,0.0,0.0,0.0,-3.9647,-3.9611,-3.9539,-3.9477,-3.9414,-3.9395,-3.9311,-3.9245,-3.9178,-3.9129,-3.9045,-3.8974,-3.8607,-3.8073,-3.765,-3.7872,-3.8187,-3.7281,-3.6616,-3.6094,-3.5776,-3.5116,-3.4476,-3.4476,-3.4218,-3.3959,-3.3959,-3.3959,-3.3959,-3.3959,-3.3868,-3.3775,-3.3766,-3.3643,-3.3563,-3.3563,-3.3563,-3.3549,0.0,0.0,0.0,0.0,0.0,0.0,0.0,0.0,0.0,0.0,0.0,0.0,0.0,0.0,0.0,0.0,0.0,0.0,-3.3815,0.0,-3.3698,-3.3657,-3.3591,-3.3549,-3.352,-3.3357,-3.3283,-3.3271,-3.315,-3.3088,-3.3088,-3.3088,-3.3088,-3.3088,-3.3088,-3.3091,-3.3028,-3.3015,-3.2981,-3.2932,-3.2981,-3.3031,-3.3044,-4.0036,0.0,-4.0036,0.0,-4.0057,-4.0087,-4.0128,-4.0127,-4.0127,-4.0166,-4.0215,-4.0234,-4.0234,-4.0234,-4.0234,-4.0234,-4.0234,-4.0225,-4.0176,-4.0176,-4.0157,-4.0106,-4.0057,0.0,-4.0036,-3.9954,-3.9889,-3.9845,-3.977,0.0,0.0,0.0,0.0,0.0,-3.9439,-3.9401,-3.9389,-3.9311,-3.9232,-3.9183,-3.9115,-3.9031,-3.896,-3.8888,-3.8667,-3.839,-3.8319,-3.7729,-3.6939,-3.659,-3.6589,-3.6662,-3.6107,-3.5463,-3.4861,-3.4641,-3.4137,-3.3684,-3.3684,-3.3684,-3.3684,-3.3684,-3.3684,-3.3684,-3.3684,-3.3591,-3.3491,-3.3459,-3.3375,-3.3319,-3.3319,-3.3319,-3.3304,-3.3289,0.0,0.0,0.0,0.0,0.0,0.0,0.0,-3.285,-3.282,0.0,0.0,0.0,0.0,0.0,0.0,0.0,0.0,0.0,0.0,0.0,0.0,-3.3304,-3.3244,-3.3214,-3.3073,-3.2977,-3.2961,-3.285,-3.2802,-3.2802,-3.2802,-3.2802,-3.2802,-3.2802,-3.2787,-3.274,-3.274,-3.269,-3.2622,-3.2706,-3.274,-3.2756,-3.99,-3.99,-3.99,-3.99,-3.9954,-3.9996,-3.9996,-4.0057,-4.0106,-4.0106,-4.0106,-4.0106,-4.0106,-4.0106,-4.0106,-4.0106,-4.0106,-4.0106,-4.0106,-4.0106,-4.0106,0.0,0.0,-3.99,-3.99,-3.9758,-3.9701,-3.9701,0.0,0.0,-3.9587,0.0,-3.9324,-3.921,-3.9197,-3.917,-3.9101,-3.9031,-3.8979,-3.891,-3.8837,-3.8728,-3.86,-3.8523,-3.7966,-3.7213,-3.7137,-3.6567,-3.569,-3.4816,-3.4548,-3.456,-3.4765,-3.4761,-3.4557,-3.376,-3.3452,-3.3393,-3.3393,-3.3393,-3.3393,-3.3393,-3.3393,-3.3393,-3.3393,-3.3352,-3.3262,-3.3132,-3.3101,-3.3101,-3.3101,-3.3101,-3.307,-3.3028,0.0,0.0,0.0,0.0,0.0,0.0,-3.2588,-3.2588,-3.2588,0.0,0.0,0.0,0.0,0.0,0.0,0.0,0.0,-3.3205,-3.3147,0.0,-3.3008,-3.293,-3.2868,-3.2823,-3.2789,-3.2722,-3.2606,-3.2588,-3.2588,-3.2588,-3.2588,-3.2588,-3.2588,-3.2588,-3.2588,-3.2606,-3.2606,-3.2606,-3.2606,-3.2606,-3.2606,-3.2606,-3.9623,-3.9623,-3.9623,-3.9623,-3.9647,-3.967,-3.9724,-3.9712,-3.9705,-3.9758,-3.9724,-3.9705,-3.9758,-3.9954,-4.0106,0.0,-4.0057,-4.0007,0.0,-3.9922,-3.9878,-3.9834,-3.9747,-3.9701,-3.9701,-3.9611,-3.9514,-3.9427,0.0,0.0,0.0,-3.9101,-3.9003,-3.8921,-3.8826,-3.88,-3.8822,-3.871,-3.8649,-3.8618,-3.8541,-3.8152,-3.7564,-3.7503,-3.6949,-3.6162,-3.6047,-3.5477,-3.4742,-3.4459,-3.4009,-3.3558,-3.3617,-3.3632,-3.3563,-3.3295,-3.3208,-3.3196,-3.3196,-3.3196,-3.3196,-3.3196,-3.3196,-3.3196,-3.3196,-3.3135,-3.3075,-3.2979,-3.2945,-3.2945,-3.2945,-3.2945,-3.2948,-3.287,-3.2854,0.0,0.0,0.0,0.0,0.0,0.0,-3.2506,0.0,-3.2489,0.0,0.0,0.0,0.0,0.0,0.0,0.0,0.0,-3.2918,0.0,-3.2719,-3.2705,-3.2688,-3.2655,-3.2607,-3.2558,-3.2456,-3.2456,-3.2456,-3.2456,-3.2456,-3.2456,-3.2456,-3.237,-3.2336,-3.2318,-3.2284,-3.2301,-3.2336,-3.2336,-3.2405,-3.2456,-3.935,-3.935,-3.935,-3.935,-3.9376,-3.9401,-3.9439,-3.9439,-3.9439,-3.9489,-3.9452,-3.9452,-3.9514,-3.9712,0.0,-3.9933,-3.99,-3.9826,-3.9781,-3.9717,-3.9665,-3.9594,-3.9514,-3.9477,-3.9452,-3.9389,0.0,-3.9192,-3.9137,-3.8998,-3.8796,-3.877,-3.8713,-3.8652,-3.8556,-3.8559,-3.8596,-3.8415,-3.8184,-3.7929,-3.78,-3.7245,-3.649,-3.6443,-3.589,-3.5141,-3.504,-3.4489,-3.3777,-3.3777,-3.3436,-3.3024,-3.3024,-3.3024,-3.3024,-3.3057,-3.3039,-3.3024,-3.3024,-3.3024,-3.3024,-3.3024,-3.3024,-3.3024,-3.3024,-3.2995,-3.2948,-3.2916,-3.2884,-3.2852,-3.2852,-3.282,-3.2753,-3.2722,-3.2722,-3.269,-3.2573,0.0,0.0,0.0,0.0,0.0,0.0,-3.244,-3.2456,0.0,0.0,0.0,0.0,0.0,0.0,-3.2659,-3.2659,0.0,-3.2421,-3.2421,-3.2421,-3.2421,-3.237,-3.2336,-3.2284,-3.2284,-3.2284,-3.2284,-3.2284,-3.2284,-3.2284,-3.2214,-3.2161,-3.2161,-3.2108,-3.2126,-3.2161,-3.2161,-3.2214,-3.2284,-3.9073,-3.9073,-3.9073,0.0,-3.9129,0.0,-3.9156,-3.9224,-3.9259,-3.9259,-3.9259,-3.9285,-3.935,-3.9382,-3.9439,-3.9642,0.0,0.0,0.0,-3.9514,-3.9452,-3.9395,-3.9311,-3.9232,-3.917,-3.9101,-3.9031,-3.8974,-3.8833,-3.8683,-3.8494,-3.8494,-3.8446,-3.8366,-3.8366,-3.8366,-3.835,-3.8097,-3.7614,-3.6962,-3.6708,-3.6119,-3.5416,-3.5416,-3.4882,-3.4119,-3.4119,-3.3588,-3.29,-3.29,-3.29,-3.29,-3.29,-3.29,-3.2916,-3.2963,-3.2948,-3.29,-3.29,-3.29,-3.29,-3.29,-3.29,-3.29,-3.2884,-3.2884,-3.2884,-3.2884,-3.2838,-3.2789,-3.2789,-3.269,-3.2606,-3.2589,-3.2589,-3.2556,-3.2489,0.0,0.0,0.0,0.0,0.0,0.0,-3.2371,-3.2371,0.0,0.0,0.0,0.0,0.0,-3.2506,-3.2371,-3.2371,-3.2301,-3.209,-3.209,-3.209,-3.209,-3.209,-3.209,-3.209,-3.209,-3.209,-3.209,-3.209,-3.209,-3.209,-3.209,-3.209,-3.209,-3.2073,-3.2073,-3.209,-3.209,-3.209,-3.209,0.0,0.0,-3.8777,-3.874,-3.8737,-3.8737,-3.8737,-3.8803,-3.8818,-3.8781,-3.8781,-3.8826,-3.8989,-3.9021,-3.9059,-3.917,-3.9298,-3.935,-3.9304,-3.9219,-3.9151,-3.9115,-3.9031,-3.8964,-3.8892,-3.8785,-3.8676,-3.8615,-3.8541,-3.8449,-3.8354,-3.8354,-3.8254,-3.8103,-3.8103,-3.807,-3.7966,-3.7319,-3.6925,-3.6709,-3.6062,-3.5276,-3.451,-3.451,-3.396,-3.32,-3.32,-3.3077,-3.29,-3.29,-3.29,-3.29,-3.29,-3.29,-3.29,-3.2916,-3.2916,-3.29,-3.29,-3.29,-3.29,-3.29,-3.287,-3.2805,-3.2688,-3.2672,-3.2672,-3.2672,-3.2655,-3.2639,-3.2639,-3.2622,-3.2589,-3.254,-3.2473,-3.2422,-3.2284,-3.2214,0.0,0.0,-3.2179,-3.2179,-3.2179,-3.2179,-3.2179,0.0,0.0,0.0,0.0,-3.2179,-3.2197,-3.2179,-3.2179,-3.2161,-3.209,-3.209,-3.209,-3.209,-3.209,-3.209,-3.209,-3.209,-3.209,-3.209,-3.209,-3.209,-3.209,-3.1984,-3.1948,-3.1948,-3.1893,-3.1911,-3.1948,-3.1948,-3.2002,-3.209,-3.8525,-3.8544,-3.8544,-3.8525,-3.8525,-3.8525,-3.8525,-3.8544,-3.8544,-3.8525,-3.8525,-3.8572,-3.8695,-3.8728,-3.8725,-3.8766,-3.897,-3.9087,-3.9017,-3.8931,-3.884,-3.8766,-3.874,-3.8667,-3.8578,-3.8496,-3.8399,-3.8267,-3.8204,-3.8156,-3.8123,-3.8123,-3.8054,-3.795,-3.7572,-3.7393,-3.7288,-3.6464,-3.589,-3.553,-3.505,-3.4354,-3.3589,-3.3575,-3.3259,-3.2854,-3.277,-3.2753,-3.2753,-3.2753,-3.2753,-3.2753,-3.2753,-3.2753,-3.2753,-3.2753,-3.2836,-3.29,-3.29,-3.2868,-3.2836,-3.2787,-3.2739,-3.269,-3.2622,-3.2573,-3.2539,-3.2539,-3.2472,-3.2421,-3.2421,-3.2387,-3.2353,-3.2318,-3.2232,-3.2144,-3.2073,-3.2001,0.0,-3.1965,-3.1965,-3.1965,-3.1965,-3.1965,-3.1965,-3.1965,-3.1965,0.0,-3.1857,-3.1857,-3.1912,-3.2002,-3.2002,-3.1984,-3.1965,-3.1965,-3.1965,-3.1965,-3.1965,-3.1965,-3.1965,-3.1965,-3.1965,-3.1965,-3.1965,-3.1965,-3.1947,-3.1875,-3.1839,-3.1839,-3.1801,-3.1819,-3.1839,-3.1839,-3.1911,-3.1965,-3.8368,-3.8368,-3.8368,-3.8368,-3.8368,-3.8368,-3.8368,-3.8368,-3.8368,-3.8368,-3.8368,-3.8401,-3.8462,-3.8462,-3.8428,-3.8428,-3.8634,-3.8758,-3.8728,-3.8618,-3.8507,-3.8428,-3.8428,-3.8385,-3.8241,-3.8241,-3.8156,-3.7966,-3.7934,-3.7899,-3.7899,-3.7899,-3.7827,-3.7684,-3.7001,-3.6606,-3.6428,-3.5554,-3.4786,-3.4142,-3.3955,-3.3458,-3.2852,-3.2789,-3.2773,-3.2756,-3.2639,-3.2589,-3.2589,-3.2589,-3.2573,-3.2538,-3.2538,-3.2538,-3.2538,-3.2538,-3.2672,-3.282,-3.2852,-3.2804,-3.274,-3.2589,-3.2573,-3.2556,-3.2522,-3.2455,-3.2404,-3.2405,-3.2232,-3.2108,-3.2108,-3.2055,-3.2001,-3.2001,-3.1893,-3.1803,-3.1803,0.0,-3.1707,-3.1707,-3.1707,-3.1707,-3.1707,-3.1707,-3.1707,-3.1707,-3.1707,-3.1653,-3.1559,-3.1542,-3.1617,-3.1748,-3.1803,-3.1802,-3.1763,-3.1763,-3.1763,-3.1763,-3.1763,-3.1763,-3.1763,-3.1763,-3.1763,-3.1763,-3.1763,-3.1763,-3.1763,-3.1763,-3.1781,-3.1764,-3.18,-3.18,-3.18,-3.1781,-3.1781,-3.1781,-3.8224,-3.8224,-3.8224,-3.8224,-3.8224,-3.8224,-3.8224,-3.8224,-3.8224,-3.8224,-3.8224,-3.8257,-3.8322,-3.8219,-3.8168,-3.8168,-3.8153,-3.8236,-3.8446,-3.8403,-3.8287,-3.8168,-3.8119,-3.8036,-3.7969,-3.7969,-3.7951,-3.7916,-3.7899,-3.7899,-3.7899,-3.7899,-3.7522,-3.6789,-3.6664,-3.6182,-3.5381,-3.4494,-3.4068,-3.3874,-3.3132,-3.2762,-3.2655,-3.2639,-3.2639,-3.2622,-3.2606,-3.2556,-3.2506,-3.2506,-3.2438,-3.2352,-3.2352,-3.2352,-3.2352,-3.2352,-3.2369,-3.242,-3.2606,-3.2639,-3.2607,-3.2456,-3.2422,-3.2353,-3.2056,-3.2002,-3.1984,-3.1911,-3.1801,-3.1691,-3.1691,-3.1635,-3.1579,-3.1579,-3.1485,-3.1391,-3.1391,0.0,-3.1288,-3.1288,-3.1288,-3.1288,-3.1288,-3.1288,-3.1288,-3.1288,-3.1288,-3.1288,-3.1269,-3.1269,-3.1213,-3.1137,-3.1406,-3.1574,-3.1555,-3.1555,-3.1555,-3.1555,-3.1555,-3.1555,-3.1555,-3.1555,-3.1555,-3.1555,-3.1555,-3.1555,-3.1538,-3.1615,-3.1635,-3.1635,-3.1763,-3.18,-3.18,-3.1671,-3.1635,-3.1635,-3.8209,-3.8209,-3.8209,-3.8209,-3.8209,-3.8209,-3.8209,-3.8209,-3.8209,-3.8209,-3.814,-3.8105,-3.8156,-3.8053,-3.7984,-3.7984,-3.795,-3.8003,-3.8121,-3.8088,-3.8072,-3.7984,-3.7968,-3.7898,-3.7792,-3.7757,-3.7739,-3.7739,-3.7739,-3.7524,-3.7094,-3.7094,-3.663,-3.5757,-3.5329,-3.4903,-3.439,-3.3558,-3.3205,-3.3169,-3.2732,-3.2557,-3.254,-3.2439,-3.2387,-3.237,-3.2249,-3.2197,-3.2161,-3.2144,-3.209,-3.202,-3.202,-3.202,-3.202,-3.202,-3.2161,-3.2318,-3.237,-3.2353,-3.2301,-3.2161,-3.2055,-3.1929,-3.1784,-3.1656,-3.1543,-3.143,-3.1351,-3.1254,-3.1179,-3.1142,-3.1103,-3.1103,-3.1041,0.0,0.0,-3.0895,-3.0814,-3.0814,-3.0814,-3.0814,-3.0814,-3.0814,-3.0814,-3.0814,-3.0814,-3.0814,-3.0814,-3.0757,-3.0679,-3.0617,-3.0942,-3.1117,-3.1117,-3.1117,-3.1157,-3.123,-3.123,-3.1269,-3.1344,-3.1344,-3.1344,-3.1344,-3.1344,-3.1366,-3.1406,-3.1428,-3.1466,-3.1557,-3.1614,-3.1632,-3.1632,-3.1576,-3.1557,-3.1557,-3.8209,-3.8209,-3.8209,-3.8209,-3.8209,-3.8192,-3.8157,-3.8157,-3.814,-3.8123,-3.8037,-3.7984,-3.7984,-3.7898,-3.7846,-3.7828,-3.7811,-3.7793,-3.7757,-3.7757,-3.7793,-3.7864,-3.7846,-3.7775,-3.7667,-3.7631,-3.7595,-3.7595,-3.7398,-3.6988,-3.6364,-3.6168,-3.5616,-3.4764,-3.416,-3.3737,-3.3456,-3.2821,-3.2522,-3.2489,-3.2387,-3.2353,-3.2318,-3.2161,-3.209,-3.2055,-3.1893,-3.1803,-3.1748,-3.1691,-3.1671,-3.167,-3.1615,-3.1596,-3.1596,-3.1578,-3.1748,-3.1967,-3.202,-3.2001,-3.1929,-3.1766,-3.16,-3.1485,-3.1408,-3.1257,-3.112,-3.0985,-3.0918,-3.0818,-3.074,-3.0683,-3.0662,-3.0662,0.0,0.0,0.0,-3.0405,-3.0342,-3.0342,-3.0342,-3.0342,-3.0342,-3.0342,-3.0342,-3.0342,-3.0342,-3.0342,-3.0342,-3.0225,-3.0145,-3.0118,-3.0477,-3.0662,-3.0662,-3.0662,-3.072,-3.0814,-3.0814,-3.0875,-3.0972,-3.0975,-3.0995,-3.0995,-3.1015,-3.1095,-3.1159,-3.1179,-3.1254,-3.1402,-3.1421,-3.144,-3.144,-3.1402,-3.1366,-3.1402,-3.8209,-3.8209,-3.8209,-3.8209,-3.8209,-3.8157,-3.8036,-3.8001,-3.7984,-3.7934,-3.7916,-3.7899,-3.7899,-3.7792,-3.7703,-3.7631,-3.7503,-3.7411,-3.7353,-3.7334,-3.7466,-3.7703,-3.7649,-3.7631,-3.7613,-3.7595,-3.7595,-3.7595,-3.6791,-3.6381,-3.6292,-3.5474,-3.4677,-3.3897,-3.3844,-3.3368,-3.2578,-3.2457,-3.2319,-3.2126,-3.2002,-3.1912,-3.1855,-3.1837,-3.1746,-3.1635,-3.1635,-3.1504,-3.1334,-3.1334,-3.131,-3.123,-3.1095,-3.1055,-3.1018,-3.0905,-3.0888,-3.0988,-3.1428,-3.1559,-3.1485,-3.122,-3.1142,-3.1064,-3.0818,-3.0753,-3.0712,-3.0572,-3.0485,-3.0422,-3.0422,-3.0338,-3.0253,-3.0253,0.0,0.0,-3.0038,-2.9935,-2.9853,-2.9853,-2.9853,-2.9853,-2.9853,-2.9853,-2.9853,-2.9853,-2.9853,-2.9853,-2.9853,-2.9837,-2.9766,-2.956,-3.0,-3.0253,-3.0253,-3.0253,-3.0253,-3.0253,-3.0253,-3.0253,-3.0274,-3.0347,-3.0372,-3.0372,-3.051,-3.0613,-3.0753,-3.0821,-3.0922,-3.1055,-3.1171,-3.121,-3.121,-3.1075,-3.1035,-3.1055,-3.8003,-3.8003,-3.8003,-3.8003,-3.8003,-3.8003,-3.7933,-3.7933,-3.7898,-3.7792,-3.7739,-3.7685,-3.7595,-3.7503,-3.7429,-3.741,-3.7372,-3.7334,-3.7297,-3.7297,-3.7353,-3.7448,-3.7428,-3.741,-3.741,-3.741,-3.718,-3.6664,-3.6344,-3.5687,-3.4729,-3.4376,-3.3741,-3.2931,-3.2792,-3.2512,-3.2126,-3.2072,-3.1946,-3.1784,-3.1691,-3.1579,-3.1485,-3.1349,-3.1271,-3.1196,-3.1078,-3.0998,-3.0918,-3.0838,-3.0777,-3.0753,-3.0712,-3.0692,-3.0654,-3.0572,-3.0551,-3.0572,-3.0675,-3.0838,-3.0978,-3.0878,-3.0757,-3.0613,-3.0443,-3.0338,-3.021,-3.0055,-2.9989,-2.9946,-2.9858,-2.9792,-2.977,-2.977,0.0,-2.9681,-2.9681,-2.9659,-2.9598,-2.9598,-2.9598,-2.9598,-2.9598,-2.9538,-2.9493,-2.9493,-2.9425,-2.938,-2.938,-2.9296,-2.9198,-2.9068,-2.9229,-2.9373,-2.9531,-2.9531,-2.9598,-2.976,-2.9687,-2.976,-2.9941,-2.9881,-2.9924,-2.9989,-3.0032,-3.0151,-3.0274,-3.0384,-3.0447,-3.0506,-3.0597,-3.0638,-3.0638,-3.058,-3.0634,-3.0712,-3.7811,-3.7811,-3.7811,-3.7811,-3.7811,-3.7793,-3.7739,-3.7739,-3.7703,-3.7541,-3.7467,-3.7411,-3.7298,-3.7222,-3.7182,-3.7143,-3.7106,-3.7068,-3.7046,-3.7009,-3.7068,-3.7222,-3.722,-3.7201,-3.7201,-3.6954,-3.6567,-3.6019,-3.5488,-3.4711,-3.367,-3.3301,-3.2827,-3.2232,-3.2037,-3.1875,-3.1766,-3.1673,-3.1523,-3.1334,-3.1295,-3.1179,-3.1021,-3.0915,-3.0834,-3.0794,-3.0651,-3.0568,-3.0526,-3.0443,-3.0401,-3.0401,-3.0359,-3.0338,-3.0295,-3.0205,-3.0184,-3.0162,-3.0033,-3.0146,-3.0338,-3.0405,-3.0295,-3.0141,-3.0011,-2.9924,-2.9792,-2.9675,-2.9653,-2.9608,-2.9518,-2.9496,-2.9496,-2.9496,-2.9473,-2.9434,-2.9434,-2.9366,-2.9321,-2.9321,-2.9291,-2.9268,-2.9268,-2.9199,-2.9137,-2.9137,-2.9068,-2.9014,-2.9014,-2.8889,-2.8771,-2.8747,-2.87,-2.8732,-2.8881,-2.8951,-2.9091,-2.9282,-2.9183,-2.9259,-2.9477,-2.9409,-2.9416,-2.9506,-2.9566,-2.9694,-2.9864,-2.9951,-2.9979,-3.0022,-3.0054,-3.0075,-3.0054,-3.0059,-3.014,-3.0241,-3.7595,-3.7595,-3.7595,-3.7613,-3.7613,-3.754,-3.7429,-3.7411,-3.7318,-3.7127,-3.7108,-3.7069,-3.6989,-3.6989,-3.6948,-3.6809,-3.6673,-3.6571,-3.6502,-3.6381,-3.6533,-3.7069,-3.7029,-3.6989,-3.6989,-3.6199,-3.5795,-3.5778,-3.4193,-3.3386,-3.3368,-3.2349,-3.1894,-3.1876,-3.1691,-3.156,-3.1485,-3.1351,-3.1103,-3.0804,-3.0804,-3.0679,-3.0506,-3.0506,-3.0443,-3.0396,-3.0396,-3.0295,-3.0189,-3.0189,-3.0189,-3.0167,-3.0038,-2.9946,-2.9874,-2.9742,-2.9697,-2.9675,-2.9541,-2.9496,-2.9563,-2.9744,-2.9754,-2.9675,-2.9518,-2.9496,-2.9496,-2.9496,-2.9496,-2.9496,-2.9496,-2.9496,-2.9496,-2.9496,-2.9389,-2.9305,-2.9305,-2.9082,-2.8904,-2.8904,-2.8834,-2.8794,-2.8794,-2.8794,-2.8794,-2.8794,-2.8794,-2.8794,-2.8794,-2.866,-2.8597,-2.8597,-2.8468,-2.8411,-2.8411,-2.8652,-2.8794,-2.8794,-2.8794,-2.8794,-2.8794,-2.8865,-2.8904,-2.8904,-2.9052,-2.9259,-2.9493,-2.9509,-2.9522,-2.9572,-2.9572,-2.9544,-2.9493,-2.9566,-2.9611,-2.9633,-3.7013,-3.705,-3.7069,-3.7164,-3.7164,-3.7182,-3.7126,-3.7031,-3.6915,-3.6756,-3.6713,-3.665,-3.6509,-3.6509,-3.6489,-3.6447,-3.6326,-3.6203,-3.6097,-3.6006,-3.6006,-3.6178,-3.6388,-3.6266,-3.5746,-3.5503,-3.4844,-3.3769,-3.328,-3.2739,-3.2129,-3.1776,-3.1524,-3.1336,-3.1142,-3.1001,-3.0935,-3.0797,-3.0654,-3.051,-3.051,-3.0443,-3.0274,-3.0189,-3.0146,-3.0103,-3.0076,-3.0011,-2.9989,-2.9989,-2.9989,-2.9968,-2.9836,-2.972,-2.9608,-2.9563,-2.9563,-2.9541,-2.9518,-2.9434,-2.9412,-2.9554,-2.957,-2.9518,-2.9389,-2.935,-2.9328,-2.9252,-2.9229,-2.9229,-2.9229,-2.9229,-2.9206,-2.9082,-2.9059,-2.899,-2.8967,-2.8873,-2.8826,-2.8826,-2.8803,-2.8794,-2.8794,-2.8708,-2.866,-2.866,-2.8565,-2.8532,-2.8532,-2.8468,-2.8468,-2.8468,-2.842,-2.8411,-2.8411,-2.8484,-2.858,-2.866,-2.8565,-2.8628,-2.8794,-2.8716,-2.874,-2.8826,-2.8873,-2.8944,-2.9014,-2.9059,-2.9059,-2.9045,-2.9082,-2.909,-2.9067,-2.909,-2.9159,-2.9266,-3.6512,-3.6516,-3.6574,-3.6693,-3.6713,-3.6713,-3.6713,-3.6594,-3.6492,-3.6385,-3.628,-3.6174,-3.6045,-3.6023,-3.6023,-3.6023,-3.5898,-3.5788,-3.5677,-3.5627,-3.5464,-3.5182,-3.5363,-3.5309,-3.4932,-3.435,-3.3596,-3.2672,-3.2381,-3.1927,-3.1351,-3.1257,-3.112,-3.0942,-3.074,-3.0613,-3.0568,-3.0443,-3.0338,-3.0231,-3.0231,-3.0184,-3.0076,-2.9989,-2.9968,-2.9968,-2.9902,-2.9874,-2.983,-2.983,-2.9786,-2.9742,-2.9653,-2.9563,-2.9496,-2.9434,-2.9412,-2.9412,-2.936,-2.9275,-2.9236,-2.9321,-2.9344,-2.9321,-2.9236,-2.9213,-2.919,-2.9052,-2.9013,-2.9006,-2.8975,-2.8975,-2.8951,-2.8865,-2.8865,-2.8858,-2.8818,-2.8747,-2.8708,-2.8708,-2.8676,-2.8652,-2.8652,-2.8565,-2.8517,-2.8517,-2.8444,-2.8411,-2.8411,-2.8411,-2.8411,-2.8411,-2.8348,-2.8323,-2.8323,-2.8275,-2.8323,-2.8517,-2.8372,-2.842,-2.8565,-2.842,-2.842,-2.8484,-2.8541,-2.8589,-2.8652,-2.8692,-2.8668,-2.8652,-2.8629,-2.859,-2.8542,-2.8614,-2.8661,-2.8748,-3.6011,-3.6032,-3.6075,-3.6199,-3.6237,-3.6237,-3.6237,-3.6114,-3.6028,-3.5954,-3.5827,-3.5717,-3.5577,-3.5577,-3.5577,-3.5577,-3.5424,-3.5327,-3.5245,-3.5178,-3.4843,-3.4158,-3.4008,-3.4035,-3.4199,-3.2925,-3.2236,-3.2131,-3.1472,-3.1072,-3.0935,-3.0821,-3.072,-3.063,-3.0459,-3.0375,-3.0354,-3.0227,-3.0103,-2.9995,-2.9995,-2.9946,-2.9896,-2.9896,-2.9874,-2.9858,-2.9858,-2.9786,-2.9675,-2.9675,-2.9586,-2.9473,-2.9473,-2.9473,-2.945,-2.9305,-2.9282,-2.9259,-2.9121,-2.9075,-2.9075,-2.9075,-2.9075,-2.9075,-2.9075,-2.9075,-2.9029,-2.892,-2.8897,-2.8873,-2.8818,-2.8794,-2.8794,-2.8771,-2.8771,-2.8771,-2.8771,-2.866,-2.8573,-2.8573,-2.8468,-2.8411,-2.8411,-2.8411,-2.8411,-2.8411,-2.8411,-2.8411,-2.8411,-2.8387,-2.8372,-2.8372,-2.8235,-2.8186,-2.8186,-2.8054,-2.8134,-2.844,-2.8266,-2.8217,-2.8278,-2.8084,-2.7995,-2.802,-2.8128,-2.825,-2.8348,-2.8348,-2.8348,-2.8348,-2.821,-2.8103,-2.8005,-2.8137,-2.8186,-2.8186,-3.5538,-3.5543,-3.5588,-3.5717,-3.5739,-3.5739,-3.5739,-3.565,-3.5543,-3.5538,-3.5464,-3.5406,-3.5383,-3.536,-3.536,-3.536,-3.5158,-3.4954,-3.4851,-3.4188,-3.3745,-3.358,-3.2533,-3.1946,-3.199,-3.1936,-3.1571,-3.0904,-3.0738,-3.0609,-3.0526,-3.0506,-3.038,-3.0146,-3.0103,-3.0055,-3.0011,-2.9968,-2.9946,-2.9924,-2.9924,-2.9852,-2.9726,-2.9726,-2.9675,-2.9586,-2.9586,-2.9563,-2.9541,-2.9541,-2.9457,-2.9328,-2.9328,-2.9259,-2.9183,-2.9144,-2.9144,-2.9121,-2.899,-2.8943,-2.892,-2.8873,-2.8865,-2.8873,-2.892,-2.8905,-2.8865,-2.8826,-2.8826,-2.8818,-2.8794,-2.8794,-2.8771,-2.866,-2.8636,-2.8612,-2.8508,-2.846,-2.8444,-2.8444,-2.842,-2.8411,-2.8411,-2.8411,-2.8411,-2.8411,-2.8411,-2.8411,-2.8411,-2.8299,-2.8235,-2.8235,-2.8103,-2.8054,-2.8054,-2.8005,-2.8303,-2.8855,-2.8312,-2.8328,-2.8814,-2.8247,-2.7995,-2.7995,-2.8029,-2.8054,-2.8094,-2.8094,-2.8094,-2.8079,-2.8054,-2.8029,-2.8005,-2.8029,-2.8054,-2.8054,-3.5234,-3.5258,-3.5304,-3.5435,-3.5458,-3.5458,-3.5458,-3.5327,-3.5258,-3.5258,-3.5182,-3.5105,-3.5105,-3.5041,-3.4994,-3.4923,-3.4787,-3.4519,-3.4101,-3.3636,-3.3104,-3.2433,-3.1679,-3.11,-3.0691,-3.0849,-3.0738,-3.0359,-3.0359,-3.0316,-3.021,-3.021,-3.0119,-2.9946,-2.9946,-2.9924,-2.9896,-2.9896,-2.9874,-2.9792,-2.9792,-2.9704,-2.9608,-2.9608,-2.9563,-2.9496,-2.9496,-2.9473,-2.9389,-2.9321,-2.9275,-2.9213,-2.9213,-2.9121,-2.899,-2.899,-2.8982,-2.8928,-2.8881,-2.8842,-2.8834,-2.8818,-2.8747,-2.8732,-2.8834,-2.8826,-2.8771,-2.8708,-2.8684,-2.8684,-2.8628,-2.8604,-2.8604,-2.8517,-2.8517,-2.8468,-2.8411,-2.8411,-2.8411,-2.8411,-2.8411,-2.8411,-2.8411,-2.8411,-2.8372,-2.8323,-2.859,-2.875,-2.869,-2.8931,-2.9048,-2.9048,-2.8617,-2.8374,-2.8374,-2.8006,-2.8137,-2.88,-2.8198,-2.8087,-2.8404,-2.8006,-2.7815,-2.7815,-2.788,-2.7905,-2.7905,-2.7905,-2.7905,-2.7905,-2.7815,-2.7815,-2.7815,-2.7815,-2.7815,-2.7815,-3.5041,-3.5065,-3.5088,-3.5222,-3.5222,-3.5222,-3.5198,-3.5088,-3.5018,-3.4994,-3.4899,-3.4828,-3.4828,-3.4715,-3.4618,-3.4497,-3.4358,-3.403,-3.3401,-3.3123,-3.2446,-3.1269,-3.1127,-3.0724,-2.9989,-2.9973,-3.0055,-3.0162,-3.0162,-3.0081,-2.9973,-2.9973,-2.9946,-2.9896,-2.9874,-2.9874,-2.9858,-2.9852,-2.9764,-2.9675,-2.9675,-2.9586,-2.9473,-2.9473,-2.945,-2.9428,-2.9428,-2.9344,-2.9213,-2.9091,-2.9045,-2.9045,-2.9045,-2.8982,-2.8873,-2.8873,-2.8834,-2.8794,-2.8747,-2.8723,-2.8723,-2.8676,-2.8589,-2.8517,-2.8604,-2.8676,-2.8676,-2.8541,-2.8517,-2.8468,-2.8372,-2.8372,-2.8372,-2.8372,-2.8372,-2.8363,-2.8323,-2.8339,-2.8339,-2.8339,-2.8339,-2.8339,-2.8339,-2.8446,-2.8459,-2.8345,-2.8956,-2.9286,-2.9173,-2.9678,-2.9982,-2.9982,-2.9199,-2.8759,-2.8759,-2.798,-2.7884,-2.8412,-2.7986,-2.7826,-2.7931,-2.771,-2.76,-2.7625,-2.7715,-2.7765,-2.7765,-2.7765,-2.7765,-2.7765,-2.765,-2.76,-2.76,-2.76,-2.76,-2.76,-3.4923,-3.4923,-3.4923,-3.4947,-3.4947,-3.4923,-3.4804,-3.478,-3.4715,-3.4594,-3.457,-3.4546,-3.4546,-3.4546,-3.4521,-3.4497,-3.3827,-3.3347,-3.3233,-3.1976,-3.1144,-3.095,-3.0411,-3.0021,-2.9918,-2.9902,-2.9924,-2.9924,-2.9924,-2.9924,-2.9902,-2.9902,-2.9902,-2.988,-2.9786,-2.9742,-2.972,-2.9608,-2.9541,-2.9518,-2.9518,-2.945,-2.9328,-2.9328,-2.9259,-2.9144,-2.9144,-2.9075,-2.8943,-2.8873,-2.8842,-2.8842,-2.8842,-2.8842,-2.8803,-2.8803,-2.8818,-2.8747,-2.8532,-2.8444,-2.8411,-2.8168,-2.8079,-2.8054,-2.7955,-2.8113,-2.8235,-2.8103,-2.8079,-2.8103,-2.821,-2.8235,-2.8235,-2.8235,-2.8235,-2.8186,-2.8054,-2.8054,-2.8054,-2.8054,-2.8054,-2.8054,-2.8054,-2.8586,-2.8921,-2.8895,-2.9518,-2.9883,-2.9871,-2.9845,-2.9837,-2.9837,-2.9057,-2.8618,-2.8618,-2.7944,-2.7645,-2.7735,-2.767,-2.794,-2.8468,-2.7869,-2.76,-2.76,-2.7625,-2.7625,-2.7625,-2.7625,-2.7625,-2.7625,-2.7625,-2.76,-2.76,-2.76,-2.76,-2.76,-3.4683,-3.4683,-3.4683,-3.4683,-3.4683,-3.4659,-3.4594,-3.4594,-3.457,-3.4497,-3.4497,-3.4497,-3.4497,-3.4423,-3.4349,-3.4275,-3.3575,-3.2959,-3.2553,-3.1494,-3.0703,-3.0248,-2.9948,-2.9764,-2.9675,-2.9675,-2.9675,-2.9675,-2.9764,-2.9742,-2.9675,-2.9675,-2.9675,-2.9675,-2.9608,-2.9586,-2.9586,-2.9518,-2.9473,-2.9389,-2.9389,-2.9259,-2.9082,-2.9082,-2.9029,-2.8944,-2.8944,-2.8834,-2.8724,-2.8708,-2.8652,-2.858,-2.858,-2.8532,-2.8468,-2.8468,-2.8372,-2.8226,-2.8103,-2.8014,-2.7915,-2.7705,-2.7655,-2.759,-2.7357,-2.7316,-2.7433,-2.7715,-2.779,-2.779,-2.785,-2.785,-2.785,-2.785,-2.785,-2.785,-2.779,-2.779,-2.7901,-2.8237,-2.8282,-2.8432,-2.8798,-2.9162,-2.9354,-2.9275,-2.9907,-3.0255,-3.0158,-3.0393,-3.0517,-3.0517,-2.9451,-2.8916,-2.8997,-2.7995,-2.7539,-2.76,-2.76,-2.7764,-2.8034,-2.7735,-2.76,-2.76,-2.76,-2.76,-2.76,-2.76,-2.76,-2.76,-2.76,-2.76,-2.76,-2.76,-2.76,-2.76]},{"header":{"parameterUnit":"m.s-1","parameterCategory":1,"la1":30.6,"la2":28.766,"lo1":-90.7593,"lo2":-88.6598,"dy":0.0162,"dx":0.0183,"nx":116,"ny":114,"refTime":"2023-09-04T00:00:00:Z","depth":0,"parameterNumber":3,"parameterNumberName":"V-component_of_WINDS"},"data":[0.0,0.0,0.0,0.0,0.0,0.0,0.0,0.0,0.0,0.0,0.0,0.0,0.0,0.0,0.0,0.0,0.0,0.0,0.0,0.0,0.0,0.0,0.0,0.0,0.0,0.0,0.0,0.0,0.0,0.0,0.0,0.0,0.0,0.0,0.0,0.0,0.0,0.0,0.0,0.0,0.0,0.0,0.0,0.0,0.0,0.0,0.0,0.0,0.0,0.0,0.0,0.0,0.0,0.0,0.0,0.0,0.0,0.0,0.0,0.0,0.0,0.0,0.0,0.0,0.0,0.0,0.0,0.0,0.0,0.0,0.0,0.0,0.0,0.0,0.0,0.0,0.0,0.0,0.0,0.0,0.0,0.0,0.0,0.0,0.0,0.0,0.0,0.0,0.0,0.0,0.0,0.0,0.0,0.0,0.0,0.0,0.0,0.0,0.0,0.0,0.0,0.0,0.0,0.0,0.0,0.0,0.0,0.0,0.0,0.0,0.0,0.0,0.0,0.0,0.0,0.0,0.0,0.0,0.0,0.0,0.0,0.0,0.0,0.0,0.0,0.0,0.0,0.0,0.0,0.0,0.0,0.0,0.0,0.0,0.0,0.0,0.0,0.0,0.0,0.0,0.0,0.0,0.0,0.0,0.0,0.0,0.0,0.0,0.0,0.0,0.0,0.0,0.0,0.0,0.0,0.0,0.0,0.0,0.0,0.0,0.0,0.0,0.0,0.0,0.0,0.0,0.0,0.0,0.0,0.0,0.0,0.0,0.0,0.0,0.0,0.0,0.0,0.0,0.0,0.0,0.0,0.0,0.0,0.0,0.0,0.0,0.0,0.0,0.0,0.0,0.0,0.0,0.0,0.0,0.0,0.0,0.0,0.0,0.0,0.0,0.0,0.0,0.0,0.0,0.0,0.0,0.0,0.0,0.0,0.0,0.0,0.0,0.0,0.0,0.0,0.0,0.0,0.0,0.0,0.0,0.0,0.0,0.0,0.0,0.0,0.0,0.0,0.0,0.0,0.0,0.0,0.0,0.0,0.0,0.0,0.0,0.0,0.0,0.0,0.0,0.0,0.0,0.0,0.0,0.0,0.0,0.0,0.0,0.0,0.0,0.0,0.0,0.0,0.0,0.0,0.0,0.0,0.0,0.0,0.0,0.0,0.0,0.0,0.0,0.0,0.0,0.0,0.0,0.0,0.0,0.0,0.0,0.0,0.0,0.0,0.0,0.0,0.0,0.0,0.0,0.0,0.0,0.0,0.0,0.0,0.0,0.0,0.0,0.0,0.0,0.0,0.0,0.0,0.0,0.0,0.0,0.0,0.0,0.0,0.0,0.0,0.0,0.0,0.0,0.0,0.0,0.0,0.0,0.0,0.0,0.0,0.0,0.0,0.0,0.0,0.0,0.0,0.0,0.0,0.0,0.0,0.0,0.0,0.0,0.0,0.0,0.0,0.0,0.0,0.0,0.0,0.0,0.0,0.0,0.0,0.0,0.0,0.0,0.0,0.0,0.0,0.0,0.0,0.0,0.0,0.0,0.0,0.0,0.0,0.0,0.0,0.0,0.0,0.0,0.0,0.0,0.0,0.0,0.0,0.0,0.0,0.0,0.0,0.0,0.0,0.0,0.0,0.0,0.0,0.0,0.0,0.0,0.0,0.0,0.0,0.0,0.0,0.0,0.0,0.0,0.0,0.0,0.0,0.0,0.0,0.0,0.0,0.0,0.0,0.0,0.0,0.0,0.0,0.0,0.0,0.0,0.0,0.0,0.0,0.0,0.0,0.0,0.0,0.0,0.0,0.0,0.0,0.0,0.0,0.0,0.0,0.0,0.0,0.0,0.0,0.0,0.0,0.0,0.0,0.0,0.0,0.0,0.0,0.0,0.0,0.0,0.0,0.0,0.0,0.0,0.0,0.0,0.0,0.0,0.0,0.0,0.0,0.0,0.0,0.0,0.0,0.0,0.0,0.0,0.0,0.0,0.0,0.0,0.0,0.0,0.0,0.0,0.0,0.0,0.0,0.0,0.0,0.0,0.0,0.0,0.0,0.0,0.0,0.0,0.0,0.0,0.0,0.0,0.0,0.0,0.0,0.0,0.0,0.0,0.0,0.0,0.0,0.0,0.0,0.0,0.0,0.0,0.0,0.0,0.0,0.0,0.0,0.0,0.0,0.0,0.0,0.0,0.0,0.0,0.0,0.0,0.0,0.0,0.0,0.0,0.0,0.0,0.0,0.0,0.0,0.0,0.0,0.0,0.0,0.0,0.0,0.0,0.0,0.0,0.0,0.0,0.0,0.0,0.0,0.0,0.0,0.0,0.0,0.0,0.0,0.0,0.0,0.0,0.0,0.0,0.0,0.0,0.0,0.0,0.0,0.0,0.0,0.0,0.0,0.0,0.0,0.0,0.0,0.0,0.0,0.0,0.0,0.0,0.0,0.0,0.0,0.0,0.0,0.0,0.0,0.0,0.0,0.0,0.0,0.0,0.0,0.0,0.0,0.0,0.0,0.0,0.0,0.0,0.0,0.0,0.0,0.0,0.0,0.0,0.0,0.0,0.0,0.0,0.0,0.0,0.0,0.0,0.0,0.0,0.0,0.0,0.0,0.0,0.0,0.0,0.0,0.0,0.0,0.0,0.0,0.0,0.0,0.0,0.0,0.0,0.0,0.0,0.0,0.0,0.0,0.0,0.0,0.0,0.0,0.0,0.0,0.0,0.0,0.0,0.0,0.0,0.0,0.0,0.0,0.0,0.0,0.0,0.0,0.0,0.0,0.0,0.0,0.0,0.0,0.0,0.0,0.0,0.0,0.0,0.0,0.0,0.0,0.0,0.0,0.0,0.0,0.0,0.0,0.0,0.0,0.0,0.0,0.0,0.0,0.0,0.0,0.0,0.0,0.0,0.0,0.0,0.0,0.0,0.0,0.0,0.0,0.0,0.0,0.0,0.0,0.0,0.0,0.0,0.0,0.0,0.0,0.0,0.0,0.0,0.0,0.0,0.0,0.0,0.0,0.0,0.0,0.0,0.0,0.0,0.0,0.0,0.0,0.0,0.0,0.0,0.0,0.0,0.0,0.0,0.0,0.0,0.0,0.0,0.0,0.0,0.0,0.0,0.0,0.0,0.0,0.0,0.0,0.0,0.0,0.0,0.0,0.0,0.0,0.0,0.0,0.0,0.0,0.0,0.0,0.0,0.0,0.0,0.0,0.0,0.0,0.0,0.0,0.0,0.0,0.0,0.0,0.0,0.0,0.0,0.0,0.0,0.0,0.0,0.0,0.0,0.0,0.0,0.0,0.0,0.0,0.0,0.0,0.0,0.0,0.0,0.0,0.0,0.0,0.0,0.0,0.0,0.0,0.0,0.0,0.0,0.0,0.0,0.0,0.0,0.0,0.0,0.0,0.0,0.0,0.0,0.0,0.0,0.0,0.0,0.0,0.0,0.0,0.0,0.0,0.0,0.0,0.0,0.0,0.0,0.0,0.0,0.0,0.0,0.0,0.0,0.0,0.0,0.0,0.0,0.0,0.0,0.0,0.0,0.0,0.0,0.0,0.0,0.0,0.0,0.0,0.0,0.0,0.0,0.0,0.0,0.0,0.0,0.0,0.0,0.0,0.0,0.0,0.0,0.0,0.0,0.0,0.0,0.0,0.0,0.0,0.0,0.0,0.0,0.0,0.0,0.0,0.0,0.0,0.0,0.0,0.0,0.0,0.0,0.0,0.0,0.0,0.0,0.0,0.0,0.0,0.0,0.0,0.0,0.0,0.0,0.0,0.0,0.0,0.0,0.0,0.0,0.0,0.0,0.0,0.0,0.0,0.0,0.0,0.0,0.0,0.0,0.0,0.0,0.0,0.0,0.0,0.0,0.0,0.0,0.0,0.0,0.0,0.0,0.0,0.0,0.0,0.0,0.0,0.0,0.0,0.0,0.0,0.0,0.0,0.0,0.0,0.0,0.0,0.0,0.0,0.0,0.0,0.0,0.0,0.0,0.0,0.0,0.0,0.0,0.0,0.0,0.0,0.0,0.0,0.0,0.0,0.0,0.0,0.0,0.0,0.0,0.0,0.0,0.0,0.0,0.0,0.0,0.0,0.0,0.0,0.0,0.0,0.0,0.0,0.0,0.0,0.0,0.0,0.0,0.0,0.0,0.0,0.0,0.0,0.0,0.0,0.0,0.0,0.0,0.0,0.0,0.0,0.0,0.0,0.0,0.0,0.0,0.0,0.0,0.0,0.0,0.0,0.0,0.0,0.0,0.0,0.0,0.0,0.0,0.0,0.0,0.0,0.0,0.0,0.0,0.0,0.0,0.0,0.0,0.0,0.0,0.0,0.0,0.0,0.0,0.0,0.0,0.0,0.0,0.0,0.0,0.0,0.0,0.0,0.0,0.0,0.0,0.0,0.0,0.0,0.0,0.0,0.0,0.0,0.0,0.0,0.0,0.0,0.0,0.0,0.0,0.0,0.0,0.0,0.0,0.0,0.0,0.0,0.0,0.0,0.0,0.0,0.0,0.0,0.0,0.0,0.0,0.0,0.0,0.0,0.0,0.0,0.0,0.0,0.0,0.0,0.0,0.0,0.0,0.0,0.0,0.0,0.0,0.0,0.0,0.0,0.0,0.0,0.0,0.0,0.0,0.0,0.0,0.0,0.0,0.0,0.0,0.0,0.0,0.0,0.0,0.0,0.0,0.0,0.0,0.0,0.0,0.0,0.0,0.0,0.0,0.0,0.0,0.0,0.0,0.0,0.0,0.0,0.0,0.0,0.0,0.0,0.0,0.0,0.0,0.0,0.0,0.0,0.0,0.0,0.0,0.0,0.0,0.0,0.0,0.0,0.0,0.0,0.0,0.0,0.0,0.0,0.0,0.0,0.0,0.0,0.0,0.0,0.0,0.0,0.0,0.0,0.0,0.0,0.0,0.0,0.0,0.0,0.0,0.0,0.0,0.0,0.0,0.0,0.0,0.0,0.0,0.0,0.0,0.0,0.0,0.0,0.0,0.0,0.0,0.0,0.0,0.0,0.0,0.0,0.0,0.0,0.0,0.0,0.0,0.0,0.0,0.0,0.0,0.0,0.0,0.0,0.0,0.0,0.0,0.0,0.0,0.0,0.0,0.0,0.0,0.0,0.0,0.0,0.0,0.0,0.0,0.0,0.0,0.0,0.0,0.0,0.0,0.0,0.0,0.0,0.0,0.0,0.0,0.0,0.0,0.0,0.0,0.0,0.0,0.0,0.0,0.0,0.0,0.0,0.0,0.0,0.0,0.0,0.0,0.0,0.0,0.0,0.0,0.0,0.0,0.0,0.0,0.0,0.0,0.0,0.0,0.0,0.0,0.0,0.0,0.0,0.0,0.0,0.0,0.0,0.0,0.0,0.0,0.0,0.0,0.0,0.0,0.0,0.0,0.0,0.0,0.0,0.0,0.0,0.0,0.0,0.0,0.0,0.0,0.0,0.0,0.0,0.0,0.0,0.0,0.0,0.0,0.0,0.0,0.0,0.0,0.0,0.0,0.0,0.0,0.0,0.0,0.0,0.0,0.0,0.0,0.0,0.0,0.0,0.0,0.0,0.0,0.0,0.0,0.0,0.0,0.0,0.0,0.0,0.0,0.0,0.0,0.0,0.0,0.0,0.0,0.0,0.0,0.0,0.0,0.0,0.0,0.0,0.0,0.0,0.0,0.0,0.0,0.0,0.0,0.0,0.0,0.0,0.0,0.0,0.0,0.0,0.0,0.0,0.0,0.0,0.0,0.0,0.0,0.0,0.0,0.0,0.0,0.0,0.0,0.0,0.0,0.0,0.0,0.0,0.0,0.0,0.0,0.0,0.0,0.0,0.0,0.0,0.0,0.0,0.0,0.0,0.0,0.0,0.0,0.0,0.0,0.0,0.0,0.0,0.0,0.0,0.0,0.0,0.0,0.0,0.0,0.0,0.0,0.0,0.0,0.0,0.0,0.0,0.0,0.0,0.0,0.0,0.0,0.0,0.0,0.0,0.0,0.0,0.0,0.0,0.0,0.0,0.0,0.0,0.0,0.0,0.0,0.0,0.0,0.0,0.0,0.0,0.0,0.0,0.0,0.0,0.0,0.0,0.0,0.0,0.0,0.0,0.0,-0.9662,0.0,0.0,0.0,0.0,0.0,0.0,0.0,0.0,0.0,0.0,0.0,0.0,0.0,0.0,0.0,0.0,0.0,0.0,0.0,0.0,0.0,0.0,0.0,0.0,0.0,0.0,0.0,0.0,0.0,0.0,0.0,0.0,0.0,0.0,0.0,0.0,0.0,0.0,0.0,2.0871,2.0612,2.0159,2.0194,2.0407,2.0775,0.0,0.0,0.0,0.0,0.0,0.0,0.0,0.0,0.0,0.0,0.0,0.0,0.0,0.0,0.0,0.0,0.0,0.0,0.0,0.0,0.0,0.0,0.0,0.0,0.0,0.0,0.0,0.0,0.0,0.0,0.0,0.0,0.0,0.0,0.0,0.0,0.0,0.0,0.0,0.0,0.0,0.0,0.0,0.0,0.0,0.0,0.0,0.0,0.0,0.0,0.0,0.0,0.0,0.0,0.0,0.0,0.0,0.0,0.0,0.0,0.0,0.0,0.0,0.0,0.0,0.0,0.0,0.0,0.0,0.0,0.0,-0.9671,0.0,0.0,0.0,0.0,0.0,0.0,0.0,0.0,0.0,0.0,0.0,0.0,0.0,0.0,0.0,0.0,0.0,0.0,0.0,0.0,0.0,0.0,0.0,1.8665,1.8834,1.9063,1.9063,1.9103,0.0,0.0,0.0,0.0,0.0,0.0,0.0,2.0069,2.0186,2.0362,2.0362,2.0188,1.9792,1.9435,1.96,2.0159,2.0471,0.0,0.0,0.0,0.0,0.0,0.0,0.0,0.0,0.0,0.0,0.0,0.0,0.0,0.0,0.0,0.0,0.0,0.0,0.0,0.0,0.0,0.0,0.0,0.0,0.0,0.0,0.0,0.0,0.0,0.0,0.0,0.0,0.0,0.0,0.0,0.0,0.0,0.0,0.0,0.0,0.0,0.0,0.0,0.0,0.0,0.0,0.0,0.0,0.0,0.0,0.0,0.0,0.0,0.0,0.0,0.0,0.0,0.0,0.0,0.0,0.0,0.0,0.0,-0.6041,-0.626,-0.6707,-0.6877,-0.736,-0.8049,-0.8742,-0.9252,-0.9599,0.0,0.0,0.0,0.0,0.0,0.0,0.0,0.0,0.0,0.0,0.0,0.0,0.0,0.0,0.0,0.0,0.0,0.0,0.0,0.0,0.0,0.0,1.7749,1.7942,1.8152,1.8152,1.8273,1.8514,0.0,0.0,0.0,0.0,0.0,1.9161,1.9161,1.9271,1.946,1.946,1.9432,1.9376,1.9487,1.9437,1.9184,1.9591,1.9733,1.9725,0.0,0.0,0.0,0.0,0.0,0.0,0.0,0.0,0.0,0.0,0.0,0.0,0.0,0.0,0.0,0.0,0.0,0.0,0.0,0.0,0.0,0.0,0.0,0.0,0.0,0.0,0.0,0.0,0.0,0.0,0.0,0.0,0.0,0.0,0.0,0.0,0.0,0.0,0.0,0.0,0.0,0.0493,0.0179,0.0,0.0,0.0,0.0,0.0,0.0,0.0,0.0,0.0,0.0,0.0,0.0,0.0,-0.5144,-0.5416,-0.5599,-0.5733,-0.5733,-0.5733,-0.5908,-0.6216,-0.6387,-0.6786,-0.7272,-0.7756,0.0,-0.9606,-0.9811,0.0,0.0,0.0,0.0,0.0,0.0,0.0,0.0,0.0,0.0,0.0,0.0,0.0,0.0,0.0,0.0,0.0,0.0,0.0,0.0,0.0,1.6738,1.6935,1.7221,1.7261,1.7302,1.7424,1.7587,0.0,0.0,0.0,1.8233,1.8434,1.8442,1.8474,1.8585,1.8714,1.8794,1.8794,1.9121,1.918,1.9006,1.9308,1.938,1.9269,1.9372,0.0,0.0,0.0,0.0,0.0,0.0,0.0,0.0,0.0,0.0,0.0,0.0,0.0,0.0,0.0,0.0,0.0,0.0,0.0,0.0,0.0,0.0,0.0,0.0,0.0,0.0,0.0,0.0,0.0,0.0,0.0,0.0,0.0,0.0,0.0,0.0,0.0,0.0,0.0,0.0045,-0.0359,-0.0762,-0.1121,-0.13,0.0,0.0,0.0,0.0,0.0,0.0,0.0,0.0,0.0,-0.4478,-0.4701,-0.4924,-0.5191,-0.5416,-0.5597,-0.5688,-0.5688,-0.5777,-0.5863,-0.6127,-0.6387,-0.6741,-0.7187,-0.7939,-0.8867,-0.9345,-0.9638,-0.9766,0.0,0.0,0.0,0.0,-1.0686,-1.0487,0.0,0.0,0.0,0.0,0.0,0.0,0.0,0.0,0.0,0.0,0.0,0.0,1.5554,1.5696,1.5876,1.6236,1.6347,1.6402,1.6443,1.6689,1.6935,0.0,1.7343,1.7497,1.7668,1.7627,1.7587,1.7587,1.7829,1.8031,1.8152,1.8563,1.8803,1.8843,1.9073,1.9136,1.9102,1.9252,1.9301,1.9262,0.0,0.0,0.0,0.0,0.0,0.0,0.0,0.0,0.0,0.0,0.0,0.0,0.0,0.0,0.0,0.0,0.0,0.0,0.0,0.0,0.0,0.0,0.0,0.0,0.0,0.0,0.0,0.0,0.0,0.0,0.0,0.0,0.0,0.0,0.0,0.0,0.0,-0.0852,-0.1121,-0.157,-0.1884,-0.2062,0.0,0.0,0.0,0.0,0.0,0.0,-0.3678,-0.3832,-0.4066,-0.4334,-0.4606,-0.4831,-0.5006,-0.5295,-0.5508,-0.5688,-0.5688,-0.5688,-0.5688,-0.5908,-0.6127,-0.6343,-0.6741,-0.736,-0.8065,-0.8863,-0.9345,-0.9689,-1.0381,-1.054,-1.0441,-1.0911,-1.0929,-1.0683,0.0,0.0,0.0,0.0,0.0,0.0,0.0,0.0,0.0,0.0,0.0,1.3919,1.4342,1.4607,1.4871,1.505,1.53,1.5567,1.5733,1.5997,1.6245,1.6435,1.6648,1.6771,1.6779,1.6558,1.6476,1.6476,1.6689,1.7017,1.7473,1.7878,1.8201,1.8442,1.8652,1.8953,1.9274,1.9292,1.9301,1.9262,1.8851,0.0,0.0,0.0,0.0,0.0,0.0,0.0,0.0,0.0,0.0,0.0,0.0,0.0,0.0,0.0,0.0,0.0,0.0,0.0,0.0,0.0,0.0,0.0,0.0,0.0,0.0,0.0,0.0,0.0,0.0,0.0,0.0,0.0,0.0,0.0,0.0,0.0,0.0,-0.2109,-0.2555,0.0,0.0,0.0,0.0,-0.3544,-0.3542,-0.3678,-0.3859,-0.4017,-0.4196,-0.4382,-0.466,-0.489,-0.5115,-0.5288,-0.5508,-0.5688,-0.5688,-0.5688,-0.5688,-0.5733,-0.5863,-0.6127,-0.6343,-0.6871,-0.7621,-0.8556,-0.917,-0.9689,-1.0424,-1.0679,-1.0712,-1.1154,-1.1176,-1.0966,0.0,0.0,0.0,0.0,0.0,0.0,0.0,0.0,1.1542,1.21,1.2307,1.2671,1.3402,1.3385,1.3568,1.4102,1.4247,1.4393,1.4671,1.4901,1.511,1.5318,1.536,1.5401,1.5401,1.536,1.5401,1.5582,1.5906,1.6312,1.6771,1.7351,1.7708,1.7942,1.8161,1.8322,1.8474,1.8803,1.8922,1.8882,1.8612,1.8523,0.0,0.0,0.0,0.0,0.0,0.0,0.0,0.0,0.0,0.0,0.0,0.0,0.0,0.0,0.0,0.0,0.0,0.0,0.0,0.0,0.0,0.0,0.0,0.0,0.0,0.0,0.0,0.0,0.0,0.0,0.0,0.0,0.0,0.0,0.0,0.0,0.0,-0.278,-0.3002,0.0,0.0,-0.3497,-0.3607,-0.3656,-0.3841,-0.3954,-0.41,-0.4317,-0.4475,-0.4524,-0.4618,-0.4757,-0.4987,-0.5234,-0.5449,-0.5686,-0.5869,-0.5961,-0.5958,-0.588,-0.5887,-0.5972,-0.629,-0.6738,-0.7316,-0.8285,-0.8995,-0.9476,-1.0342,-1.0684,-1.0727,-1.1127,-1.1252,-1.1177,0.0,0.0,0.0,0.0,0.0,0.0,0.0,0.0,1.0419,1.1111,1.1212,1.1538,1.2314,1.2258,1.2456,1.3056,1.3201,1.3376,1.3613,1.3802,1.3977,1.4097,1.423,1.423,1.4146,1.423,1.4363,1.4538,1.5026,1.5519,1.6064,1.6697,1.7098,1.7375,1.7505,1.7546,1.7587,1.7878,1.821,1.8451,1.8233,1.8152,1.8072,0.0,0.0,0.0,0.0,0.0,0.0,0.0,0.0,0.0,0.0,0.0,0.0,0.0,0.0,0.0,0.0,0.0,0.0,0.0,0.0,0.0,0.0,0.0,0.0,0.0,0.0,0.0,0.0,0.0,0.0,0.0,0.0,0.0,0.0,0.0,-0.2782,-0.3138,-0.3272,-0.3452,-0.3678,-0.3791,-0.3872,-0.3926,-0.4139,-0.4272,-0.433,-0.4504,-0.4618,-0.4618,-0.4618,-0.476,-0.4947,-0.5204,-0.5424,-0.5713,-0.5992,-0.6086,-0.6083,-0.6002,-0.5964,-0.6005,-0.6334,-0.6722,-0.7258,-0.822,-0.8859,-0.9393,-1.0207,-1.0641,-1.0727,-1.1089,-1.1224,-1.1305,0.0,0.0,0.0,0.0,0.0,0.0,0.0,0.8947,0.9476,1.0164,1.0231,1.0471,1.1099,1.1255,1.149,1.184,1.2161,1.2421,1.2644,1.2833,1.296,1.296,1.3173,1.3222,1.296,1.3222,1.3355,1.3355,1.4019,1.4685,1.5394,1.5831,1.6286,1.6656,1.6656,1.6656,1.6656,1.6656,1.7139,1.791,1.774,1.7659,1.7619,0.0,0.0,0.0,0.0,0.0,0.0,0.0,0.0,0.0,0.0,0.0,0.0,0.0,0.0,0.0,0.0,0.0,0.0,0.0,0.0,0.0,0.0,0.0,0.0,0.0,0.0,0.0,0.0,0.0,0.0,0.0,0.0,0.0,-0.2424,-0.2739,-0.2963,-0.3186,-0.3456,-0.3681,-0.3911,-0.4207,-0.4394,-0.4396,-0.4526,-0.4625,-0.4629,-0.4665,-0.4712,-0.4712,-0.4712,-0.481,-0.5096,-0.5245,-0.5434,-0.5676,-0.5958,-0.6097,-0.6097,-0.6092,-0.6092,-0.6133,-0.647,-0.6871,-0.7363,-0.823,-0.8867,-0.9354,-1.0038,-1.0467,-1.0727,-1.0916,-1.1138,-1.1305,0.0,0.0,0.0,0.0,0.0,0.0,0.0,0.7893,0.8464,0.917,0.9174,0.9352,1.0156,1.005,1.0178,1.0882,1.1057,1.1274,1.1643,1.1752,1.1709,1.1542,1.1757,1.1757,1.1542,1.1757,1.2143,1.2662,1.313,1.3844,1.4685,1.4943,1.5325,1.5767,1.5767,1.5767,1.5767,1.5767,1.5891,1.618,1.6722,1.6976,1.6935,0.0,0.0,0.0,0.0,0.0,0.0,0.0,0.0,0.0,0.0,0.0,0.0,0.0,0.0,0.0,0.0,0.0,0.0,0.0,0.0,0.0,0.0,0.0,0.0,0.0,0.0,0.0,0.0,0.0,0.0,0.0,0.0,-0.1974,-0.2424,-0.2739,-0.307,-0.3526,-0.3623,-0.3875,-0.4354,-0.4473,-0.4561,-0.4628,-0.4657,-0.4698,-0.4759,-0.4785,-0.475,-0.475,-0.475,-0.48,-0.4897,-0.5122,-0.5358,-0.5652,-0.5898,-0.6145,-0.6336,-0.6255,-0.6268,-0.6259,-0.6608,-0.7016,-0.7559,-0.8185,-0.8841,-0.9504,-1.0095,-1.0467,-1.0727,-1.0916,-1.1138,-1.1305,0.0,0.0,0.0,0.0,0.0,0.0,0.0,0.7143,0.7632,0.8336,0.8366,0.8591,0.9291,0.9158,0.9331,0.9989,1.0111,1.0355,1.0745,1.0766,1.0679,1.0598,1.0684,1.0684,1.0598,1.0852,1.1241,1.1628,1.2272,1.2954,1.3675,1.4019,1.444,1.4977,1.4977,1.5019,1.511,1.511,1.511,1.5151,1.565,1.5982,1.6105,1.5699,1.5395,1.5109,1.4466,1.3667,1.2882,1.2658,0.0,0.0,0.0,0.0,0.0,0.0,0.0,0.0,0.0,0.0,0.0,0.0,0.0,0.0,0.0,0.0,0.0,0.0,0.0,0.0,0.0,0.0,0.0,0.0,-0.1582,-0.2136,-0.2636,-0.2863,-0.315,-0.365,-0.3728,-0.3953,-0.4567,-0.4608,-0.4651,-0.4704,-0.4741,-0.4783,-0.4782,-0.4784,-0.4784,-0.4784,-0.4784,-0.4784,-0.4784,-0.5087,-0.529,-0.5438,-0.5839,-0.6092,-0.6237,-0.6319,-0.6339,0.0,-0.6597,-0.7016,-0.7573,-0.8123,-0.88,0.0,0.0,0.0,0.0,0.0,-1.1138,-1.1305,0.0,0.0,0.0,0.0,0.0,0.0,0.0,0.6435,0.683,0.7562,0.7716,0.7963,0.8401,0.8537,0.8751,0.9145,0.9396,0.9648,0.9893,0.9907,0.9864,0.9864,0.9864,0.9864,0.9864,1.025,1.0506,1.0549,1.1413,1.21,1.2619,1.3052,1.3603,1.4272,1.4272,1.4398,1.4573,1.4573,1.4608,1.4608,1.4608,1.4901,1.5269,1.4817,1.4689,1.4673,1.4025,1.3499,1.3094,1.2871,0.0,0.0,0.0,0.0,0.0,0.0,0.0,0.0,0.0,0.0,0.0,0.0,0.0,0.0,0.0,0.0,0.0,0.0,0.0,0.0,0.0,0.0,0.0,0.0,-0.1743,-0.2367,-0.2876,-0.2974,-0.3166,-0.3632,-0.3739,-0.3973,-0.4506,-0.4627,-0.4673,-0.4724,-0.4742,-0.4784,-0.4784,0.0,0.0,0.0,0.0,-0.4784,-0.4784,-0.5037,-0.519,-0.519,-0.5691,-0.5942,-0.5942,-0.6187,-0.6287,-0.6331,-0.6522,-0.6866,-0.744,-0.8055,-0.873,-0.9473,-0.9656,-0.9984,-1.042,-1.084,-1.1138,-1.1305,0.0,0.0,0.0,0.0,0.0,0.0,0.0,0.5322,0.5642,0.6498,0.6632,0.6808,0.7335,0.7736,0.815,0.8528,0.8844,0.9127,0.9423,0.9213,0.9038,0.8899,0.8855,0.8855,0.8855,0.934,0.982,1.0381,1.0722,1.1284,1.2143,1.2229,1.2662,1.3349,1.3349,1.3561,1.3899,1.3899,1.4033,1.4208,1.4208,1.4454,1.4776,1.437,1.4359,1.4455,1.3789,1.3421,1.3129,1.2907,1.2117,1.1308,1.1308,0.0,0.0,0.0,0.0,0.0,0.0,0.0,0.0,0.0,0.0,0.0,0.0,0.0,0.0,0.0,0.0,0.0,0.0,0.0,0.0,-0.0987,-0.175,-0.2371,-0.2652,-0.2928,-0.3202,-0.3494,-0.3555,-0.378,-0.4384,-0.4455,-0.4564,-0.476,-0.4774,-0.4784,-0.4784,-0.4784,0.0,-0.4784,-0.4784,-0.4784,-0.4784,-0.4834,-0.4987,-0.519,0.0,0.0,-0.5687,-0.5737,-0.5734,-0.5784,-0.6263,-0.6752,-0.7288,-0.7969,-0.8831,-0.9764,-1.021,-1.0607,-1.0899,-1.0989,-1.1138,-1.1305,0.0,0.0,0.0,0.0,0.0,0.0,0.0,0.4612,0.5019,0.5556,0.59,0.6267,0.6612,0.7108,0.7597,0.8008,0.8476,0.8762,0.8767,0.8644,0.8468,0.8245,0.8245,0.8288,0.8416,0.8771,0.9165,0.9602,1.0077,1.0593,1.1154,1.137,1.1886,1.2534,1.2534,1.2881,1.3398,1.3398,1.3525,1.3743,1.3743,1.3864,1.4026,1.3822,1.3868,1.3945,1.3595,1.3355,1.3168,1.3168,1.2458,1.1642,1.1642,1.131,1.0768,0.0,0.0,0.0,0.0,0.0,0.0,0.0,0.0,0.0,0.0,0.0,0.0,0.0,0.0,0.1904,0.0,0.0,-0.0424,-0.119,-0.1779,-0.2275,-0.261,-0.2802,-0.3074,-0.3439,-0.3515,-0.3798,-0.4334,-0.4388,-0.4487,-0.4784,-0.4784,-0.4784,-0.4784,-0.4784,-0.4784,-0.4784,-0.4784,-0.4784,-0.4784,-0.4784,-0.4885,-0.4987,-0.514,-0.529,-0.5388,-0.5536,-0.5586,-0.5636,-0.6037,-0.6489,-0.7086,-0.8396,-0.9385,-1.0149,-1.0566,-1.0868,-1.1019,-1.0996,-1.1146,-1.1305,0.0,0.0,0.0,0.0,0.0,0.0,0.0,0.3987,0.444,0.471,0.5257,0.5767,0.5934,0.6525,0.7087,0.7567,0.8115,0.8384,0.8157,0.8113,0.7984,0.7812,0.7812,0.7896,0.8069,0.8328,0.8596,0.8819,0.9428,0.9864,1.0164,1.0593,1.1154,1.1714,1.18,1.2192,1.2881,1.2881,1.3052,1.3264,1.3264,1.3222,1.3222,1.3222,1.3305,1.341,1.3366,1.3216,1.3091,1.3208,1.271,1.198,1.1932,1.1536,1.0965,1.0316,0.978,0.0,0.0,0.0,0.0,0.0,0.0,0.0,0.0,0.0,0.3022,0.3022,0.2403,0.1719,0.1198,0.0288,-0.0624,-0.135,-0.176,-0.2172,-0.2564,-0.2749,-0.2961,-0.3412,-0.3501,-0.3736,-0.4288,-0.4338,-0.4437,-0.4784,-0.4784,-0.4784,-0.4784,-0.4784,-0.4784,-0.4784,-0.4784,-0.4784,-0.4784,-0.4784,-0.4784,-0.4784,-0.5037,-0.514,-0.514,-0.5336,-0.5436,-0.5486,-0.5889,-0.6442,-0.7141,-0.8882,-0.992,-1.0444,-1.0826,-1.1002,-1.1021,-1.1066,-1.1251,-1.1445,0.0,0.0,0.0,0.0,0.0,0.0,0.0,0.0,0.3358,0.4029,0.4331,0.4661,0.5087,0.5692,0.6402,0.7257,0.7748,0.7988,0.7944,0.7724,0.7547,0.7551,0.7551,0.7551,0.7595,0.7856,0.8204,0.8636,0.8723,0.9074,0.9689,0.9994,1.0337,1.0766,1.1025,1.1499,1.21,1.21,1.2357,1.279,1.279,1.2662,1.2491,1.2491,1.2793,1.3113,1.2869,1.2807,1.2783,1.2587,1.2273,1.198,1.1731,1.1292,1.0752,1.019,0.0,0.9026,0.8042,0.6795,0.0,0.4669,0.4111,0.3695,0.0,0.0,0.3086,0.3086,0.2475,0.1726,0.122,0.0293,-0.0591,-0.1151,-0.166,-0.2115,-0.2413,-0.262,-0.2924,-0.3221,-0.3226,-0.3432,-0.3984,-0.4033,-0.4234,-0.4784,-0.4784,-0.4784,-0.4784,-0.4784,-0.4784,-0.4784,-0.4784,-0.4784,-0.4784,-0.4784,-0.4784,-0.4784,-0.4834,-0.4834,-0.4834,-0.4885,-0.4885,-0.4935,-0.5937,-0.6939,-0.7939,-0.913,-0.992,-1.0458,-1.0974,-1.1168,-1.1174,-1.1251,-1.1578,-1.2013,0.0,0.0,0.0,0.0,0.0,0.0,0.0,0.0,0.0,0.3384,0.3825,0.4209,0.445,0.5314,0.61,0.6675,0.7106,0.7356,0.7275,0.7149,0.7017,0.6877,0.6877,0.6925,0.7105,0.7194,0.7496,0.7973,0.8065,0.842,0.903,0.9257,0.9602,1.0033,1.012,1.0549,1.1192,1.1192,1.1456,1.1886,1.1886,1.1843,1.1757,1.1628,1.1608,1.169,1.216,1.2365,0.0,1.2231,1.1918,1.1487,1.1389,1.0904,1.0216,0.9715,0.9098,0.0,0.6951,0.0,0.0,0.0,0.3929,0.3528,0.3431,0.322,0.3102,0.3102,0.2347,0.1581,0.1046,0.005,-0.0801,0.0,-0.1617,-0.192,-0.2321,-0.2472,-0.2725,-0.313,-0.318,-0.343,-0.3932,-0.3982,-0.4234,-0.4784,-0.4784,-0.4784,-0.4784,-0.4784,-0.4784,-0.4784,-0.4784,-0.4784,-0.4784,-0.4784,-0.4784,-0.4784,-0.4784,-0.4784,-0.4784,-0.4784,-0.4985,-0.5286,-0.6084,-0.6986,-0.8088,-0.9179,-0.992,-1.0462,-1.0998,-1.1288,-1.1428,-1.145,-1.1657,-1.1905,0.0,0.0,0.0,0.0,0.0,0.0,0.0,0.0,0.0,0.0,0.3407,0.3802,0.3981,0.4999,0.5705,0.5891,0.6323,0.656,0.6452,0.6452,0.6383,0.6204,0.6189,0.6299,0.6482,0.6482,0.6745,0.718,0.736,0.7713,0.8285,0.8512,0.8863,0.934,0.9388,0.9728,1.0332,1.0332,1.0549,1.0939,1.0939,1.0939,1.0939,1.0679,1.0506,1.0449,1.1342,1.1621,1.1522,1.1517,1.1182,1.084,1.075,1.0178,0.9506,0.9106,0.8396,0.7398,0.592,0.0,0.0,0.4179,0.3761,0.3439,0.3343,0.3231,0.3116,0.3116,0.2348,0.1563,0.1008,0.005,-0.0859,-0.1415,-0.1566,-0.1768,-0.2321,-0.2422,-0.2623,-0.313,-0.318,-0.343,-0.3932,-0.3982,-0.4234,-0.4784,-0.4784,-0.4784,-0.4784,-0.4784,-0.4784,-0.4784,-0.4784,-0.4784,-0.4784,-0.4784,-0.4784,-0.4784,-0.4784,-0.4784,-0.4784,-0.4784,-0.5085,-0.5636,-0.6187,-0.6986,-0.8088,-0.9179,-0.992,-1.0462,-1.0998,-1.134,-1.1521,-1.1659,-1.1779,-1.1916,0.0,0.0,0.0,0.0,0.0,0.0,0.0,0.0,0.0,0.0,0.0,0.0,0.0,0.4482,0.4915,0.4922,0.5309,0.5544,0.5549,0.5619,0.5642,0.5642,0.5706,0.5719,0.5719,0.5719,0.5941,0.6428,0.6428,0.6827,0.7533,0.776,0.8113,0.8636,0.8819,0.917,0.9646,0.9646,0.9777,1.0038,1.0038,1.0038,0.9994,0.9733,0.9646,0.9717,1.0395,1.0522,1.0291,1.0053,0.9943,0.989,0.9546,0.9068,0.0,0.8484,0.7481,0.6255,0.0,0.0,0.4656,0.4032,0.3727,0.3528,0.3275,0.3176,0.3177,0.3177,0.2572,0.1815,0.131,0.0303,-0.0606,-0.1111,-0.1415,-0.1768,-0.2321,-0.2422,-0.2623,-0.313,-0.318,-0.343,0.0,-0.3982,-0.4234,-0.4784,-0.4784,-0.4784,-0.4784,-0.4784,-0.4784,-0.4784,-0.4784,-0.4784,-0.4784,-0.4784,-0.4784,-0.4784,-0.4784,-0.4784,-0.4784,-0.4784,-0.5085,-0.5636,-0.6187,-0.6986,-0.8088,-0.9179,-0.992,-1.0462,-1.0998,-1.1194,-1.1292,-1.1824,-1.216,-1.2398,0.0,0.0,0.0,0.0,0.0,0.0,0.0,0.0,0.0,0.0,0.0,0.0,0.0,0.0,0.0,0.0,0.474,0.4915,0.4949,0.486,0.4796,0.4796,0.4722,0.4688,0.4688,0.4933,0.5191,0.5453,0.5633,0.6077,0.6782,0.6827,0.7224,0.7885,0.7933,0.8241,0.8684,0.8684,0.8811,0.9074,0.9074,0.9074,0.903,0.8596,0.842,0.8384,0.0,0.884,0.9502,0.9109,0.894,0.8886,0.8674,0.8245,0.7744,0.7245,0.6387,0.5532,0.525,0.0,0.4227,0.4,0.3665,0.3332,0.323,0.318,0.318,0.318,0.2573,0.1815,0.131,0.0303,-0.0556,-0.1111,-0.1415,-0.1768,-0.2321,-0.2422,-0.2623,-0.313,-0.318,0.0,0.0,0.0,0.0,-0.4784,-0.4784,-0.4784,-0.4784,-0.4784,-0.4784,-0.4784,-0.4784,-0.4784,-0.4784,-0.4784,-0.4784,-0.4784,-0.4784,-0.4784,-0.4784,-0.4784,-0.5085,-0.5636,-0.6187,-0.6986,-0.8088,-0.8985,-0.9776,-1.0462,-1.0801,-1.1047,-1.1243,-1.1785,-1.2078,-1.2224,0.0,0.0,0.0,0.0,0.0,0.0,0.0,0.0,0.0,0.0,0.0,0.0,0.0,0.0,0.0,0.0,0.0,0.4317,0.4381,0.4212,0.4105,0.4105,0.3982,0.39,0.39,0.4164,0.4385,0.4603,0.4772,0.5188,0.5805,0.5852,0.6296,0.7,0.7088,0.7401,0.7933,0.7933,0.8109,0.8332,0.8332,0.8285,0.8149,0.7713,0.7496,0.0,0.7007,0.7419,0.8177,0.7953,0.7849,0.7788,0.7617,0.7272,0.6833,0.6169,0.5589,0.519,0.509,0.4535,0.3982,0.3982,0.3581,0.318,0.318,0.318,0.318,0.318,0.2623,0.1967,0.1462,0.0454,-0.0455,-0.096,-0.1364,-0.1768,-0.217,-0.2321,-0.2573,-0.3027,-0.313,0.0,0.0,0.0,0.0,-0.4483,-0.4535,-0.4535,-0.4636,-0.4636,-0.4684,-0.4784,-0.4784,-0.4784,-0.4784,-0.4784,-0.4784,-0.4784,-0.4784,-0.4784,-0.4784,-0.4784,-0.5035,-0.5486,-0.6037,-0.6789,-0.7789,-0.8684,-0.9476,-1.0167,-1.0605,-1.09,-1.1145,-1.1785,-1.198,-1.2078,0.0,0.0,0.0,0.0,0.0,0.0,0.0,0.0,0.0,0.0,0.0,0.0,0.0,0.0,0.0,0.0,0.0,0.0,0.3802,0.3643,0.3566,0.3566,0.3438,0.3355,0.3353,0.3428,0.3599,0.3817,0.3846,0.415,0.4641,0.4868,0.5359,0.6068,0.6251,0.6738,0.7445,0.7445,0.758,0.7808,0.7808,0.7672,0.7401,0.7139,0.6922,0.6751,0.6476,0.6343,0.6387,0.6659,0.6716,0.6681,0.6427,0.6149,0.5842,0.534,0.519,0.514,0.4834,0.4383,0.3982,0.3982,0.3581,0.318,0.318,0.318,0.318,0.318,0.2775,0.2219,0.0,0.0,-0.0202,-0.0758,-0.1263,-0.1718,-0.1971,-0.2221,-0.2522,0.0,0.0,0.0,0.0,0.0,0.0,-0.3932,0.0,-0.4135,-0.4388,-0.4388,-0.4537,-0.4784,-0.4784,-0.4784,-0.4784,-0.4784,-0.4784,-0.4784,-0.4784,-0.4784,-0.4784,-0.4784,-0.4937,-0.524,-0.5741,-0.6442,-0.7238,-0.8329,-0.9076,-0.9673,-1.0462,-1.0806,-1.0904,-1.1683,-1.198,-1.2073,0.0,0.0,0.0,0.0,0.0,0.0,0.0,0.0,0.0,0.0,0.0,0.0,0.0,0.0,0.0,0.0,0.0,0.0,0.3565,0.3233,0.3008,0.3008,0.2874,0.2747,0.2582,0.2808,0.2883,0.2799,0.3151,0.3487,0.3805,0.4071,0.4588,0.5275,0.5547,0.5947,0.6479,0.6609,0.6738,0.6786,0.6786,0.6741,0.665,0.6435,0.6305,0.626,0.5997,0.5772,0.568,0.0,0.0,0.0,0.0,0.5521,0.5391,0.524,0.5037,0.4836,0.4587,0.4236,0.3932,0.3734,0.3433,0.318,0.318,0.318,0.313,0.2927,0.2472,0.1866,0.0,0.0,0.0,-0.101,-0.1364,0.0,-0.1971,-0.2221,0.0,0.0,0.0,-0.323,-0.3281,-0.3281,0.0,0.0,-0.3783,-0.4033,-0.4085,-0.4288,-0.4438,-0.4489,-0.4686,-0.4784,-0.4784,-0.4784,-0.4784,-0.4784,-0.4784,-0.4784,-0.4784,-0.4784,-0.4937,-0.524,-0.5539,-0.6139,-0.6942,-0.7633,-0.8474,-0.9369,-0.9965,-1.0462,-1.0904,-1.1683,-1.198,-1.2052,0.0,0.0,0.0,0.0,0.0,0.0,0.0,0.0,0.0,0.0,0.0,0.0,0.0,0.0,0.0,0.0,0.0,0.0,0.0,0.2981,0.2747,0.2668,0.2504,0.2322,0.2123,0.2294,0.232,0.2236,0.2509,0.2748,0.2911,0.3126,0.3594,0.4238,0.4594,0.5061,0.5636,0.5944,0.6074,0.0,0.0,0.6166,0.5944,0.5816,0.5725,0.5591,0.546,0.0,0.0,0.0,0.0,0.5138,0.5138,0.5081,0.5037,0.5037,0.0,0.4585,0.4438,0.4137,0.3784,0.3635,0.3383,0.318,0.3029,0.3029,0.2927,0.2522,0.2018,0.0,0.0,0.0,0.0,0.0,0.0,0.0,-0.1819,-0.207,-0.2322,0.0,-0.2876,0.0,-0.318,-0.318,-0.318,0.0,-0.3482,-0.3682,-0.3833,-0.4086,-0.4286,-0.4388,-0.4636,-0.4784,-0.4784,-0.4784,-0.4784,-0.4784,-0.4784,-0.4784,-0.4784,-0.4784,-0.4885,-0.5037,0.0,-0.5739,-0.6339,-0.6986,-0.7832,-0.8726,-0.9517,-1.0162,-1.0703,-1.1541,-1.1818,-1.1867,0.0,0.0,0.0,0.0,0.0,0.0,0.0,0.0,0.0,0.0,0.0,0.0,0.0,0.0,0.0,0.0,0.0,0.0,0.0,0.0,0.2628,0.2433,0.2235,0.208,0.1848,0.1923,0.1941,0.1901,0.1981,0.2003,0.201,0.2219,0.2583,0.3069,0.3588,0.42,0.49,0.5343,0.5573,0.563,0.5858,0.5727,0.5327,0.0,0.5191,0.501,0.0,0.0,0.0,0.0,0.4784,0.4871,0.4871,0.4846,0.4784,0.4734,0.4585,0.4388,0.4288,0.3937,0.3586,0.3534,0.3332,0.3079,0.2775,0.2674,0.2522,0.1967,0.0,0.0909,0.0354,0.0,-0.096,-0.1212,0.0,-0.1617,-0.1617,-0.1819,-0.2071,-0.2321,-0.2624,-0.2876,-0.313,-0.318,-0.318,-0.318,-0.318,-0.3281,-0.3534,-0.3783,-0.4085,-0.4338,-0.4585,-0.4734,-0.4734,-0.4784,-0.4784,-0.4784,-0.4784,-0.4784,-0.4784,-0.4784,-0.4784,-0.4834,0.0,0.0,-0.5586,-0.6392,-0.7191,-0.7988,-0.9069,-0.9858,-1.0458,-1.1214,-1.1573,-1.1642,0.0,0.0,0.0,0.0,0.0,0.0,0.0,0.0,0.0,0.0,0.174,0.2042,0.0,0.0,0.0,0.0,0.0,0.0,0.0,0.0,0.0,0.2004,0.1964,0.1847,0.165,0.1657,0.1581,0.1422,0.1587,0.1607,0.1433,0.1881,0.2151,0.2326,0.2957,0.3549,0.4104,0.458,0.4932,0.5142,0.5188,0.5144,0.5055,0.5055,0.0,0.0,0.0,0.0,0.0,0.0,0.4594,0.4732,0.4732,0.4753,0.4734,0.4537,0.4438,0.4288,0.3836,0.3685,0.3484,0.3029,0.2927,0.2725,0.2269,0.2118,0.0,0.0,0.0,0.0303,-0.0455,-0.0909,0.0,-0.1465,0.0,0.0,0.0,0.0,-0.2022,0.0,0.0,0.0,0.0,0.0,0.0,0.0,0.0,-0.323,-0.3281,-0.3534,-0.3784,-0.4083,-0.4336,-0.4487,-0.4487,-0.4686,-0.4784,-0.4784,-0.4784,-0.4784,-0.4784,-0.4784,-0.4784,-0.4784,-0.4834,0.0,-0.534,-0.5892,-0.6589,-0.7437,-0.8528,-0.9418,-1.0149,-1.0768,-1.1259,-1.1601,0.0,0.0,0.0,0.0,0.0,0.0,0.0,0.0265,0.065,0.1073,0.1277,0.1553,0.2006,0.212,0.2238,0.0,0.0,0.0,0.0,0.0,0.0,0.0,0.0,0.0,0.1454,0.1454,0.0,0.0,0.0,0.1146,0.0959,0.0,0.0,0.0,0.2106,0.2634,0.3162,0.3933,0.4322,0.4454,0.4725,0.4746,0.0,0.0,0.0,0.0,0.0,0.0,0.0,0.0,0.457,0.4522,0.4524,0.4421,0.4334,0.4236,0.4086,0.3937,0.3685,0.3383,0.313,0.2876,0.2573,0.222,0.1716,0.0,0.0,0.0,-0.0051,-0.0404,-0.0909,0.0,0.0,0.0,0.0,0.0,0.0,0.0,0.0,0.0,0.0,0.0,0.0,0.0,0.0,0.0,0.0,-0.3029,-0.318,-0.3433,-0.3736,-0.3982,-0.4135,-0.4236,-0.4388,-0.4537,-0.4686,-0.4784,-0.4784,-0.4784,-0.4784,-0.4784,-0.4784,-0.4784,-0.4784,0.0,-0.5037,-0.5589,-0.6287,-0.7083,-0.818,-0.9117,-0.9907,-1.0498,-1.0853,-1.1094,0.0,0.0,0.0,0.0,0.0,0.0,0.0,-0.0133,0.0175,0.0697,0.0844,0.1062,0.1549,0.1735,0.1848,0.0,0.0,0.0,0.0,0.0,0.0,0.0,0.0,0.0,0.0,0.0,0.0,0.0,0.0,0.0,0.0,0.0,0.0,0.0,0.0,0.0,0.2384,0.3249,0.372,0.0,0.0,0.0,0.0,0.0,0.0,0.0,0.0,0.0,0.0,0.0,0.4371,0.4227,0.4164,0.4086,0.3982,0.3934,0.3784,0.3586,0.3484,0.313,0.2775,0.2574,0.217,0.1665,0.1061,0.0758,0.0,0.0,-0.0758,-0.096,-0.1212,0.0,0.0,0.0,0.0,0.0,0.0,0.0,0.0,0.0,0.0,0.0,0.0,0.0,0.0,0.0,0.0,0.0,-0.318,-0.3383,-0.3635,-0.3831,-0.3883,-0.4034,-0.4288,-0.4388,-0.4537,-0.4784,-0.4784,-0.4784,-0.4784,-0.4784,-0.4784,-0.4784,-0.4784,0.0,0.0,-0.5336,-0.5972,-0.6691,-0.7687,-0.8623,-0.9478,-1.0017,-1.0366,-1.0577,0.0,0.0,0.0,0.0,0.0,0.0,0.0,-0.0537,0.0,0.0087,0.0477,0.0724,0.0734,0.1273,0.169,0.0,0.0,0.0,0.0,0.0,0.0,0.0,0.0,0.0,0.0,0.0,0.0,0.0,0.0,0.0,0.0,0.0,0.0,0.0,0.0,0.0,0.0,0.0,0.0,0.0,0.0,0.0,0.0,0.0,0.0,0.0,0.0,0.0,0.0,0.0,0.0,0.3685,0.3679,0.3828,0.3932,0.3685,0.0,0.0,0.3027,0.2826,0.2624,0.1869,0.1465,0.1061,0.0303,0.0,0.0,-0.101,-0.1162,-0.1263,-0.1516,-0.1566,-0.1617,0.0,0.0,-0.1617,0.0,0.0,0.0,0.0,0.0,0.0,0.0,0.0,0.0,0.0,0.0,0.0,-0.318,-0.323,-0.323,-0.3281,-0.3534,-0.3784,-0.4033,-0.4286,-0.4537,-0.4784,-0.4784,-0.4784,-0.4784,-0.4784,-0.4784,-0.4784,-0.4784,0.0,0.0,-0.5138,-0.5534,-0.6081,-0.6809,-0.7688,-0.8578,-0.9113,-0.9759,-1.0333,0.0,0.0,0.0,0.0,0.0,0.0,-0.148,-0.1076,-0.0626,-0.0089,0.0175,0.0389,0.0637,0.0873,0.1013,0.1103,0.0,0.0,0.0,0.0,0.0,0.0,0.0,0.0,0.0,0.0,0.0,0.0,0.0,0.0,0.0,0.0,0.0,0.0,0.0,0.0,0.0,0.0,0.0,0.0,0.0,0.0,0.0,0.0,0.0,0.0,0.0,0.0,0.0,0.0,0.0,0.0,0.3586,0.3583,0.0,0.0,0.323,0.3029,0.2674,0.2322,0.1919,0.1263,0.0808,0.0303,-0.0354,0.0,-0.101,-0.1364,-0.1465,-0.1465,-0.1566,-0.1617,-0.1617,-0.1617,0.0,0.0,0.0,0.0,0.0,0.0,0.0,0.0,0.0,0.0,0.0,0.0,0.0,0.0,-0.2674,-0.2876,-0.3029,-0.318,-0.3281,-0.3484,-0.3734,-0.3887,-0.4137,-0.4537,-0.4537,-0.4636,-0.4784,-0.4784,-0.4784,-0.4784,-0.4784,0.0,0.0,-0.5053,-0.5338,-0.5676,-0.639,-0.7158,-0.7901,-0.8526,-0.9159,-0.9716,0.0,0.0,0.0,0.0,0.0,-0.2625,-0.1926,-0.1569,-0.1166,-0.0493,-0.0221,0.0,0.0348,0.0472,0.0503,0.0443,0.0642,0.0,0.0,0.0,0.0,0.0,0.0,0.0,0.0,0.0,-0.0505,-0.059,-0.059,0.0,0.0,0.0,0.0,0.0,0.0,0.0,0.0,0.0,0.0,0.0,0.0,0.0,0.0,0.0,0.0,0.0,0.0,0.0,0.0,0.0,0.0,0.0,0.0,0.0,0.0,0.0,0.3027,0.2725,0.2371,0.1868,0.1314,0.0707,0.0152,-0.0354,0.0,0.0,-0.1364,-0.1566,-0.1617,-0.1617,-0.1617,-0.1617,-0.1617,-0.1617,0.0,-0.1617,0.0,0.0,0.0,0.0,0.0,0.0,0.0,0.0,0.0,0.0,0.0,0.0,0.0,-0.2473,-0.2726,-0.3079,-0.318,-0.3332,-0.3586,-0.3586,-0.3887,-0.4388,-0.4388,-0.4537,-0.4784,-0.4784,-0.477,-0.4748,0.0,0.0,0.0,-0.4859,-0.5042,-0.5284,-0.5842,-0.6458,-0.7111,-0.7843,-0.8439,-0.9038,0.0,0.0,0.0,0.0,0.0,0.0,-0.2858,-0.2062,-0.1391,-0.1391,-0.0807,-0.04,-0.0393,0.0044,0.0216,0.0042,0.0379,0.0,0.0,0.0,0.0,0.0,0.0,0.0,0.0,0.0,-0.1304,-0.1095,-0.1095,-0.1053,-0.1011,-0.1011,0.0,0.0,0.0,0.0,0.0,0.0,0.0,0.0,0.0,0.0,0.0,0.0,0.0,0.0,0.0,0.0,0.0,0.0,0.0,0.0,0.0,0.0,0.0,0.0,0.3027,0.2674,0.2169,0.1615,0.101,0.0202,-0.0404,-0.0859,0.0,0.0,-0.1617,-0.1617,-0.1617,-0.1617,-0.1617,-0.1617,-0.1617,-0.1617,-0.1617,0.0,0.0,0.0,0.0,0.0,0.0,0.0,0.0,0.0,0.0,0.0,0.0,0.0,0.0,-0.2022,-0.2273,-0.2775,-0.3079,-0.3332,-0.3586,-0.3586,-0.3887,-0.4388,-0.4388,-0.4537,-0.4784,-0.4784,-0.474,0.0,0.0,0.0,0.0,-0.4621,-0.4663,-0.4809,-0.5034,-0.5516,-0.6216,-0.6877,-0.7584,-0.8288,0.0,0.0,0.0,0.0,0.0,0.0,0.0,-0.2466,-0.1974,-0.148,-0.1211,-0.0939,-0.0622,-0.0489,-0.0399,-0.0484,0.0043,0.0,0.0,0.0,0.0,0.0,0.0,0.0,0.0,0.0,-0.2112,-0.2069,-0.1716,-0.1583,-0.1539,-0.1364,-0.1276,0.0,0.0,0.0,0.0,0.0,0.0,0.0,0.0,0.0,0.0,0.0,0.0,0.0,0.0,0.0,0.0,0.0,0.0,0.0,0.0,0.0,0.0,0.318,0.0,0.0,0.1865,0.1211,0.0455,-0.0354,-0.0808,-0.1162,-0.1415,-0.1516,-0.1617,-0.1617,-0.1617,-0.1617,-0.1617,-0.1617,-0.1617,-0.1617,-0.1617,0.0,0.0,0.0,0.0,0.0,0.0,0.0,0.0,0.0,0.0,0.0,0.0,0.0,0.0,-0.1921,-0.2223,-0.2775,-0.2876,-0.3079,-0.3332,-0.3332,-0.3484,-0.3836,-0.4034,-0.4257,-0.4449,-0.4648,0.0,0.0,0.0,0.0,0.0,-0.4479,-0.4472,-0.4478,-0.475,-0.5044,-0.5455,-0.6169,-0.6877,-0.7492,0.0,0.0,0.0,0.0,0.0,0.0,0.0,-0.2869,-0.2467,-0.1885,-0.157,-0.13,-0.0987,-0.0807,-0.0718,-0.0718,-0.0307,0.0,0.0,0.0,0.0,0.0,0.0,0.0,-0.2735,-0.2781,-0.2736,-0.2647,-0.2199,-0.1885,-0.1794,-0.1525,-0.1391,-0.1391,-0.1211,0.0,0.0,0.0,0.0,0.0,0.0,0.0,0.2932,0.0,0.0,0.0,0.0,0.0,0.0,0.0,0.0,0.0,0.0,0.0,0.0,0.0,0.2826,0.2269,0.0,0.0958,0.0101,-0.0606,-0.1061,0.0,0.0,-0.1617,-0.1617,-0.1617,-0.1617,-0.1617,-0.1617,-0.1617,-0.1617,-0.1617,-0.1617,0.0,0.0,0.0,0.0,0.0,0.0,0.0,0.0,0.0,0.0,0.0,0.0,0.0,0.0,-0.1768,-0.2071,-0.2474,-0.2675,-0.2876,-0.3029,-0.313,-0.3332,-0.3586,-0.3757,-0.3918,-0.4165,-0.4334,0.0,0.0,0.0,0.0,0.0,-0.4338,-0.4351,-0.43,-0.448,-0.4701,-0.4968,-0.5502,-0.6124,-0.6789,0.0,0.0,0.0,0.0,0.0,0.0,0.0,-0.3224,-0.2823,-0.2557,-0.193,-0.148,-0.148,-0.1076,-0.0807,-0.0807,0.0,0.0,0.0,0.0,0.0,0.0,0.0,0.0,-0.3227,-0.3227,-0.3136,-0.2957,-0.2467,-0.2109,-0.1839,-0.157,-0.1436,-0.1436,-0.1256,-0.0897,-0.0314,0.1121,0.2019,0.2513,0.2784,0.292,0.0,0.0,0.0,0.0,0.0,0.0,0.0,0.0,0.0,0.0,0.0,0.0,0.0,0.0,0.0,0.0,0.0,0.0807,0.0,0.0,0.0,0.0,0.0,-0.1617,0.0,-0.1617,-0.1617,-0.1617,-0.1617,-0.1617,-0.1617,-0.1617,-0.1617,0.0,0.0,0.0,0.0,0.0,0.0,0.0,0.0,0.0,0.0,0.0,0.0,0.0,0.0,-0.1617,-0.1718,-0.1971,-0.2474,-0.2775,-0.2775,-0.3029,-0.3279,-0.3577,-0.3515,-0.3624,-0.3853,-0.3885,0.0,0.0,0.0,0.0,0.0,-0.4168,-0.43,-0.43,-0.43,-0.4433,-0.4703,-0.4924,-0.5411,-0.6038,0.0,0.0,0.0,0.0,0.0,0.0,0.0,0.0,0.0,0.0,-0.2467,-0.2199,-0.2019,-0.193,-0.1839,0.0,0.0,0.0,0.0,0.0,0.0,0.0,0.0,0.0,-0.3497,-0.3497,-0.3497,-0.3452,-0.2782,-0.2379,-0.2334,-0.2109,-0.2019,-0.2019,-0.1974,-0.1345,-0.0314,0.0807,0.166,0.2289,0.2739,0.292,0.0,0.0,0.0,0.0,0.3187,0.318,0.0,0.0,0.0,0.0,0.0,0.0,0.0,0.0,0.2674,0.1967,0.1462,0.0,-0.0152,-0.0657,-0.1212,-0.1617,0.0,-0.1617,-0.1617,-0.1617,0.0,0.0,-0.1617,-0.1617,-0.1617,-0.1617,-0.1617,0.0,0.0,0.0,0.0,0.0,0.0,0.0,0.0,0.0,0.0,0.0,0.0,0.0,0.0,-0.1617,-0.1617,-0.1667,-0.2021,-0.2373,-0.2775,-0.2876,-0.3007,-0.321,-0.3394,-0.3479,-0.3469,-0.3642,0.0,0.0,0.0,0.0,-0.3901,-0.4168,-0.43,-0.43,-0.43,-0.4344,-0.4433,-0.4659,-0.4968,-0.5277,0.0,0.0,0.0,0.0,0.0,0.0,0.0,0.0,0.0,0.0,0.0,-0.2602,-0.2379,-0.2243,0.0,0.0,0.0,0.0,0.0,0.0,0.0,0.0,0.0,-0.3272,-0.3406,-0.3406,-0.3406,-0.3406,-0.2782,-0.2513,-0.2513,-0.2289,-0.2199,-0.2199,-0.193,-0.1345,-0.0493,0.0493,0.1345,0.2064,0.2513,0.0,0.0,0.0,0.0,0.0,0.3187,0.318,0.0,0.318,0.318,0.318,0.0,0.0,0.0,0.0,0.2522,0.1866,0.1211,0.0454,-0.0303,-0.0859,-0.1313,-0.1617,-0.1617,0.0,0.0,0.0,0.0,0.0,0.0,0.0,0.0,0.0,0.0,0.0,0.0,0.0,0.0,0.0,0.0,0.0,0.0,0.0,0.0,0.0,0.0,0.0,0.0,-0.1617,-0.1617,-0.1617,-0.1753,-0.1995,-0.2443,-0.2641,-0.2812,-0.2904,-0.3165,-0.3212,-0.3188,-0.3299,-0.3311,0.0,0.0,0.0,-0.3767,-0.4034,-0.4168,-0.43,-0.43,-0.43,-0.43,-0.448,-0.4659,-0.4879,0.0,0.0,0.0,0.0,0.0,0.0,0.0,0.0,0.0,0.0,0.0,0.0,0.0,0.0,0.0,0.0,0.0,0.0,0.0,0.0,0.0,0.0,-0.2869,-0.3183,-0.3183,-0.3183,-0.3183,-0.3183,-0.2782,-0.2558,-0.2558,-0.2379,-0.2289,-0.2289,-0.1749,-0.1256,-0.0718,0.0269,0.1076,0.1839,0.2289,0.0,0.0,0.0,0.0,0.0,0.0,0.0,0.0,0.318,0.318,0.318,0.318,0.0,0.0,0.0,0.0,0.0,0.0959,0.0152,-0.0556,-0.1061,-0.1415,-0.1617,-0.1617,0.0,0.0,0.0,0.0,0.0,0.0,0.0,0.0,0.0,0.0,0.0,0.0,0.0,0.0,0.0,0.0,0.0,0.0,0.0,0.0,0.0,0.0,0.0,0.0,-0.1617,-0.1615,-0.161,-0.1585,-0.1714,-0.1899,-0.2342,-0.2611,-0.2608,-0.2844,-0.2954,-0.2943,-0.2895,-0.292,0.0,0.0,0.0,-0.3631,-0.3812,-0.4078,-0.43,-0.43,-0.43,-0.43,-0.43,-0.4433,-0.4661,0.0,0.0,0.0,0.0,0.0,0.0,0.0,0.0,0.0,0.0,0.0,0.0,0.0,0.0,0.0,0.0,0.0,0.0,0.0,0.0,0.0,-0.2469,-0.2915,-0.3183,-0.3183,-0.3183,-0.3183,-0.3183,-0.2962,-0.2829,-0.2829,-0.2829,-0.2784,-0.2784,-0.2289,-0.1705,-0.0987,0.0045,0.0987,0.1839,0.2289,0.0,0.0,0.0,0.0,0.0,0.0,0.0,0.0,0.318,0.318,0.318,0.318,0.0,0.0,0.0,0.0,0.0,0.0656,-0.0101,-0.0808,-0.1111,-0.1415,-0.1617,-0.1617,0.0,0.0,0.0,0.0,0.0,0.0,0.0,0.0,0.0,0.0,0.0,0.0,0.0,0.0,0.0,0.0,0.0,0.0,0.0,0.0,0.0,0.0,0.0,0.0,-0.1617,-0.1605,-0.1579,-0.1623,-0.1595,-0.1588,-0.1852,-0.2087,-0.2278,-0.2549,-0.2615,-0.257,-0.2788,-0.292,-0.292,0.0,-0.3361,-0.3631,-0.3812,-0.4078,-0.43,-0.43,-0.43,-0.43,-0.43,-0.4344,-0.4389,0.0,0.0,0.0,0.0,0.0,0.0,0.0,0.0,0.0,0.0,0.0,0.0,0.0,0.0,0.0,0.0,0.0,0.0,0.0,0.0,-0.2694,-0.2694,-0.3005,-0.3138,-0.3051,-0.3051,-0.3051,-0.3051,-0.2963,-0.292,-0.292,-0.3006,-0.3051,-0.3051,-0.2735,-0.2107,-0.1211,-0.0403,0.0583,0.1615,0.0,0.0,0.0,0.0,0.0,0.0,0.0,0.0,0.0,0.0,0.318,0.318,0.318,0.0,0.0,0.0,0.0,0.0,0.0454,-0.0303,-0.0909,-0.1314,-0.1516,-0.1617,-0.1617,0.0,0.0,0.0,0.0,0.0,0.0,0.0,0.0,0.0,0.0,0.0,0.0,0.0,0.0,0.0,0.0,0.0,0.0,0.0,0.0,0.0,0.0,0.0,0.0,0.0,-0.1585,-0.1621,-0.1444,-0.132,-0.1295,-0.1247,-0.1515,-0.2003,-0.2276,-0.2356,-0.2334,-0.2469,-0.2558,-0.2694,0.0,-0.3048,-0.3406,-0.3631,-0.3857,-0.4078,-0.4255,-0.43,-0.43,-0.43,-0.43,-0.4344,0.0,0.0,0.0,0.0,0.0,0.0,0.0,0.0,0.0,0.0,0.0,0.0,0.0,0.0,0.0,0.0,0.0,0.0,0.0,-0.3053,-0.3053,-0.3053,-0.3229,-0.3184,-0.2963,-0.3053,-0.3053,-0.3053,-0.3053,-0.3053,-0.3053,-0.3229,-0.3272,-0.3183,-0.3002,-0.2331,-0.1345,-0.0673,0.0314,0.1436,0.0,0.0,0.0,0.0,0.0,0.0,0.0,0.0,0.0,0.0,0.0,0.0,0.0,0.0,0.0,0.2573,0.2017,0.1361,0.0353,-0.0303,-0.0859,-0.1364,0.0,-0.1617,-0.1617,-0.1617,0.0,0.0,0.0,0.0,0.0,0.0,0.0,0.0,0.0,0.0,0.0,0.0,0.0,0.0,0.0,0.0,0.0,0.0,0.0,0.0,0.0,0.0,0.0,0.0,-0.1565,-0.1502,-0.1176,-0.1015,-0.0919,-0.0678,-0.0897,-0.1525,-0.1794,-0.193,-0.193,-0.2064,-0.2199,-0.2334,-0.2469,-0.2736,-0.3136,-0.3406,-0.3631,-0.3857,-0.4076,-0.4121,-0.4121,-0.4121,-0.4121,-0.4166,0.0,0.0,0.0,0.0,0.0,0.0,0.0,0.0,0.0,0.0,0.0,0.0,0.0,0.0,0.0,0.0,0.0,0.0,0.0,-0.3544,-0.3544,-0.3544,-0.3542,-0.3452,-0.3183,-0.3408,-0.3544,-0.3544,-0.3544,-0.3544,-0.3544,-0.3542,-0.3452,-0.3183,-0.3002,-0.2331,-0.1345,-0.0673,0.0314,0.1436,0.1974,0.0,0.0,0.0,0.0,0.0,0.0,0.0,0.0,0.0,0.0,0.0,0.0,0.0,0.3079,0.2573,0.2017,0.1412,0.0606,0.0,-0.0556,-0.1111,-0.1415,0.0,-0.1617,-0.1617,0.0,-0.1617,0.0,0.0,0.0,0.0,0.0,0.0,0.0,0.0,0.0,0.0,0.0,0.0,0.0,0.0,0.0,0.0,0.0,0.0,0.0,0.0,0.0,0.0,0.0,-0.1163,-0.0927,-0.0687,-0.045,-0.0179,-0.0314,-0.0762,-0.1031,-0.1166,-0.1211,-0.1615,-0.1839,-0.1885,-0.2289,-0.2647,-0.2957,-0.3136,-0.3361,-0.3631,-0.3631,-0.3631,-0.3631,-0.3631,-0.3631,-0.3631,0.0,0.0,0.0,0.0,0.0,0.0,0.0,0.0,0.0,0.0,0.0,0.0,0.0,0.0,0.0,0.0,0.0,0.0,0.0,-0.3587,-0.3587,-0.3587,-0.3723,-0.3723,-0.3631,-0.3631,-0.3587,-0.3587,-0.3587,-0.3587,-0.3587,-0.3587,-0.3452,-0.3183,-0.3002,-0.2331,-0.1345,-0.0673,0.0314,0.1436,0.1974,0.2487,0.0,0.0,0.0,0.0,0.0,0.0,0.0,0.0,0.318,0.3173,0.3136,0.3125,0.3025,0.2478,0.1934,0.1393,0.0604,0.0,-0.0505,-0.0859,-0.1162,0.0,0.0,-0.1617,-0.1617,-0.1617,0.0,0.0,0.0,0.0,0.0,0.0,0.0,0.0,0.0,0.0,0.0,0.0,0.0,0.0,0.0,0.0,0.0,0.0,0.0,0.0,0.0,0.0,0.0,-0.0925,-0.0365,0.0045,0.0269,0.0673,0.0762,0.0583,-0.009,-0.0403,-0.0403,-0.0583,-0.0852,-0.1121,-0.148,-0.1839,-0.2241,-0.2602,-0.2826,-0.2917,-0.3093,-0.3181,-0.3181,-0.3181,-0.3181,-0.3181,0.0,0.0,0.0,0.0,0.0,0.0,0.0,0.0,0.0,0.0,0.0,0.0,0.0,0.0,0.0,0.0,0.0,0.0,-0.381,-0.381,-0.381,-0.381,-0.3944,-0.4036,-0.4036,-0.39,-0.381,-0.381,-0.381,-0.3765,-0.3678,-0.3678,-0.3497,-0.3092,-0.2957,-0.2286,-0.1256,-0.0673,0.0269,0.1346,0.1943,0.2468,0.0,0.0,0.0,0.0,0.0,0.0,0.0,0.0,0.318,0.3169,0.3109,0.309,0.2992,0.2451,0.1914,0.1381,0.0704,0.0152,-0.0354,0.0,0.0,0.0,-0.1415,-0.1516,-0.1617,-0.1617,0.0,0.0,0.0,0.0,0.0,0.0,0.0,0.0,0.0,0.0,0.0,0.0,0.0,0.0,0.0,0.0,0.0,0.0,0.0,0.0,0.0,0.0,0.0,0.0,0.0271,0.0762,0.1031,0.1436,0.166,0.166,0.0987,0.0628,0.0448,0.0359,0.0134,-0.0269,-0.0628,-0.1031,-0.148,-0.1885,-0.2109,-0.2154,-0.2376,-0.2419,-0.2419,-0.2419,-0.2419,-0.2419,0.0,0.0,0.0,0.0,0.0,0.0,0.0,0.0,0.0,0.0,0.0,0.0,0.0,0.0,0.0,0.0,0.0,0.0,-0.43,-0.43,-0.43,-0.43,-0.43,-0.43,-0.43,-0.43,-0.43,-0.43,-0.43,-0.4166,-0.3903,-0.3903,-0.3542,-0.2911,-0.2911,-0.224,-0.1076,-0.0583,0.0179,0.1168,0.1882,0.2361,0.2652,0.0,0.0,0.0,0.0,0.0,0.0,0.0,0.318,0.3169,0.3109,0.309,0.2991,0.2451,0.1913,0.138,0.0905,0.0404,0.0,0.0,0.0,0.0,-0.1162,-0.1415,-0.1617,0.0,0.0,0.0,0.0,0.0,0.0,0.0,0.0,0.0,0.0,0.0,0.0,0.0,0.0,0.0,0.0,0.0,0.0,0.0,0.0,0.0,0.0,0.0,0.0,0.0,0.0852,0.1345,0.1794,0.2064,0.2199,0.2199,0.2199,0.193,0.1391,0.1211,0.0987,0.0673,0.0224,-0.0269,-0.0718,-0.0987,-0.1211,-0.1391,-0.1391,-0.1391,-0.1391,-0.1391,-0.1391,-0.1391,0.0,0.0,0.0,0.0,0.0,0.0,0.0,0.0,0.0,0.0,0.0,0.0,0.0,0.0,0.0,0.0,0.0,0.0,-0.43,-0.43,-0.43,-0.43,-0.43,-0.43,-0.43,-0.43,-0.43,-0.43,-0.4123,-0.3901,-0.3678,-0.3497,-0.3139,-0.2602,-0.2287,-0.1659,-0.0762,-0.0134,0.0628,0.1348,0.1974,0.2381,0.27,0.0,0.0,0.0,0.0,0.0,0.0,0.0,0.0,0.0,0.3108,0.3076,0.2979,0.2404,0.1828,0.1357,0.0902,0.0253,0.0,0.0,0.0,0.0,0.0,-0.1415,0.0,0.0,0.0,0.0,0.0,0.0,0.0,0.0,0.0,0.0,0.0,0.0,0.0,0.0,0.0,0.0,0.0,0.0,0.0,0.0,0.0,0.0,0.0,0.0,0.0,0.0,0.1345,0.1839,0.2289,0.2558,0.2694,0.2694,0.2694,0.2424,0.1974,0.1885,0.1705,0.1436,0.1121,0.0718,0.0269,-0.0179,-0.0359,-0.0403,-0.0403,-0.0403,-0.0403,-0.0403,-0.0403,-0.0403,0.0,0.0,0.0,0.0,0.0,0.0,0.0,0.0,0.0,0.0,0.0,0.0,0.0,0.0,0.0,0.0,0.0,0.0,0.0,-0.43,-0.43,-0.43,-0.43,-0.43,-0.43,-0.43,-0.4255,-0.4123,-0.3991,-0.3723,-0.3452,-0.3183,-0.278,-0.2199,-0.1749,-0.1121,-0.0359,0.0269,0.0811,0.132,0.1859,0.2227,0.2464,0.0,0.0,0.0,0.0,0.0,0.0,0.0,0.0,0.0,0.3116,0.3116,0.3007,0.2405,0.1823,0.1299,0.09,0.0,0.0,0.0,0.0,0.0,0.0,0.0,0.0,0.0,0.0,0.0,0.0,0.0,0.0,0.0,0.0,0.0,0.0,0.0,0.0,0.0,0.0,0.0,0.0,0.0,0.0,0.0,0.0,0.0,0.0,0.0,0.0,0.0,0.1839,0.2244,0.2649,0.2829,0.292,0.292,0.292,0.2739,0.2469,0.2469,0.2334,0.2064,0.1705,0.1391,0.1121,0.0718,0.0493,0.0448,0.0448,0.0359,0.0269,0.0269,0.0269,0.0269,0.0,0.0,0.0,0.0,0.0,0.0,0.0,0.0,0.0,0.0,-0.5688,0.0,0.0,0.0,0.0,0.0,0.0,0.0,0.0,-0.43,-0.43,-0.43,-0.4255,-0.4255,-0.4255,-0.4255,-0.4123,-0.3857,-0.3857,-0.3631,-0.3181,-0.2957,-0.2465,-0.1705,-0.1256,-0.0628,0.009,0.0539,0.091,0.1205,0.1707,0.1934,0.2067,0.2555,0.0,0.0,0.0,0.0,0.0,0.0,0.0,0.0,0.3109,0.3102,0.3019,0.2434,0.1885,0.1346,0.0896,0.0,0.0,0.0,0.0,0.0,0.0,0.0,0.0,0.0,0.0,0.0,0.0,0.0,0.0,0.0,0.0,0.0,0.0,0.0,0.0,0.0,0.0,0.0,0.0,0.0,0.0,0.0,0.0,0.0,0.0,0.0,0.0,0.1839,0.2289,0.2649,0.292,0.292,0.292,0.292,0.292,0.292,0.292,0.292,0.2784,0.2513,0.2064,0.1884,0.1839,0.157,0.1345,0.1211,0.1211,0.1031,0.0852,0.0807,0.0807,0.0807,0.0,0.0,0.0,0.0,0.0,0.0,0.0,0.0,0.0,0.0,0.0,0.0,0.0,0.0,0.0,0.0,0.0,0.0,0.0,-0.43,-0.43,-0.43,-0.4078,-0.3991,-0.3991,-0.381,-0.3631,-0.3361,-0.3542,-0.3408,-0.2957,-0.2556,-0.1973,-0.1211,-0.0762,-0.0134,0.0584,0.0867,0.1152,0.1439,0.1828,0.2007,0.2018,0.2355,0.2623,0.0,0.0,0.0,0.0,0.0,0.0,0.0,0.3109,0.3082,0.3016,0.2455,0.2058,0.1624,0.0,0.0386,0.0,0.0,0.0,0.0,0.0,0.0,0.0,0.0,0.0,0.0,0.0,0.0,0.0,0.0,0.0,0.0,0.0,0.0,0.0,0.0,0.0,0.0,0.0,0.0,0.0,0.0,0.0,0.0,0.0,0.0,0.0,0.2334,0.2469,0.2649,0.292,0.292,0.292,0.0,0.292,0.292,0.292,0.292,0.2873,0.2784,0.2469,0.2334,0.2334,0.2109,0.2019,0.1974,0.1974,0.193,0.1839,0.166,0.157,0.1525,0.0,0.0,0.0,0.0,0.0,0.0,0.0,0.0,0.0,0.0,0.0,0.0,0.0,0.0,0.0,0.0,0.0,0.0,0.0,0.0,-0.4078,-0.3987,-0.381,-0.3767,-0.3767,-0.3633,-0.3406,-0.3047,-0.3183,-0.3004,-0.2556,-0.2063,-0.1436,-0.0762,-0.0224,0.0316,0.0911,0.1197,0.1404,0.1575,0.1754,0.1828,0.1844,0.2113,0.2372,0.2623,0.2775,0.0,0.0,0.0,0.0,0.0,0.0,0.0,0.3036,0.2618,0.221,0.1765,0.0,0.0,0.0,0.0,0.0,0.0,0.0,0.0,0.0,0.0,0.0,0.0,0.0,0.0,0.0,0.0,0.0,0.0,0.0,0.0,0.0,0.0,0.0,0.0,0.0,0.0,0.0,0.0,0.0,0.0,0.0,0.2196,0.2601,0.2826,0.2826,0.2915,0.3051,0.2963,0.292,0.292,0.292,0.292,0.292,0.292,0.292,0.2875,0.2739,0.2694,0.2694,0.2558,0.2469,0.2334,0.2334,0.2289,0.2199,0.2064,0.193,0.1794,0.0,0.0,0.0,0.0,0.0,0.0,0.0,0.0,0.0,0.0,0.0,0.0,0.0,0.0,0.0,0.0,0.0,0.0,0.0,0.0,0.0,-0.3587,-0.3542,-0.3497,-0.3497,-0.3363,-0.3093,-0.2689,-0.2644,-0.2331,-0.1885,-0.148,-0.0897,-0.0224,0.027,0.0774,0.1204,0.1398,0.1525,0.1621,0.1577,0.1594,0.1617,0.1869,0.2121,0.2422,0.2674,0.2927,0.318,0.318,0.0,0.0,0.0,0.0,0.304,0.2784,0.236,0.1944,0.0,0.0,0.0,0.0,0.0,0.0,0.0,0.0,0.0,0.0,0.0,0.0,0.0,0.0,0.0,0.0,0.0,0.0,0.0,0.0,0.0,0.0,0.0,0.0,0.0,0.0,0.0,0.0,0.0,0.0,0.2597,0.3047,0.3272,0.3272,0.3272,0.3272,0.3272,0.3096,0.3008,0.2963,0.2918,0.292,0.292,0.292,0.292,0.292,0.292,0.292,0.292,0.292,0.2784,0.2558,0.2558,0.2469,0.2334,0.2289,0.2109,0.193,0.0,0.0,0.0,0.0,0.0,0.0,0.0,0.0,0.0,0.0,0.0,0.0,0.0,0.0,0.0,0.0,0.0,0.0,-0.3991,0.0,0.0,-0.3587,-0.3227,-0.3002,-0.3002,-0.2377,-0.2018,-0.1929,-0.1524,-0.1121,-0.0628,-0.0762,-0.0403,0.0314,0.0777,0.1154,0.1438,0.1537,0.1613,0.1623,0.16,0.1613,0.1617,0.1617,0.1969,0.2422,0.2422,0.2775,0.318,0.318,0.318,0.0,0.0,0.0,0.3032,0.2787,0.2595,0.2408,0.0,0.0,0.0,0.0,0.0,0.0,0.0,0.0,0.0,0.0,0.0,0.0,0.0,0.0,0.0,0.0,0.0,0.0,0.0,0.0,0.0,0.0,0.0,0.0,0.0,0.0,0.0,0.0,0.0,0.0,0.3092,0.3406,0.3542,0.3542,0.3542,0.3542,0.3542,0.3497,0.3408,0.3138,0.2962,0.292,0.292,0.292,0.292,0.292,0.292,0.292,0.292,0.292,0.2873,0.2829,0.2829,0.2829,0.2784,0.2558,0.2424,0.2379,0.0,0.0,0.0,0.0,0.0,0.0,0.0,0.0,0.0,0.0,0.0,0.0,0.0,0.0,0.0,-0.4835,-0.4346,-0.3855,-0.3361,-0.3272,-0.3093,-0.2826,-0.2466,-0.2287,-0.2287,-0.1704,-0.1345,-0.1166,-0.0852,-0.0448,0.0045,0.009,0.0359,0.0808,0.1009,0.1257,0.1509,0.1553,0.1581,0.1598,0.1611,0.1617,0.1617,0.1617,0.1919,0.2418,0.2342,0.2701,0.3176,0.3141,0.3153,0.318,0.318,0.0,0.0,0.0,0.0,0.0,0.0,0.0,0.0,0.0,0.0,0.0,0.0,0.0,0.0,0.0,0.0,0.0,0.0,0.0,0.0,0.0,0.0,0.0,0.0,0.0,0.0,0.0,0.0,0.0,0.0,0.0,0.0,0.0,0.0,0.4032,0.4032,0.4168,0.4168,0.3987,0.3855,0.3767,0.3767,0.3678,0.3452,0.3183,0.3094,0.3006,0.292,0.292,0.292,0.292,0.292,0.292,0.292,0.292,0.292,0.292,0.292,0.292,0.2875,0.2784,0.2649,0.2469,0.0,0.0,0.0,0.0,0.0,0.0,0.0,0.0,0.0,0.0,0.0,0.0,0.0,0.0,0.0,0.0,-0.4078,-0.3452,-0.2778,-0.2644,-0.242,-0.2019,-0.1705,-0.1525,-0.1525,-0.0987,-0.0628,-0.0403,-0.0224,0.0134,0.0583,0.0718,0.0944,0.1222,0.1201,0.132,0.154,0.157,0.1596,0.1617,0.1617,0.1612,0.1605,0.1605,0.19,0.2384,0.23,0.2654,0.3177,0.3132,0.3157,0.3154,0.0,0.0,0.0,0.0,0.0,0.0,0.0,0.0,0.0,0.0,0.0,0.0,0.0,0.0,0.0,0.0,0.0,0.0,0.0,0.0,0.0,0.0,0.0,0.0,0.0,0.0,0.0,0.0,0.0,0.0,0.0,0.0,0.0,0.0,0.0,0.4792,0.4792,0.475,0.4614,0.4389,0.4123,0.3991,0.3991,0.3767,0.3587,0.3361,0.3317,0.3184,0.2962,0.2962,0.2963,0.292,0.292,0.292,0.292,0.292,0.292,0.292,0.292,0.292,0.292,0.292,0.2784,0.2602,0.0,0.0,0.0,0.0,0.0,0.0,0.0,0.0,0.0,0.0,0.0,0.0,-0.501,-0.461,-0.4344,-0.4344,-0.3673,-0.2959,-0.2288,-0.2018,-0.1749,-0.1436,-0.0987,0.0,-0.0762,-0.0045,0.0314,0.0359,0.0538,0.0807,0.1076,0.1076,0.1224,0.148,0.1463,0.154,0.1571,0.1601,0.1615,0.1617,0.1617,0.16,0.1623,0.1623,0.1896,0.2297,0.0,0.0,0.0,0.3102,0.0,0.0,0.0,0.0,0.309,0.0,0.0,0.0,0.0,0.0,0.0,0.0,0.0,0.0,0.0,0.0,0.0,0.0,0.0,0.0,0.0,0.0,0.0,0.0,0.0,0.0,0.0,0.0,0.0,0.0,0.0,0.0,0.0,0.0,0.0,0.0,0.0,0.4966,0.4966,0.4792,0.4705,0.4661,0.4433,0.43,0.43,0.4036,0.3859,0.3857,0.3678,0.3452,0.3183,0.3183,0.3094,0.292,0.292,0.292,0.292,0.292,0.292,0.292,0.292,0.292,0.292,0.292,0.2875,0.2865,0.0,0.0,0.0,0.0,0.0,0.0,0.0,0.0,0.0,0.0,0.0,0.0,0.0,-0.3942,-0.3674,-0.3178,-0.2644,-0.2017,-0.13,-0.1166,-0.0897,-0.0538,-0.0179,0.0,0.0,0.0538,0.0852,0.0852,0.1031,0.1211,0.1301,0.1319,0.1388,0.151,0.1521,0.1543,0.1621,0.1583,0.0,0.0,0.0,0.0,0.1783,0.0,0.0,0.0,0.0,0.0,0.0,0.0,0.0,0.0,0.0,0.3069,0.3026,0.2967,0.0,0.0,0.0,0.0,0.0,0.0,0.0,0.0,0.0,0.0,0.0,0.0,0.0,0.0,0.0,0.0,0.0,0.0,0.0,0.0,0.0,0.0,0.0,0.0,0.0,0.0,0.0,0.0,0.0,0.0,0.0,0.0,0.528,0.5193,0.506,0.4879,0.4659,0.448,0.43,0.421,0.4078,0.3903,0.3812,0.3678,0.3452,0.3272,0.3183,0.3093,0.2919,0.2882,0.292,0.292,0.292,0.292,0.292,0.292,0.292,0.292,0.292,0.291,0.0,0.0,0.0,0.0,0.0,0.0,0.0,0.0,0.0,-0.3851,0.0,0.0,0.0,0.0,-0.2689,-0.1971,-0.1569,-0.1031,-0.0359,-0.0314,-0.0179,0.0224,0.0493,0.0628,0.0628,0.0987,0.1211,0.1211,0.1345,0.1395,0.1451,0.1471,0.1497,0.1478,0.1478,0.1543,0.162,0.0,0.0,0.1895,0.0,0.0,0.1842,0.0,0.0,0.0,0.0,0.0,0.0,0.0,0.0,0.0,0.0,0.3239,0.3194,0.3154,0.3142,0.0,0.3142,0.0,0.0,0.0,0.0,0.0,0.0,0.0,0.0,0.0,0.0,0.0,0.0,0.0,0.0,0.0,0.0,0.0,0.0,0.0,0.0,0.0,0.0,0.0,0.0,0.0,0.0,0.0,0.0,0.0,0.5508,0.5416,0.528,0.501,0.4879,0.4703,0.4433,0.4433,0.4302,0.4036,0.4036,0.3901,0.3676,0.3472,0.3326,0.3145,0.2951,0.2874,0.2886,0.2822,0.2813,0.2813,0.2813,0.2813,0.2813,0.2813,0.2813,0.2804,0.0,0.0,0.0,0.0,0.0,0.0,0.0,0.0,-0.2867,-0.2867,0.0,0.0,0.0,0.0,0.0,-0.0718,-0.0493,-0.0134,0.0403,0.0403,0.0493,0.0718,0.0987,0.1121,0.1121,0.13,0.1391,0.1391,0.1391,0.1451,0.148,0.148,0.1497,0.1478,0.1478,0.1542,0.1617,0.0,0.1891,0.1954,0.0,0.2071,0.1803,0.0,0.0,0.0,0.2109,0.2334,0.0,0.0,0.0,0.0,0.0,0.3631,0.3631,0.3631,0.3587,0.0,0.0,0.0,0.0,0.0,0.0,0.0,0.0,0.0,0.0,0.0,0.0,0.0,0.0,0.0,0.0,0.0,0.0,0.0,0.0,0.0,0.0,0.0,0.0,0.0,0.0,0.0,0.0,0.0,0.0,0.5688,0.5688,0.5508,0.528,0.501,0.501,0.4924,0.4705,0.4705,0.4569,0.43,0.4297,0.4164,0.3896,0.3813,0.3557,0.3118,0.3054,0.2936,0.2817,0.2717,0.2692,0.2692,0.2692,0.2692,0.2734,0.2734,0.2734,0.2724,0.0,0.0,0.0,0.0,0.0,-0.1569,-0.1793,-0.1793,-0.1793,0.0,0.0,0.0,-0.121,-0.0628,-0.0134,0.009,0.0269,0.0538,0.0897,0.0897,0.0987,0.1211,0.1256,0.13,0.13,0.139,0.1391,0.1391,0.1391,0.1451,0.148,0.148,0.1497,0.1478,0.1478,0.1614,0.1742,0.1789,0.0,0.0,0.2251,0.223,0.0,0.0,0.0,0.0,0.0,0.2557,0.2823,0.0,0.3417,0.3791,0.0,0.0,0.4076,0.3896,0.3807,0.0,0.3631,0.0,0.0,0.0,0.0,0.0,0.0,0.0,0.0,0.0,0.0,0.0,0.0,0.0,0.0,0.0,0.0,0.0,0.0,0.0,0.0,0.0,0.0,0.0,0.0,0.0,0.0,0.0,0.5688,0.5688,0.5688,0.5644,0.5508,0.528,0.528,0.5146,0.4924,0.4792,0.4661,0.4569,0.4326,0.4208,0.4118,0.3858,0.3646,0.3514,0.3275,0.3133,0.3069,0.2807,0.2776,0.2904,0.2904,0.2986,0.3151,0.3151,0.3151,0.3141,0.0,0.0,0.0,0.0,0.0,-0.0987,-0.1076,-0.1031,-0.0987,0.0,0.0,0.0,-0.0134,0.0359,0.0673,0.0673,0.0897,0.1076,0.1211,0.1211,0.1256,0.1391,0.1391,0.1391,0.1391,0.1391,0.1391,0.1391,0.1391,0.1451,0.148,0.148,0.149,0.1507,0.1601,0.0,0.0,0.0,0.0,0.0,0.2525,0.0,0.0,0.2512,0.2423,0.0,0.0,0.0,0.3227,0.354,0.403,0.0,0.0,0.0,0.0,0.0,0.0,0.0,0.0,0.0,0.0,0.0,0.0,0.0,0.0,0.3497,0.0,0.0,0.0,0.0,0.0,0.0,0.0,0.0,0.0,0.0,0.0,0.0,0.0,0.0,0.0,0.0,0.0,0.0,0.0,0.5688,0.5688,0.5688,0.5688,0.5688,0.5644,0.5508,0.5508,0.5416,0.5191,0.506,0.4905,0.4731,0.4457,0.428,0.4238,0.3934,0.3729,0.3641,0.3438,0.3325,0.3287,0.3088,0.3025,0.3027,0.3027,0.3107,0.3226,0.3307,0.3348,0.3382,0.0,0.0,-0.0359,-0.0359,-0.0493,-0.0628,-0.0583,-0.0448,-0.0314,0.0,0.0179,0.0538,0.0762,0.0987,0.1121,0.1121,0.13,0.1391,0.1391,0.1391,0.1391,0.1391,0.1391,0.1391,0.1391,0.1391,0.1391,0.1391,0.1391,0.1451,0.148,0.1477,0.1524,0.1527,0.1709,0.0,0.0,0.0,0.0,0.2693,0.2873,0.2829,0.0,0.0,0.2869,0.0,0.3227,0.354,0.3855,0.4387,0.4968,0.0,0.0,0.0,0.0,0.0,0.568,0.0,0.0,0.0,0.0,0.0,0.0,0.0,0.3853,0.3765,0.3721,0.0,0.0,0.0,0.0,0.0,0.0,0.0,0.0,0.0,0.0,0.0,0.0,0.0,0.0,0.0,0.0,0.5688,0.5688,0.5688,0.5688,0.5688,0.5688,0.5688,0.5688,0.5688,0.5688,0.5599,0.5416,0.5403,0.5215,0.486,0.4619,0.4433,0.4303,0.4087,0.3843,0.3676,0.3638,0.3604,0.3563,0.3563,0.3448,0.3219,0.3219,0.3258,0.3295,0.3487,0.3602,0.3682,0.0,-0.0045,-0.009,-0.009,-0.009,-0.0045,0.0135,0.0224,0.0314,0.0448,0.0762,0.1031,0.1256,0.13,0.1345,0.1345,0.1391,0.1391,0.1391,0.1391,0.1391,0.1391,0.1391,0.1391,0.1391,0.1391,0.1391,0.1391,0.1391,0.1451,0.148,0.1455,0.1548,0.1757,0.1773,0.0,0.0,0.0,0.0,0.3582,0.3272,0.0,0.3408,0.3628,0.3807,0.3987,0.4295,0.4699,0.5149,0.0,0.6074,0.6299,0.0,0.0,0.0,0.0,0.0,0.0,0.0,0.0,0.0,0.0,0.0,0.0,0.506,0.4748,0.4482,0.0,0.0,0.0,0.0,0.0,0.0,0.0,0.0,0.0,0.0,0.0,0.0,0.0,0.0,0.0,0.0,0.5688,0.5688,0.5688,0.5688,0.5688,0.5688,0.5688,0.5688,0.5688,0.5688,0.5688,0.5644,0.5367,0.5178,0.5112,0.4684,0.4471,0.4446,0.4344,0.4298,0.4256,0.4394,0.4465,0.4465,0.4616,0.4384,0.3923,0.3923,0.4116,0.4389,0.4426,0.454,0.4732,0.0,0.0,0.0045,0.018,0.018,0.0269,0.0493,0.0673,0.0807,0.0897,0.1121,0.13,0.1391,0.1391,0.1391,0.1391,0.1391,0.1391,0.1391,0.1391,0.1391,0.1391,0.1391,0.1391,0.1391,0.1391,0.148,0.1615,0.1615,0.1668,0.1868,0.1804,0.1849,0.2004,0.2253,0.2599,0.0,0.0,0.3939,0.4385,0.3805,0.0,0.3987,0.4342,0.4607,0.4919,0.5275,0.5722,0.6166,0.6738,0.6959,0.0,0.0,0.7496,0.7496,0.0,0.718,0.6915,0.0,0.0,0.0,0.6293,0.0,0.0,0.0,0.546,0.5191,0.0,0.0,0.0,0.0,0.0,0.0,0.0,0.0,0.0,0.0,0.0,0.0,0.0,0.0,0.0,0.0,0.5688,0.5688,0.5688,0.5688,0.5688,0.5688,0.5688,0.5661,0.5602,0.5599,0.557,0.5553,0.5403,0.5257,0.5196,0.4839,0.4716,0.4738,0.4604,0.4657,0.4851,0.4971,0.5126,0.5321,0.5395,0.5395,0.5321,0.4854,0.4815,0.501,0.5243,0.5356,0.5473,0.009,0.009,0.018,0.0404,0.0448,0.0538,0.0762,0.0942,0.1121,0.1166,0.13,0.1391,0.1391,0.1391,0.1391,0.1391,0.1391,0.1391,0.1391,0.1391,0.1391,0.1391,0.1391,0.1436,0.148,0.148,0.1615,0.1885,0.193,0.2064,0.2243,0.2333,0.2333,0.2423,0.2823,0.3226,0.0,0.0,0.0,0.523,0.0,0.4518,0.461,0.5099,0.5453,0.5716,0.6257,0.6697,0.7088,0.7489,0.0,0.7669,0.794,0.8032,0.0,0.0,0.0,0.0,0.0,0.0,0.0,0.0,0.0,0.6564,0.0,0.0,0.0,0.5985,0.0,0.0,0.0,0.0,0.0,0.0,0.0,0.0,0.0,0.0,0.0,0.0,0.0,0.0,0.0,0.5733,0.5688,0.5688,0.5711,0.5742,0.5742,0.572,0.5662,0.5564,0.5515,0.5469,0.5413,0.5385,0.5325,0.5267,0.5087,0.5065,0.516,0.501,0.5165,0.5553,0.5592,0.5822,0.6173,0.6212,0.6444,0.6676,0.5864,0.5592,0.5709,0.6018,0.617,0.6247,0.0359,0.0359,0.0404,0.0628,0.0673,0.0762,0.1031,0.1076,0.1166,0.1345,0.1391,0.1391,0.1391,0.0,0.0,0.0,0.0,0.0,0.1391,0.0,0.1391,0.1391,0.1391,0.1525,0.1749,0.1749,0.1885,0.2154,0.2334,0.2424,0.2469,0.269,0.2913,0.3093,0.3406,0.0,0.0,0.0,0.5628,0.0,0.6425,0.6115,0.0,0.6074,0.6387,0.6748,0.7455,0.772,0.7808,0.0,0.8109,0.8157,0.0,0.852,0.0,0.0,0.0,0.0,0.0,0.0,0.0,0.0,0.7584,0.0,0.0,0.0,0.6962,0.6962,0.0,0.0,0.0,0.0,0.0,0.0,0.0,0.0,0.0,0.0,0.0,0.0,0.0,0.0,0.0,0.0,0.5688,0.5688,0.5804,0.5869,0.5869,0.5766,0.5703,0.5689,0.5518,0.5424,0.541,0.5301,0.5324,0.5471,0.5317,0.5449,0.5783,0.5783,0.6018,0.6444,0.6633,0.683,0.7065,0.7253,0.7369,0.733,0.6714,0.6679,0.6988,0.7026,0.718,0.7326,0.0403,0.0493,0.0,0.0897,0.0942,0.1031,0.1256,0.1256,0.13,0.1391,0.1391,0.1391,0.0,0.0,0.0,0.0,0.0,0.148,0.0,0.0,0.1705,0.1839,0.0,0.0,0.2019,0.2154,0.2378,0.278,0.3005,0.3361,0.3762,0.3894,0.4071,0.4251,0.4523,0.0,0.5542,0.0,0.0,0.0,0.0,0.0,0.0,0.7003,0.7272,0.7672,0.812,0.83,0.83,0.0,0.8428,0.0,0.0,0.0,0.0,0.0,0.0,0.0,0.0,0.0,0.0,0.0,0.0,0.0,0.7889,0.0,0.7584,0.0,0.0,0.0,0.0,0.0,0.0,0.0,0.0,0.0,0.0,0.0,0.0,0.0,0.0,0.0,0.0,0.0,0.0,0.0,0.602,0.6114,0.612,0.6065,0.5998,0.5924,0.5755,0.5595,0.5525,0.547,0.552,0.5714,0.5659,0.5938,0.6479,0.6479,0.6788,0.7288,0.7399,0.7518,0.7718,0.7834,0.7906,0.7983,0.7753,0.7595,0.7557,0.768,0.7757,0.7829,0.0807,0.0,0.0,0.0,0.1345,0.13,0.1391,0.1391,0.0,0.0,0.0,0.0,0.1391,0.148,0.0,0.0,0.0,0.1705,0.0,0.0,0.2019,0.0,0.0,0.0,0.0,0.0,0.305,0.3628,0.3941,0.4387,0.4961,0.5095,0.523,0.5408,0.0,0.5985,0.6425,0.0,0.0,0.7709,0.7984,0.8076,0.8076,0.7801,0.7933,0.8336,0.852,0.8612,0.8612,0.8612,0.8612,0.0,0.8612,0.0,0.0,0.0,0.0,0.0,0.8612,0.0,0.0,0.0,0.0,0.0,0.0,0.0,0.0,0.0,0.0,0.0,0.0,0.0,0.0,0.0,0.0,0.0,0.0,0.0,0.0,0.0,0.0,0.0,0.0,0.0,0.0,0.6239,0.6407,0.6507,0.66,0.6512,0.6438,0.6337,0.6053,0.5847,0.575,0.5831,0.5983,0.617,0.6212,0.6556,0.7134,0.7134,0.7437,0.7974,0.7974,0.8093,0.8255,0.8255,0.8365,0.8475,0.8475,0.8322,0.805,0.8212,0.8255,0.8255,0.1749,0.157,0.0,0.0,0.0,0.0,0.0,0.0,0.0,0.0,0.0,0.0,0.0,0.0,0.0,0.0,0.0,0.2199,0.2199,0.0,0.2289,0.0,0.0,0.2827,0.0,0.0,0.0,0.465,0.5137,0.545,0.5675,0.6118,0.634,0.6384,0.6647,0.6871,0.7095,0.7584,0.7937,0.8201,0.8472,0.8568,0.8564,0.0,0.8336,0.8568,0.8612,0.0,0.0,0.8612,0.8612,0.0,0.0,0.0,0.0,0.0,0.0,0.0,0.0,0.0,0.0,0.8612,0.0,0.0,0.0,0.0,0.8296,0.0,0.0,0.0,0.0,0.0,0.0,0.823,0.0,0.0,0.0,0.0,0.0,0.0,0.0,0.0,0.0,0.0,0.0,0.6857,0.6921,0.7078,0.7354,0.7043,0.6876,0.6872,0.6444,0.6167,0.6163,0.6444,0.6676,0.6865,0.7065,0.7369,0.7783,0.7783,0.7978,0.8365,0.8365,0.8479,0.8665,0.8665,0.8703,0.8699,0.8699,0.8699,0.8665,0.8665,0.8665,0.8665,0.0,0.0,0.0,0.0,0.0,0.0,0.0,0.193,0.0,0.0,0.0,0.0,0.0,0.0,0.2109,0.0,0.0,0.2512,0.2825,0.3048,0.0,0.0,0.0,0.4072,0.0,0.0,0.0,0.0,0.0,0.6511,0.6912,0.7048,0.7228,0.7408,0.0,0.7628,0.0,0.0,0.0,0.0,0.0,0.8612,0.8612,0.0,0.0,0.8612,0.8612,0.8612,0.0,0.8612,0.8612,0.8612,0.8612,0.8612,0.8612,0.8612,0.8612,0.0,0.0,0.0,0.8612,0.8612,0.0,0.0,0.0,0.0,0.0,0.0,0.0,0.0,0.0,0.0,0.8099,0.8143,0.8295,0.0,0.0,0.0,0.0,0.0,0.0,0.0,0.0,0.0,0.0,0.7305,0.7446,0.7565,0.7643,0.7547,0.7514,0.7514,0.7207,0.7057,0.7057,0.7138,0.7288,0.7514,0.7714,0.8021,0.8394,0.8546,0.8742,0.898,0.898,0.9051,0.9089,0.9089,0.9089,0.9089,0.9089,0.9089,0.9051,0.8818,0.8703,0.8703,0.4249,0.0,0.0,0.0,0.0,0.0,0.0,0.0,0.0,0.0,0.2378,0.0,0.2334,0.0,0.2647,0.0,0.296,0.3227,0.3715,0.3896,0.0,0.4431,0.483,0.0,0.0,0.0,0.0,0.0,0.0,0.7356,0.7753,0.7845,0.7981,0.8164,0.0,0.8208,0.0,0.0,0.8428,0.0,0.0,0.8612,0.0,0.0,0.8612,0.8612,0.0,0.8612,0.8612,0.8612,0.8612,0.8612,0.8696,0.8696,0.874,0.8828,0.8828,0.8828,0.8828,0.8828,0.0,0.8828,0.8777,0.0,0.8526,0.0,0.0,0.0,0.0,0.0,0.0,0.0,0.0,0.8178,0.8327,0.8441,0.0,0.8627,0.0,0.0,0.0,0.0,0.0,0.0,0.794,0.8016,0.8165,0.8241,0.0,0.0,0.8237,0.8237,0.8016,0.794,0.794,0.8016,0.8089,0.8237,0.8441,0.8675,0.8932,0.9046,0.9165,0.9284,0.9284,0.9284,0.9284,0.9284,0.9284,0.9284,0.9284,0.9284,0.9284,0.9013,0.8861,0.8784,0.0,0.0,0.0,0.0,0.3583,0.0,0.0,0.0,0.2868,0.0,0.2825,0.2868,0.2603,0.3004,0.3361,0.3631,0.3851,0.0,0.4739,0.4783,0.0,0.0,0.5677,0.5985,0.6428,0.0,0.0,0.0,0.0,0.0,0.8245,0.8476,0.8612,0.8612,0.8612,0.0,0.8612,0.8612,0.8612,0.8612,0.8612,0.8612,0.8612,0.8612,0.8612,0.8612,0.8612,0.8612,0.8612,0.8612,0.8612,0.8652,0.8872,0.8911,0.8955,0.9218,0.9305,0.9305,0.9305,0.9305,0.9301,0.9292,0.0,0.0,0.0,0.0,0.8418,0.0,0.0,0.0,0.0,0.0,0.0,0.8365,0.8441,0.8479,0.8703,0.0,0.0,0.0,0.0,0.0,0.0,0.8703,0.8813,0.9003,0.9003,0.9084,0.0,0.0,0.9003,0.9003,0.8813,0.8742,0.8742,0.8927,0.9003,0.9003,0.9203,0.9322,0.9322,0.9322,0.9322,0.9322,0.9322,0.9322,0.9322,0.9322,0.9322,0.9322,0.9322,0.9322,0.9322,0.9322,0.9175,0.8984,0.603,0.603,0.5941,0.0,0.4875,0.4251,0.0,0.0,0.0,0.0,0.3898,0.3896,0.3853,0.4117,0.4385,0.461,0.5008,0.0,0.0,0.0,0.0,0.6428,0.6823,0.7092,0.7224,0.7625,0.0,0.8021,0.0,0.0,0.852,0.8564,0.8612,0.8612,0.0,0.0,0.8612,0.8612,0.8612,0.8612,0.8612,0.8612,0.0,0.0,0.8696,0.8784,0.8652,0.8612,0.8612,0.8784,0.8828,0.8867,0.913,0.9218,0.9218,0.9262,0.9305,0.9305,0.9305,0.9305,0.9266,0.9073,0.8951,0.8837,0.0,0.0,0.0,0.0,0.0,0.0,0.0,0.0,0.0,0.0,0.0,0.0,0.0,0.0,0.0,0.9132,0.0,0.0,0.0,0.8903,0.9018,0.9208,0.9241,0.9246,0.0,0.0,0.0,0.9241,0.917,0.9132,0.9132,0.9203,0.9241,0.9241,0.9435,0.9511,0.9544,0.9695,0.9733,0.9733,0.9733,0.9733,0.9733,0.9733,0.9733,0.9733,0.9733,0.9733,0.9695,0.9397,0.9284,0.9213,0.6877,0.0,0.0,0.6741,0.0,0.0,0.5008,0.0,0.0,0.479,0.4877,0.0,0.479,0.5099,0.5408,0.5586,0.5941,0.0,0.0,0.0,0.0,0.7272,0.7621,0.7801,0.7801,0.8157,0.0,0.838,0.0,0.0,0.8612,0.8612,0.8612,0.8612,0.0,0.8612,0.0,0.8612,0.8612,0.8612,0.8696,0.0,0.0,0.8872,0.8955,0.9043,0.8959,0.8915,0.8915,0.9043,0.9087,0.913,0.9345,0.9432,0.9476,0.9563,0.9607,0.9589,0.9459,0.9436,0.9386,0.9131,0.9018,0.8937,0.8829,0.8714,0.8695,0.0,0.0,0.0,0.0,0.0,0.0,0.0,0.0,0.0,0.0,0.0,0.0,0.0,0.0,0.0,0.0,0.9246,0.9359,0.9549,0.9544,0.9544,0.0,0.0,0.0,0.9544,0.9544,0.9544,0.9544,0.9544,0.962,0.9695,0.9809,0.9922,0.9997,1.0105,1.0143,1.0143,1.0143,1.0143,1.0143,1.0143,1.0143,1.0143,1.0143,1.0143,1.0143,0.9922,0.9657,0.9435,0.0,0.0,0.0,0.0,0.0,0.0,0.0,0.5941,0.0,0.5636,0.0,0.5811,0.5636,0.6035,0.6346,0.6517,0.0,0.7177,0.7577,0.7621,0.776,0.7988,0.816,0.8245,0.8245,0.8476,0.0,0.0,0.0,0.0,0.8612,0.8612,0.8612,0.0,0.0,0.0,0.0,0.87,0.8696,0.0,0.8867,0.8955,0.8999,0.9218,0.9349,0.9388,0.9388,0.9349,0.9305,0.9388,0.9388,0.9432,0.9689,0.9733,0.9777,1.0038,1.0062,1.0,0.9733,0.9667,0.9596,0.9377,0.9192,0.9134,0.9262,0.9154,0.9099,0.9284,0.9322,0.9359,0.0,0.0,0.0,0.0,0.0,0.0,0.0,0.0,0.0,0.0,0.0,0.0,0.0,0.0,0.9733,0.9916,0.996,0.0,0.0,0.0,0.0,0.9992,0.9992,0.9992,0.9992,0.0,1.0067,1.0255,1.0255,1.0368,1.0556,1.0556,1.0588,1.0588,1.0588,1.0588,1.0588,1.0588,1.0588,1.0588,1.0625,1.0594,1.0588,1.0625,1.0255,0.9771,0.0,0.0,0.0,0.0,0.0,0.7937,0.7588,0.7143,0.683,0.6786,0.683,0.683,0.6786,0.7092,0.7268,0.7312,0.7709,0.0,0.0,0.0,0.0,0.8476,0.852,0.852,0.852,0.8568,0.8612,0.0,0.0,0.0,0.8612,0.8612,0.8612,0.0,0.0,0.0,0.8867,0.9087,0.0,0.9174,0.9218,0.9218,0.9218,0.9301,0.9519,0.9868,0.9868,0.965,0.9345,0.9733,0.9868,0.9951,1.0381,1.0511,1.0511,1.0554,1.0429,1.0236,1.0201,1.002,0.979,0.9597,0.9518,0.9443,0.9341,0.9276,0.9322,0.9511,0.9549,0.9582,0.9771,0.0,0.0,0.0,0.0,0.0,0.0,0.0,0.0,0.0,0.0,0.0,0.0,0.0,0.0,0.0,0.0,0.0,0.0,0.0,0.0,0.0,1.0406,0.0,0.0,0.0,1.0406,1.0443,1.0625,1.07,1.0738,1.0925,1.0999,1.0999,1.0999,1.0999,1.0999,1.0999,1.0999,1.0999,1.1186,1.1149,1.1037,1.1186,1.1074,1.0775,0.0,0.0,0.0,0.0,0.0,0.0,0.0,0.8032,0.0,0.754,0.7496,0.7496,0.7496,0.7713,0.7845,0.7845,0.8204,0.8428,0.8428,0.852,0.8612,0.8612,0.8612,0.0,0.8612,0.8696,0.874,0.874,0.0,0.0,0.8959,0.8959,0.0,0.8959,0.0,0.8999,0.0,0.0,0.0,0.9476,0.9607,0.9738,0.982,0.9951,1.0207,1.0511,1.0511,1.0424,1.0337,1.0381,1.0424,1.0554,1.0771,1.0818,1.0804,1.0804,1.0606,1.0362,1.0278,1.0169,1.0029,0.98,0.9743,0.975,0.9759,0.9846,0.9992,1.018,1.0331,1.0406,1.0513,1.0513,0.0,0.0,0.0,0.0,0.0,0.0,0.0,0.0,0.0,0.0,0.0,0.0,0.0,0.0,0.0,0.0,0.0,0.0,0.0,0.0,0.0,0.0,0.0,0.0,0.0,1.0962,1.1186,1.1335,1.1446,1.1632,1.1706,1.1706,1.1706,1.1706,1.1706,1.1706,1.1781,1.1892,1.1966,1.204,1.204,1.204,1.1966,1.1744,0.0,0.8612,0.0,0.0,0.8612,0.0,0.8612,0.8612,0.8476,0.8076,0.8032,0.8032,0.8032,0.8204,0.8292,0.8292,0.8476,0.8612,0.8612,0.8612,0.8612,0.8612,0.8656,0.8656,0.8656,0.8867,0.8999,0.0,0.0,0.0,0.0,0.9305,0.0,0.0,0.0,0.0,0.0,0.0,0.9738,0.9907,1.0125,1.0337,1.0554,1.0814,1.1025,1.1241,1.1284,1.1413,1.1531,1.123,1.116,1.123,1.1268,1.1255,1.1175,1.1125,1.0898,1.0674,1.0511,1.0418,1.0335,1.0187,1.0143,1.0218,1.0368,1.055,1.0738,1.0962,1.1186,1.1372,1.1372,1.1372,0.0,0.0,0.0,0.0,0.0,0.0,0.0,0.0,0.0,0.0,0.0,0.0,0.0,0.0,0.0,0.0,0.0,0.0,0.0,0.0,0.0,1.1074,1.1074,0.0,1.1446,1.1669,1.1855,1.2077,1.2261,1.2452,1.2562,1.2562,1.2562,1.2562,1.2562,1.2562,1.2636,1.2783,1.2826,1.2936,1.301,1.29,1.282,1.2673,0.0,0.0,0.0,0.0,0.0,0.0,0.8612,0.8612,0.8568,0.8524,0.8524,0.8524,0.8524,0.8564,0.8564,0.8564,0.8568,0.8612,0.8612,0.8612,0.8612,0.8612,0.8784,0.8867,0.8867,0.913,0.9262,0.0,0.0,0.0,0.0,0.0,0.0,0.0,0.0,0.0,0.0,1.0467,1.0684,1.0852,1.0895,1.1025,1.1241,1.1499,1.1714,1.1929,1.2192,1.2406,1.2541,1.2469,1.2211,1.1932,1.2129,1.2165,1.2099,1.1815,1.1571,1.1403,1.1379,1.1188,1.1029,1.1005,1.0999,1.0999,1.0999,1.1186,1.1372,1.1558,1.1929,1.2194,1.2194,1.2194,1.2268,0.0,0.0,0.0,0.0,0.0,0.0,0.0,0.0,0.0,0.0,0.0,0.0,0.0,0.0,0.0,0.0,0.0,0.0,1.1595,0.0,1.1892,1.1892,1.2077,1.2298,1.2489,1.2673,1.29,1.3083,1.3309,1.3382,1.3382,1.3382,1.3382,1.3382,1.3382,1.3382,1.3419,1.3608,1.3608,1.3455,1.3645,1.3572,1.3382,0.0,0.0,0.0,0.0,0.0,0.0,0.0,0.8915,0.8955,0.878,0.8656,0.8612,0.8612,0.8612,0.8612,0.8612,0.8612,0.8652,0.8784,0.8784,0.8872,0.8999,0.9087,0.913,0.913,0.9345,0.9563,0.0,0.0,0.0,0.0,0.0,0.0,0.0,0.0,1.0809,1.0939,1.1198,1.1413,1.1628,1.1763,1.1972,1.2186,1.24,1.2619,1.2875,1.3088,1.3199,1.3249,1.3333,1.2994,1.2546,1.261,1.2563,1.2516,1.2362,1.2177,1.1997,1.1997,1.1908,1.1818,1.1818,1.1818,1.1818,1.1818,1.2077,1.2335,1.2415,1.2746,1.301,1.301,1.301,1.3046,0.0,0.0,0.0,0.0,0.0,0.0,0.0,0.0,0.0,0.0,0.0,0.0,0.0,0.0,0.0,0.0,0.0,0.0,1.2224,0.0,1.2599,1.2709,1.2936,1.3046,1.3119,1.3477,1.3659,1.3739,1.4029,1.4173,1.4173,1.4173,1.4173,1.4173,1.4173,1.4217,1.4361,1.4441,1.4469,1.4533,1.4469,1.4405,1.4325,0.9519,0.0,0.9519,0.0,0.9432,0.9301,0.9126,0.9218,0.9218,0.9043,0.8915,0.8828,0.8828,0.8828,0.8828,0.8828,0.8828,0.8872,0.8999,0.8999,0.9087,0.9305,0.9432,0.0,0.9519,0.9777,1.0038,1.0212,1.0424,0.0,0.0,0.0,0.0,0.0,1.1542,1.1671,1.1714,1.1972,1.2229,1.2448,1.2662,1.2918,1.313,1.3343,1.3503,1.3642,1.39,1.3919,1.3857,1.3954,1.368,1.3253,1.3008,1.2951,1.2947,1.2866,1.2763,1.2636,1.2636,1.2636,1.2636,1.2636,1.2636,1.2636,1.2636,1.2936,1.3193,1.3222,1.3484,1.3674,1.3674,1.3674,1.371,1.3746,0.0,0.0,0.0,0.0,0.0,0.0,0.0,1.4669,1.4784,0.0,0.0,0.0,0.0,0.0,0.0,0.0,0.0,0.0,0.0,0.0,0.0,1.371,1.3855,1.3928,1.4209,1.4382,1.4418,1.4669,1.4776,1.4776,1.4776,1.4776,1.4776,1.4776,1.4856,1.5007,1.5007,1.507,1.5169,1.5034,1.5007,1.4971,0.9994,0.9994,0.9994,0.9994,0.9777,0.9602,0.9602,0.9432,0.9305,0.9305,0.9305,0.9305,0.9305,0.9305,0.9305,0.9305,0.9305,0.9305,0.9305,0.9305,0.9305,0.0,0.0,0.9994,0.9994,1.0467,1.0684,1.0684,0.0,0.0,1.1025,0.0,1.1929,1.2363,1.2406,1.2491,1.2705,1.2918,1.3137,1.3398,1.361,1.3857,1.4097,1.4307,1.4289,1.4238,1.4488,1.4496,1.4375,1.4244,1.4178,1.4095,1.3476,1.3431,1.3525,1.3256,1.3346,1.3492,1.3492,1.3492,1.3492,1.3492,1.3492,1.3492,1.3492,1.3645,1.3863,1.4021,1.4093,1.4093,1.4093,1.4093,1.4165,1.4361,0.0,0.0,0.0,0.0,0.0,0.0,1.5196,1.5196,1.5196,0.0,0.0,0.0,0.0,0.0,0.0,0.0,0.0,1.3796,1.3985,0.0,1.431,1.4489,1.4677,1.4872,1.49,1.4999,1.5204,1.5196,1.5196,1.5196,1.5196,1.5196,1.5196,1.5196,1.5196,1.5204,1.5204,1.5204,1.5204,1.5204,1.5204,1.5204,1.0895,1.0895,1.0895,1.0895,1.0809,1.0722,1.0598,1.0641,1.0593,1.0467,1.0598,1.0593,1.0467,0.9777,0.9305,0.0,0.9432,0.9559,0.0,0.9907,1.0081,1.0255,1.0511,1.0684,1.0684,1.0939,1.1284,1.1585,0.0,0.0,0.0,1.2705,1.3003,1.3307,1.3464,1.3597,1.3652,1.3851,1.4019,1.4104,1.4314,1.4407,1.4467,1.4678,1.4648,1.4564,1.4793,1.4741,1.4524,1.4494,1.4305,1.4115,1.3925,1.3888,1.3902,1.3834,1.384,1.392,1.392,1.392,1.392,1.392,1.392,1.392,1.392,1.4065,1.4253,1.4425,1.4453,1.4453,1.4453,1.4453,1.4497,1.4721,1.4756,0.0,0.0,0.0,0.0,0.0,0.0,1.5461,0.0,1.5497,0.0,0.0,0.0,0.0,0.0,0.0,0.0,0.0,1.4613,0.0,1.4911,1.4991,1.5026,1.5098,1.5248,1.5399,1.5611,1.5611,1.5611,1.5611,1.5611,1.5611,1.5611,1.5744,1.5815,1.5806,1.5921,1.5885,1.5815,1.5815,1.5718,1.5611,1.1843,1.1843,1.1843,1.1843,1.1757,1.1671,1.1542,1.1542,1.1542,1.137,1.1499,1.1499,1.1284,1.0641,0.0,0.9864,0.9994,1.0207,1.0381,1.0549,1.0814,1.1073,1.1284,1.1413,1.1499,1.1714,0.0,1.2357,1.2528,1.2954,1.3548,1.3682,1.3899,1.4068,1.4272,1.4321,1.4334,1.465,1.4705,1.4607,1.4937,1.4906,1.4743,1.4909,1.4866,1.4736,1.4874,1.4773,1.4599,1.4599,1.4452,1.4274,1.4274,1.4274,1.4274,1.4245,1.4238,1.4274,1.4274,1.4274,1.4274,1.4274,1.4274,1.4274,1.4274,1.4389,1.4497,1.4569,1.4641,1.4713,1.4713,1.4784,1.4883,1.4999,1.4999,1.507,1.5275,0.0,0.0,0.0,0.0,0.0,0.0,1.5691,1.5611,0.0,0.0,0.0,0.0,0.0,0.0,1.5229,1.5229,0.0,1.5594,1.5594,1.5594,1.5594,1.5744,1.5859,1.6008,1.6008,1.6008,1.6008,1.6008,1.6008,1.6008,1.6105,1.6167,1.6167,1.6272,1.6237,1.6167,1.6167,1.6105,1.6008,1.279,1.279,1.279,0.0,1.2619,0.0,1.2534,1.232,1.2143,1.2143,1.2143,1.2057,1.1843,1.1806,1.1542,1.0901,0.0,0.0,0.0,1.1284,1.1499,1.1763,1.1972,1.2229,1.2491,1.2705,1.2918,1.3088,1.3561,1.3984,1.444,1.444,1.4566,1.4776,1.4776,1.4776,1.4817,1.5247,1.5245,1.4981,1.5393,1.5332,1.4988,1.4988,1.4896,1.4791,1.4791,1.4691,1.4605,1.4605,1.4605,1.4605,1.4605,1.4605,1.4569,1.4461,1.4497,1.4605,1.4605,1.4605,1.4605,1.4605,1.4605,1.4605,1.4641,1.4641,1.4641,1.4641,1.4792,1.49,1.49,1.507,1.5204,1.524,1.524,1.5311,1.5497,0.0,0.0,0.0,0.0,0.0,0.0,1.5832,1.5832,0.0,0.0,0.0,0.0,0.0,1.5461,1.5832,1.5832,1.5973,1.6307,1.6307,1.6307,1.6307,1.6307,1.6307,1.6307,1.6307,1.6307,1.6307,1.6307,1.6307,1.6307,1.6307,1.6307,1.6307,1.6342,1.6342,1.6307,1.6307,1.6307,1.6307,0.0,0.0,1.3779,1.3766,1.3717,1.3717,1.3717,1.3646,1.3603,1.3591,1.3591,1.3464,1.3045,1.3009,1.2833,1.2491,1.2015,1.1843,1.2063,1.2272,1.2485,1.2662,1.2918,1.3179,1.3392,1.3639,1.3886,1.4055,1.4314,1.4615,1.4915,1.4915,1.5117,1.5443,1.5443,1.5575,1.5775,1.5601,1.5531,1.544,1.5215,1.5019,1.4871,1.4871,1.4766,1.4651,1.4651,1.464,1.4605,1.4605,1.4605,1.4605,1.4605,1.4605,1.4605,1.4569,1.4569,1.4605,1.4605,1.4605,1.4605,1.4605,1.4721,1.4864,1.5026,1.5062,1.5062,1.5062,1.5098,1.5133,1.5133,1.5169,1.524,1.539,1.5576,1.5726,1.5921,1.6061,0.0,0.0,1.6175,1.6175,1.6175,1.6175,1.6175,0.0,0.0,0.0,0.0,1.6132,1.6096,1.6175,1.6175,1.6211,1.6307,1.6307,1.6307,1.6307,1.6307,1.6307,1.6307,1.6307,1.6307,1.6307,1.6307,1.6307,1.6307,1.6473,1.6542,1.6542,1.6691,1.6656,1.6542,1.6542,1.6438,1.6307,1.4356,1.4363,1.4363,1.4356,1.4356,1.4356,1.4356,1.4363,1.4363,1.4356,1.4356,1.423,1.3893,1.3857,1.3808,1.3633,1.3039,1.2747,1.296,1.3215,1.3421,1.3633,1.3766,1.4026,1.4328,1.4489,1.4692,1.4977,1.5242,1.5416,1.5548,1.5548,1.5665,1.5865,1.5707,1.5728,1.5876,1.5619,1.542,1.5219,1.5149,1.4937,1.4736,1.4817,1.4808,1.4756,1.4848,1.4883,1.4883,1.4883,1.4883,1.4883,1.4883,1.4883,1.4883,1.4883,1.4748,1.4605,1.4605,1.4677,1.4748,1.4856,1.4963,1.507,1.5169,1.5275,1.5346,1.5346,1.5488,1.5594,1.5594,1.5665,1.5736,1.585,1.6026,1.6202,1.6298,1.6482,0.0,1.6551,1.6551,1.6551,1.6551,1.6551,1.6551,1.6551,1.6551,0.0,1.6716,1.6716,1.6612,1.6438,1.6438,1.6473,1.6551,1.6551,1.6551,1.6551,1.6551,1.6551,1.6551,1.6551,1.6551,1.6551,1.6551,1.6551,1.6586,1.6682,1.6751,1.6751,1.6864,1.683,1.6751,1.6751,1.6656,1.6551,1.4824,1.4824,1.4824,1.4824,1.4824,1.4824,1.4824,1.4824,1.4824,1.4824,1.4824,1.4741,1.4524,1.4524,1.4559,1.4559,1.4062,1.3773,1.3857,1.4104,1.4349,1.4559,1.4559,1.4783,1.5257,1.5257,1.5416,1.5775,1.6004,1.6087,1.6087,1.6087,1.6105,1.6044,1.5754,1.5633,1.5604,1.5459,1.5216,1.4934,1.5118,1.4984,1.4713,1.49,1.4935,1.4971,1.5133,1.524,1.524,1.524,1.5275,1.5303,1.5303,1.5303,1.5303,1.5303,1.5062,1.4784,1.4713,1.482,1.5007,1.524,1.5275,1.5311,1.5382,1.5524,1.5674,1.5718,1.6026,1.6272,1.6272,1.6377,1.6482,1.6482,1.6647,1.6777,1.6777,0.0,1.7081,1.7081,1.7081,1.7081,1.7081,1.7081,1.7081,1.7081,1.7081,1.7141,1.7314,1.7304,1.7166,1.6881,1.6777,1.6821,1.6978,1.6978,1.6978,1.6978,1.6978,1.6978,1.6978,1.6978,1.6978,1.6978,1.6978,1.6978,1.6978,1.6978,1.6943,1.6934,1.6908,1.6908,1.6908,1.6943,1.6943,1.6943,1.5298,1.5298,1.5298,1.5298,1.5298,1.5298,1.5298,1.5298,1.5298,1.5298,1.5298,1.5215,1.4999,1.5151,1.5228,1.5228,1.5318,1.511,1.4566,1.479,1.5033,1.5228,1.5401,1.5658,1.5922,1.5922,1.5963,1.6046,1.6087,1.6087,1.6087,1.6087,1.6024,1.5949,1.5894,1.5779,1.566,1.5538,1.5436,1.5393,1.523,1.5147,1.5098,1.5133,1.5133,1.5169,1.5204,1.5311,1.5461,1.5461,1.5559,1.5692,1.5692,1.5692,1.5692,1.5692,1.5657,1.5551,1.5204,1.5133,1.5248,1.5611,1.5726,1.5823,1.6289,1.6394,1.6473,1.6656,1.6864,1.7028,1.7028,1.7132,1.7235,1.7235,1.7407,1.7535,1.7535,0.0,1.7837,1.7837,1.7837,1.7837,1.7837,1.7837,1.7837,1.7837,1.7837,1.7837,1.7872,1.7872,1.793,1.8022,1.7588,1.7367,1.7401,1.7401,1.7401,1.7401,1.7401,1.7401,1.7401,1.7401,1.7401,1.7401,1.7401,1.7401,1.7392,1.721,1.7132,1.7132,1.6978,1.6908,1.6908,1.7107,1.7132,1.7132,1.5389,1.5389,1.5389,1.5389,1.5389,1.5389,1.5389,1.5389,1.5389,1.5389,1.5506,1.5541,1.5416,1.5616,1.5782,1.5782,1.5865,1.579,1.545,1.5582,1.5673,1.5782,1.5873,1.6038,1.6237,1.6368,1.6409,1.6409,1.6409,1.6316,1.6129,1.6129,1.607,1.5967,1.5776,1.5677,1.5672,1.5426,1.5352,1.5335,1.535,1.5355,1.539,1.5603,1.5665,1.57,1.5903,1.6009,1.6123,1.6202,1.6307,1.6403,1.6403,1.6403,1.6403,1.6403,1.6123,1.5762,1.57,1.5736,1.5842,1.6167,1.6377,1.6621,1.6855,1.7054,1.726,1.7467,1.7647,1.7818,1.791,1.7935,1.8003,1.8003,1.8148,0.0,0.0,1.8472,1.8607,1.8607,1.8607,1.8607,1.8607,1.8607,1.8607,1.8607,1.8607,1.8607,1.8607,1.8664,1.8754,1.8854,1.8317,1.8056,1.8056,1.8056,1.7988,1.794,1.794,1.7872,1.7779,1.7779,1.7779,1.7779,1.7779,1.7701,1.7588,1.751,1.7442,1.7358,1.7254,1.722,1.722,1.7323,1.7358,1.7358,1.5389,1.5389,1.5389,1.5389,1.5389,1.5431,1.5465,1.5465,1.5506,1.5548,1.5707,1.5782,1.5782,1.6038,1.6211,1.6252,1.6294,1.6335,1.6417,1.6417,1.6335,1.617,1.6211,1.6327,1.6476,1.6607,1.6689,1.6689,1.6651,1.6516,1.6285,1.6245,1.6137,1.5935,1.5658,1.5598,1.5645,1.5436,1.5382,1.5453,1.5665,1.578,1.585,1.6167,1.6307,1.6377,1.6647,1.6777,1.6881,1.7028,1.7107,1.7151,1.721,1.7245,1.7245,1.7279,1.6881,1.642,1.6403,1.6482,1.6621,1.6846,1.7157,1.7407,1.7545,1.7774,1.8012,1.8206,1.8395,1.8563,1.8654,1.871,1.8744,1.8744,0.0,0.0,0.0,1.9231,1.933,1.933,1.933,1.933,1.933,1.933,1.933,1.933,1.933,1.933,1.933,1.9441,1.9529,1.9606,1.9044,1.8744,1.8744,1.8744,1.8687,1.8607,1.8607,1.8506,1.8381,1.8337,1.8303,1.8303,1.8269,1.8134,1.7944,1.791,1.7818,1.7676,1.7642,1.7608,1.7608,1.7676,1.7701,1.7676,1.5389,1.5389,1.5389,1.5389,1.5389,1.5465,1.5658,1.5692,1.5782,1.6004,1.6046,1.6087,1.6087,1.6237,1.6443,1.6656,1.6894,1.7098,1.727,1.731,1.7025,1.6394,1.6566,1.6656,1.6697,1.6689,1.6689,1.6689,1.6573,1.6484,1.6491,1.6354,1.6078,1.5716,1.5692,1.5604,1.5539,1.5699,1.5938,1.6237,1.6438,1.6612,1.6804,1.6839,1.6968,1.7132,1.7132,1.7373,1.7638,1.7638,1.7759,1.794,1.8134,1.8202,1.8226,1.8341,1.8331,1.8162,1.751,1.7314,1.7407,1.7799,1.7935,1.807,1.8563,1.8707,1.8774,1.8965,1.9142,1.9241,1.9241,1.9374,1.9506,1.9506,0.0,0.0,1.9835,1.9955,2.0042,2.0042,2.0042,2.0042,2.0042,2.0042,2.0042,2.0042,2.0042,2.0042,2.0042,2.0031,2.0172,2.0506,1.9857,1.9506,1.9506,1.9506,1.9506,1.9506,1.9506,1.9506,1.9473,1.9287,1.921,1.921,1.9065,1.8898,1.8707,1.8519,1.8351,1.8202,1.8042,1.7974,1.7974,1.8168,1.8236,1.8202,1.5839,1.5839,1.5839,1.5839,1.5839,1.5839,1.5955,1.5955,1.6038,1.6237,1.6409,1.6533,1.6689,1.6894,1.7057,1.7147,1.7229,1.731,1.7392,1.7392,1.727,1.7017,1.7106,1.7147,1.7147,1.7147,1.6993,1.6757,1.6707,1.6452,1.601,1.6076,1.6003,1.5751,1.5994,1.6121,1.6193,1.6386,1.663,1.6855,1.7028,1.7235,1.7407,1.7691,1.7828,1.792,1.8124,1.8259,1.8395,1.8529,1.863,1.8707,1.8774,1.8808,1.8831,1.8965,1.8998,1.8965,1.8798,1.8529,1.8293,1.8462,1.8664,1.8898,1.9208,1.9374,1.9572,1.9846,1.9944,2.0009,2.014,2.0237,2.027,2.027,0.0,2.0399,2.0399,2.0432,2.0485,2.0485,2.0485,2.0485,2.0485,2.0539,2.0603,2.0603,2.07,2.0764,2.0764,2.0848,2.1019,2.1265,2.1042,2.0807,2.0582,2.0582,2.0485,2.0215,2.0356,2.0215,1.9911,1.9966,1.9901,1.9802,1.9737,1.9627,1.9473,1.9264,1.9164,1.9108,1.8888,1.8821,1.8821,1.8877,1.8865,1.8774,1.6294,1.6294,1.6294,1.6294,1.6294,1.6335,1.6409,1.6409,1.6492,1.6763,1.6927,1.7098,1.7343,1.7505,1.7635,1.7716,1.7749,1.7829,1.7919,1.7951,1.7829,1.7505,1.7554,1.7595,1.7595,1.7478,1.7246,1.6988,1.6832,1.6464,1.597,1.6107,1.6144,1.607,1.6412,1.6682,1.6846,1.7063,1.7339,1.7638,1.7706,1.791,1.8182,1.8438,1.8573,1.864,1.8875,1.9008,1.9075,1.9208,1.9274,1.9274,1.9341,1.9374,1.944,1.9615,1.9648,1.9681,1.9878,1.9671,1.9374,1.9231,1.944,1.9714,1.9911,2.0042,2.0237,2.0443,2.0475,2.054,2.0669,2.0701,2.0701,2.0701,2.0733,2.0754,2.0754,2.085,2.0914,2.0914,2.099,2.1022,2.1022,2.1117,2.1169,2.1169,2.1265,2.1371,2.1371,2.1474,2.1632,2.1761,2.1824,2.1749,2.1517,2.1423,2.1233,2.0935,2.1106,2.0967,2.0592,2.0688,2.0645,2.0516,2.0463,2.0313,2.0096,1.9966,1.9889,1.9824,1.9704,1.9671,1.9704,1.9661,1.9573,1.9452,1.6689,1.6689,1.6689,1.6697,1.6697,1.6812,1.7057,1.7098,1.7253,1.7659,1.77,1.7781,1.7991,1.7991,1.8121,1.8402,1.8585,1.8785,1.9002,1.9192,1.8816,1.7781,1.791,1.7991,1.7991,1.7607,1.741,1.7402,1.6862,1.66,1.6591,1.6616,1.6603,1.6638,1.7028,1.727,1.7407,1.7647,1.8003,1.8509,1.8509,1.8754,1.9108,1.9108,1.9208,1.9318,1.9318,1.944,1.9605,1.9605,1.9605,1.9638,1.9835,2.0009,2.0151,2.0346,2.041,2.0443,2.0637,2.0701,2.0604,2.0204,2.0259,2.0443,2.0669,2.0701,2.0701,2.0701,2.0701,2.0701,2.0701,2.0701,2.0701,2.0701,2.0818,2.0903,2.0903,2.1178,2.1388,2.1388,2.158,2.1698,2.1698,2.1698,2.1698,2.1698,2.1698,2.1698,2.1698,2.1843,2.1894,2.1894,2.2092,2.2197,2.2197,2.1886,2.1698,2.1698,2.1698,2.1698,2.1698,2.1506,2.1388,2.1388,2.1253,2.0967,2.0603,2.0614,2.0528,2.042,2.042,2.0495,2.0603,2.0463,2.0399,2.0366,1.7853,1.7821,1.7781,1.7627,1.7627,1.7635,1.7708,1.7861,1.8055,1.8376,1.8505,1.8674,1.8904,1.8904,1.8944,1.9024,1.9213,1.9402,1.9599,1.9805,1.9805,1.949,1.9094,1.8779,1.8509,1.8383,1.8042,1.7485,1.7325,1.7179,1.7038,1.7119,1.7295,1.7594,1.7935,1.8216,1.8405,1.8596,1.8831,1.9065,1.9065,1.9208,1.9473,1.9605,1.9671,1.9736,1.9813,1.9911,1.9944,1.9944,1.9944,1.9976,2.0172,2.0378,2.054,2.0604,2.0604,2.0637,2.0669,2.0754,2.0786,2.055,2.0561,2.0669,2.0818,2.0839,2.0871,2.101,2.1042,2.1042,2.1042,2.1042,2.1074,2.1178,2.121,2.1305,2.1434,2.1561,2.1624,2.1624,2.1655,2.1698,2.1698,2.1781,2.1843,2.1843,2.1968,2.2042,2.2042,2.2092,2.2092,2.2092,2.2154,2.2197,2.2197,2.2104,2.198,2.1843,2.1968,2.1917,2.1698,2.1737,2.1706,2.1624,2.1561,2.1466,2.1371,2.121,2.121,2.1296,2.1178,2.1135,2.1167,2.1135,2.104,2.0924,1.8856,1.8807,1.8736,1.8545,1.8505,1.8505,1.8505,1.8696,1.8895,1.9143,1.9341,1.9539,1.9775,1.9814,1.9814,1.9814,2.0001,2.0196,2.0391,2.0518,2.0527,2.0312,1.9956,1.9572,1.9164,1.8845,1.8432,1.7924,1.7765,1.7697,1.7647,1.7774,1.8012,1.8317,1.8654,1.8898,1.9008,1.9208,1.9374,1.9539,1.9539,1.9648,1.9813,1.9944,1.9976,1.9976,2.0074,2.0151,2.0216,2.0216,2.0281,2.0346,2.0475,2.0604,2.0701,2.0754,2.0786,2.0786,2.0894,2.0978,2.0999,2.0914,2.0882,2.0914,2.0999,2.1031,2.1063,2.1253,2.1273,2.1316,2.1391,2.1391,2.1423,2.1506,2.1506,2.1549,2.1667,2.1761,2.1781,2.1781,2.1855,2.1886,2.1886,2.1968,2.203,2.203,2.2123,2.2197,2.2197,2.2197,2.2197,2.2197,2.2247,2.2278,2.2278,2.234,2.2278,2.203,2.2216,2.2154,2.1968,2.2154,2.2154,2.2104,2.1999,2.1937,2.1886,2.1769,2.18,2.1886,2.1819,2.1839,2.1901,2.1808,2.1745,2.1663,1.9756,1.9717,1.9638,1.945,1.942,1.942,1.942,1.9608,1.9766,1.9981,2.0167,2.0362,2.0644,2.0644,2.0644,2.0644,2.0867,2.1069,2.1282,2.1242,2.104,2.0626,2.0535,2.0299,1.9944,1.9105,1.8658,1.8644,1.8262,1.8212,1.8405,1.8519,1.8687,1.8908,1.9218,1.9351,1.9384,1.9583,1.9736,1.99,1.99,2.0009,2.0118,2.0118,2.0151,2.014,2.014,2.0281,2.0443,2.0443,2.0572,2.0733,2.0733,2.0733,2.0765,2.0903,2.0935,2.0967,2.1158,2.1221,2.1221,2.1221,2.1221,2.1221,2.1221,2.1221,2.1285,2.14,2.1431,2.1463,2.1667,2.1698,2.1698,2.173,2.173,2.173,2.173,2.1843,2.1925,2.1925,2.2092,2.2197,2.2197,2.2197,2.2197,2.2197,2.2197,2.2197,2.2197,2.2228,2.2216,2.2216,2.2359,2.242,2.242,2.2616,2.258,2.232,2.2383,2.2445,2.2493,2.2641,2.272,2.269,2.2525,2.2371,2.2247,2.2247,2.2247,2.2247,2.2389,2.2555,2.2678,2.2482,2.242,2.242,2.0673,2.0624,2.0547,2.0362,2.0323,2.0323,2.0323,2.0479,2.0624,2.0673,2.0838,2.1012,2.1051,2.1089,2.1089,2.1089,2.1387,2.1683,2.1883,2.1728,2.155,2.1445,2.0726,2.0303,2.0233,1.9618,1.9205,1.8984,1.8882,1.8942,1.9075,1.9108,1.9308,1.9671,1.9736,1.9846,1.9911,1.9976,2.0009,2.0042,2.0042,2.0183,2.0335,2.0335,2.0443,2.0572,2.0572,2.0604,2.0637,2.0637,2.0722,2.0871,2.0871,2.0967,2.1106,2.1126,2.1126,2.1158,2.1305,2.1368,2.14,2.1561,2.1604,2.1561,2.14,2.1486,2.1604,2.1624,2.1624,2.1667,2.1698,2.1698,2.173,2.1843,2.1874,2.1906,2.2073,2.2135,2.2123,2.2123,2.2154,2.2197,2.2197,2.2197,2.2197,2.2197,2.2197,2.2197,2.2197,2.2309,2.2359,2.2359,2.2555,2.2616,2.2616,2.2678,2.2868,2.321,2.2825,2.2837,2.3229,2.2874,2.272,2.272,2.2647,2.2616,2.2598,2.2598,2.2598,2.2586,2.2616,2.2647,2.2678,2.2647,2.2616,2.2616,2.1223,2.1185,2.1108,2.0925,2.0886,2.0886,2.0886,2.1069,2.1185,2.1185,2.1349,2.1512,2.1512,2.1578,2.1655,2.1769,2.1949,2.2044,2.1935,2.1791,2.1498,2.1062,2.0573,2.0245,2.0122,1.9843,1.9582,1.9341,1.9341,1.9407,1.9572,1.9572,1.9747,2.0009,2.0009,2.0042,2.0118,2.0118,2.0151,2.0237,2.0237,2.0367,2.054,2.054,2.0604,2.0701,2.0701,2.0733,2.0818,2.0914,2.0978,2.1031,2.1031,2.1158,2.1305,2.1305,2.1348,2.1454,2.1517,2.1537,2.158,2.1667,2.1761,2.1749,2.158,2.1624,2.173,2.1781,2.1812,2.1812,2.1917,2.1949,2.1949,2.203,2.203,2.2092,2.2197,2.2197,2.2197,2.2197,2.2197,2.2197,2.2197,2.2197,2.2216,2.2278,2.2539,2.2715,2.2821,2.3116,2.3313,2.3313,2.3225,2.3183,2.3183,2.2984,2.3194,2.3741,2.309,2.2948,2.3207,2.2984,2.2878,2.2878,2.283,2.28,2.28,2.28,2.28,2.28,2.2878,2.2878,2.2878,2.2878,2.2878,2.2878,2.1578,2.154,2.1502,2.132,2.132,2.132,2.1359,2.1502,2.1617,2.1655,2.1807,2.1921,2.1921,2.2063,2.2214,2.2402,2.2366,2.2152,2.1795,2.1613,2.1222,2.0452,2.0311,2.0143,1.9944,1.9933,1.9846,1.9681,1.9681,1.9769,1.9933,1.9933,2.0009,2.0118,2.0151,2.0151,2.014,2.0183,2.0313,2.0443,2.0443,2.0572,2.0733,2.0733,2.0765,2.0797,2.0797,2.0882,2.1031,2.1233,2.1296,2.1296,2.1296,2.1348,2.1463,2.1463,2.158,2.1698,2.1761,2.1792,2.1792,2.1855,2.1937,2.203,2.1949,2.1855,2.1855,2.1999,2.203,2.2092,2.2216,2.2216,2.2216,2.2216,2.2216,2.2259,2.2278,2.229,2.229,2.229,2.229,2.229,2.229,2.2375,2.2485,2.2597,2.3084,2.3452,2.3624,2.4087,2.4333,2.4333,2.3963,2.376,2.376,2.3323,2.3346,2.3841,2.3224,2.2989,2.3076,2.3097,2.3108,2.3078,2.3,2.2939,2.2939,2.2939,2.2939,2.2939,2.3047,2.3108,2.3108,2.3108,2.3108,2.3108,2.1769,2.1769,2.1769,2.1731,2.1731,2.1769,2.1959,2.1997,2.2063,2.2252,2.2289,2.2327,2.2327,2.2327,2.2365,2.2402,2.2178,2.202,2.1944,2.1366,2.0958,2.0827,2.0368,2.0107,2.0085,2.0074,2.0042,2.0042,2.0042,2.0042,2.0074,2.0074,2.0074,2.0107,2.0281,2.0346,2.0378,2.054,2.0637,2.0669,2.0669,2.0765,2.0871,2.0871,2.0967,2.1126,2.1126,2.1221,2.1368,2.1561,2.1635,2.1635,2.1635,2.1635,2.1655,2.1655,2.1667,2.1761,2.2042,2.2123,2.2197,2.2506,2.2586,2.2616,2.2739,2.2512,2.2359,2.2555,2.2586,2.2555,2.2389,2.2359,2.2359,2.2359,2.2359,2.242,2.2616,2.2616,2.2616,2.2616,2.2616,2.2616,2.2616,2.3045,2.3315,2.3347,2.385,2.4145,2.4189,2.4439,2.4541,2.4541,2.4166,2.396,2.396,2.3396,2.3145,2.3221,2.3115,2.3341,2.3835,2.3333,2.3108,2.3108,2.3078,2.3078,2.3078,2.3078,2.3078,2.3078,2.3078,2.3108,2.3108,2.3108,2.3108,2.3108,2.2149,2.2149,2.2149,2.2149,2.2149,2.2187,2.2252,2.2252,2.2289,2.2402,2.2402,2.2402,2.2402,2.2515,2.2628,2.274,2.2381,2.2074,2.1803,2.1243,2.0807,2.0643,2.0391,2.0313,2.0443,2.0443,2.0443,2.0443,2.0313,2.0346,2.0443,2.0443,2.0443,2.0443,2.054,2.0572,2.0572,2.0669,2.0733,2.0818,2.0818,2.0967,2.1178,2.1178,2.1285,2.1466,2.1466,2.158,2.1694,2.1781,2.1886,2.198,2.198,2.2042,2.2092,2.2092,2.2216,2.2402,2.2555,2.2635,2.2757,2.3042,2.3103,2.315,2.3365,2.3382,2.3275,2.3,2.2909,2.2909,2.2805,2.2805,2.2805,2.2805,2.2805,2.2805,2.2909,2.2909,2.3051,2.338,2.3418,2.3542,2.3898,2.4039,2.4144,2.424,2.4763,2.5107,2.5194,2.5673,2.5949,2.5949,2.5153,2.4697,2.4602,2.37,2.321,2.3108,2.3108,2.3246,2.3471,2.3221,2.3108,2.3108,2.3108,2.3108,2.3108,2.3108,2.3108,2.3108,2.3108,2.3108,2.3108,2.3108,2.3108,2.3108]}]]